<?xml version="1.0" encoding="UTF-8" standalone="no" ?><gpx xmlns="http://www.topografix.com/GPX/1/1" xmlns:gpxx="http://www.garmin.com/xmlschemas/GpxExtensions/v3" xmlns:wptx1="http://www.garmin.com/xmlschemas/WaypointExtension/v1" xmlns:gpxtpx="http://www.garmin.com/xmlschemas/TrackPointExtension/v1" creator="Oregon 450" version="1.1" xmlns:xsi="http://www.w3.org/2001/XMLSchema-instance" xsi:schemaLocation="http://www.topografix.com/GPX/1/1 http://www.topografix.com/GPX/1/1/gpx.xsd http://www.garmin.com/xmlschemas/GpxExtensions/v3 http://www8.garmin.com/xmlschemas/GpxExtensionsv3.xsd http://www.garmin.com/xmlschemas/WaypointExtension/v1 http://www8.garmin.com/xmlschemas/WaypointExtensionv1.xsd http://www.garmin.com/xmlschemas/TrackPointExtension/v1 http://www.garmin.com/xmlschemas/TrackPointExtensionv1.xsd"><metadata><link href="http://www.garmin.com"><text>Garmin International</text></link><time>2013-07-24T13:01:31Z</time></metadata><trk><name>24-ČRC-13 15:01:29</name><extensions><gpxx:TrackExtension><gpxx:DisplayColor>DarkRed</gpxx:DisplayColor></gpxx:TrackExtension></extensions><trkseg><trkpt lat="46.5563024953" lon="12.2013033461"><ele>1785.31</ele><time>2013-07-24T07:01:11Z</time></trkpt><trkpt lat="46.5563101228" lon="12.2012999095"><ele>1789.15</ele><time>2013-07-24T07:01:13Z</time></trkpt><trkpt lat="46.5562984720" lon="12.2012988199"><ele>1793.00</ele><time>2013-07-24T07:01:17Z</time></trkpt><trkpt lat="46.5562742483" lon="12.2013018373"><ele>1793.96</ele><time>2013-07-24T07:01:20Z</time></trkpt><trkpt lat="46.5562503599" lon="12.2012982331"><ele>1796.36</ele><time>2013-07-24T07:01:23Z</time></trkpt><trkpt lat="46.5562387090" lon="12.2012937907"><ele>1797.80</ele><time>2013-07-24T07:01:25Z</time></trkpt><trkpt lat="46.5562206879" lon="12.2012867499"><ele>1798.76</ele><time>2013-07-24T07:01:27Z</time></trkpt><trkpt lat="46.5562045109" lon="12.2012965567"><ele>1799.24</ele><time>2013-07-24T07:01:29Z</time></trkpt><trkpt lat="46.5561788622" lon="12.2013066988"><ele>1801.17</ele><time>2013-07-24T07:01:33Z</time></trkpt><trkpt lat="46.5560460929" lon="12.2013149969"><ele>1804.05</ele><time>2013-07-24T07:01:43Z</time></trkpt><trkpt lat="46.5559527185" lon="12.2012688965"><ele>1805.49</ele><time>2013-07-24T07:01:51Z</time></trkpt><trkpt lat="46.5558347851" lon="12.2011642903"><ele>1807.42</ele><time>2013-07-24T07:02:02Z</time></trkpt><trkpt lat="46.5557312686" lon="12.2010725923"><ele>1807.90</ele><time>2013-07-24T07:02:12Z</time></trkpt><trkpt lat="46.5556671470" lon="12.2010545712"><ele>1808.38</ele><time>2013-07-24T07:02:17Z</time></trkpt><trkpt lat="46.5556181129" lon="12.2010741010"><ele>1809.34</ele><time>2013-07-24T07:02:21Z</time></trkpt><trkpt lat="46.5555767063" lon="12.2010889370"><ele>1809.34</ele><time>2013-07-24T07:02:24Z</time></trkpt><trkpt lat="46.5554833319" lon="12.2012284957"><ele>1810.30</ele><time>2013-07-24T07:02:36Z</time></trkpt><trkpt lat="46.5554068051" lon="12.2013697308"><ele>1811.74</ele><time>2013-07-24T07:02:46Z</time></trkpt><trkpt lat="46.5553703438" lon="12.2014469281"><ele>1812.22</ele><time>2013-07-24T07:02:52Z</time></trkpt><trkpt lat="46.5553482156" lon="12.2015587427"><ele>1813.18</ele><time>2013-07-24T07:02:59Z</time></trkpt><trkpt lat="46.5553244948" lon="12.2017110419"><ele>1815.59</ele><time>2013-07-24T07:03:08Z</time></trkpt><trkpt lat="46.5553101618" lon="12.2017993033"><ele>1815.59</ele><time>2013-07-24T07:03:13Z</time></trkpt><trkpt lat="46.5552905481" lon="12.2018303163"><ele>1815.11</ele><time>2013-07-24T07:03:15Z</time></trkpt><trkpt lat="46.5552613791" lon="12.2018868942"><ele>1816.07</ele><time>2013-07-24T07:03:19Z</time></trkpt><trkpt lat="46.5552624688" lon="12.2019774187"><ele>1816.55</ele><time>2013-07-24T07:03:24Z</time></trkpt><trkpt lat="46.5552526619" lon="12.2020111140"><ele>1816.55</ele><time>2013-07-24T07:03:26Z</time></trkpt><trkpt lat="46.5552235767" lon="12.2020991240"><ele>1816.55</ele><time>2013-07-24T07:03:31Z</time></trkpt><trkpt lat="46.5551276039" lon="12.2022548597"><ele>1817.51</ele><time>2013-07-24T07:03:41Z</time></trkpt><trkpt lat="46.5551018715" lon="12.2022982780"><ele>1817.51</ele><time>2013-07-24T07:03:44Z</time></trkpt><trkpt lat="46.5550730377" lon="12.2023606393"><ele>1817.99</ele><time>2013-07-24T07:03:49Z</time></trkpt><trkpt lat="46.5550799109" lon="12.2024136130"><ele>1817.99</ele><time>2013-07-24T07:03:52Z</time></trkpt><trkpt lat="46.5550104249" lon="12.2025451250"><ele>1818.47</ele><time>2013-07-24T07:04:01Z</time></trkpt><trkpt lat="46.5549860336" lon="12.2026275191"><ele>1819.43</ele><time>2013-07-24T07:04:07Z</time></trkpt><trkpt lat="46.5549624804" lon="12.2026839294"><ele>1819.43</ele><time>2013-07-24T07:04:11Z</time></trkpt><trkpt lat="46.5549118537" lon="12.2027132660"><ele>1819.91</ele><time>2013-07-24T07:04:15Z</time></trkpt><trkpt lat="46.5547630750" lon="12.2028056346"><ele>1820.39</ele><time>2013-07-24T07:04:27Z</time></trkpt><trkpt lat="46.5546697844" lon="12.2029231489"><ele>1820.87</ele><time>2013-07-24T07:04:38Z</time></trkpt><trkpt lat="46.5545360930" lon="12.2030337900"><ele>1821.35</ele><time>2013-07-24T07:04:48Z</time></trkpt><trkpt lat="46.5544950217" lon="12.2031289246"><ele>1821.35</ele><time>2013-07-24T07:04:53Z</time></trkpt><trkpt lat="46.5544511005" lon="12.2031846642"><ele>1821.35</ele><time>2013-07-24T07:04:57Z</time></trkpt><trkpt lat="46.5543497633" lon="12.2033113986"><ele>1821.84</ele><time>2013-07-24T07:05:07Z</time></trkpt><trkpt lat="46.5542512760" lon="12.2034481075"><ele>1822.32</ele><time>2013-07-24T07:05:16Z</time></trkpt><trkpt lat="46.5541626792" lon="12.2035652865"><ele>1822.80</ele><time>2013-07-24T07:05:25Z</time></trkpt><trkpt lat="46.5541724022" lon="12.2036521230"><ele>1823.28</ele><time>2013-07-24T07:05:30Z</time></trkpt><trkpt lat="46.5541592427" lon="12.2036877461"><ele>1823.28</ele><time>2013-07-24T07:05:32Z</time></trkpt><trkpt lat="46.5541493520" lon="12.2037185077"><ele>1822.80</ele><time>2013-07-24T07:05:34Z</time></trkpt><trkpt lat="46.5541346837" lon="12.2037905920"><ele>1823.28</ele><time>2013-07-24T07:05:41Z</time></trkpt><trkpt lat="46.5541372821" lon="12.2040850483"><ele>1823.76</ele><time>2013-07-24T07:05:54Z</time></trkpt><trkpt lat="46.5541080292" lon="12.2041521035"><ele>1824.24</ele><time>2013-07-24T07:05:58Z</time></trkpt><trkpt lat="46.5539719909" lon="12.2043367568"><ele>1824.24</ele><time>2013-07-24T07:06:08Z</time></trkpt><trkpt lat="46.5538837295" lon="12.2044551931"><ele>1824.72</ele><time>2013-07-24T07:06:17Z</time></trkpt><trkpt lat="46.5538400598" lon="12.2044844460"><ele>1825.20</ele><time>2013-07-24T07:06:21Z</time></trkpt><trkpt lat="46.5538045205" lon="12.2045104299"><ele>1826.16</ele><time>2013-07-24T07:06:24Z</time></trkpt><trkpt lat="46.5536889341" lon="12.2045993619"><ele>1826.64</ele><time>2013-07-24T07:06:32Z</time></trkpt><trkpt lat="46.5535851661" lon="12.2046524193"><ele>1827.12</ele><time>2013-07-24T07:06:40Z</time></trkpt><trkpt lat="46.5534712560" lon="12.2046196461"><ele>1827.12</ele><time>2013-07-24T07:06:54Z</time></trkpt><trkpt lat="46.5534612816" lon="12.2046163771"><ele>1827.12</ele><time>2013-07-24T07:07:06Z</time></trkpt><trkpt lat="46.5533350501" lon="12.2045645770"><ele>1828.08</ele><time>2013-07-24T07:07:19Z</time></trkpt><trkpt lat="46.5532407537" lon="12.2045116033"><ele>1828.56</ele><time>2013-07-24T07:07:28Z</time></trkpt><trkpt lat="46.5531394165" lon="12.2044586297"><ele>1829.05</ele><time>2013-07-24T07:07:37Z</time></trkpt><trkpt lat="46.5530745406" lon="12.2044214979"><ele>1829.53</ele><time>2013-07-24T07:07:43Z</time></trkpt><trkpt lat="46.5529457107" lon="12.2043646686"><ele>1830.01</ele><time>2013-07-24T07:07:55Z</time></trkpt><trkpt lat="46.5529120993" lon="12.2043571249"><ele>1830.49</ele><time>2013-07-24T07:08:01Z</time></trkpt><trkpt lat="46.5528340638" lon="12.2043489106"><ele>1831.45</ele><time>2013-07-24T07:08:08Z</time></trkpt><trkpt lat="46.5527656674" lon="12.2043581307"><ele>1832.41</ele><time>2013-07-24T07:08:15Z</time></trkpt><trkpt lat="46.5527279489" lon="12.2043536045"><ele>1832.41</ele><time>2013-07-24T07:08:19Z</time></trkpt><trkpt lat="46.5526201576" lon="12.2043227591"><ele>1833.37</ele><time>2013-07-24T07:08:30Z</time></trkpt><trkpt lat="46.5525171440" lon="12.2043075040"><ele>1833.37</ele><time>2013-07-24T07:08:38Z</time></trkpt><trkpt lat="46.5524115320" lon="12.2042730544"><ele>1834.33</ele><time>2013-07-24T07:08:48Z</time></trkpt><trkpt lat="46.5523583069" lon="12.2042605653"><ele>1834.33</ele><time>2013-07-24T07:08:54Z</time></trkpt><trkpt lat="46.5522527788" lon="12.2042350005"><ele>1834.33</ele><time>2013-07-24T07:09:05Z</time></trkpt><trkpt lat="46.5521793533" lon="12.2042093519"><ele>1835.29</ele><time>2013-07-24T07:09:12Z</time></trkpt><trkpt lat="46.5521035809" lon="12.2041883133"><ele>1835.77</ele><time>2013-07-24T07:09:23Z</time></trkpt><trkpt lat="46.5520341787" lon="12.2041852959"><ele>1836.26</ele><time>2013-07-24T07:09:34Z</time></trkpt><trkpt lat="46.5520210192" lon="12.2041904926"><ele>1836.26</ele><time>2013-07-24T07:09:35Z</time></trkpt><trkpt lat="46.5519763436" lon="12.2041993774"><ele>1836.26</ele><time>2013-07-24T07:09:39Z</time></trkpt><trkpt lat="46.5518678818" lon="12.2042230144"><ele>1836.74</ele><time>2013-07-24T07:09:50Z</time></trkpt><trkpt lat="46.5518168360" lon="12.2042370122"><ele>1836.74</ele><time>2013-07-24T07:10:00Z</time></trkpt><trkpt lat="46.5517963003" lon="12.2042452265"><ele>1836.74</ele><time>2013-07-24T07:10:15Z</time></trkpt><trkpt lat="46.5517233778" lon="12.2042534407"><ele>1837.22</ele><time>2013-07-24T07:10:25Z</time></trkpt><trkpt lat="46.5517180134" lon="12.2042544466"><ele>1837.70</ele><time>2013-07-24T07:10:39Z</time></trkpt><trkpt lat="46.5517180134" lon="12.2042544466"><ele>1837.22</ele><time>2013-07-24T07:10:52Z</time></trkpt><trkpt lat="46.5517189354" lon="12.2042528540"><ele>1837.70</ele><time>2013-07-24T07:11:14Z</time></trkpt><trkpt lat="46.5517189354" lon="12.2042528540"><ele>1837.22</ele><time>2013-07-24T07:11:36Z</time></trkpt><trkpt lat="46.5517188516" lon="12.2042533569"><ele>1837.70</ele><time>2013-07-24T07:12:00Z</time></trkpt><trkpt lat="46.5517188516" lon="12.2042533569"><ele>1838.18</ele><time>2013-07-24T07:12:23Z</time></trkpt><trkpt lat="46.5517199412" lon="12.2042503394"><ele>1837.22</ele><time>2013-07-24T07:12:46Z</time></trkpt><trkpt lat="46.5517199412" lon="12.2042503394"><ele>1838.18</ele><time>2013-07-24T07:13:01Z</time></trkpt><trkpt lat="46.5517175943" lon="12.2042449750"><ele>1837.70</ele><time>2013-07-24T07:13:18Z</time></trkpt><trkpt lat="46.5517175943" lon="12.2042449750"><ele>1837.70</ele><time>2013-07-24T07:13:39Z</time></trkpt><trkpt lat="46.5517110564" lon="12.2042329051"><ele>1837.70</ele><time>2013-07-24T07:13:58Z</time></trkpt><trkpt lat="46.5516929515" lon="12.2042432148"><ele>1837.70</ele><time>2013-07-24T07:14:05Z</time></trkpt><trkpt lat="46.5516632795" lon="12.2042855434"><ele>1837.70</ele><time>2013-07-24T07:14:08Z</time></trkpt><trkpt lat="46.5515052807" lon="12.2043066658"><ele>1837.70</ele><time>2013-07-24T07:14:19Z</time></trkpt><trkpt lat="46.5514181927" lon="12.2043301351"><ele>1837.22</ele><time>2013-07-24T07:14:28Z</time></trkpt><trkpt lat="46.5513380617" lon="12.2043391038"><ele>1838.18</ele><time>2013-07-24T07:14:37Z</time></trkpt><trkpt lat="46.5513092279" lon="12.2043344937"><ele>1838.18</ele><time>2013-07-24T07:14:39Z</time></trkpt><trkpt lat="46.5511556715" lon="12.2043412831"><ele>1839.14</ele><time>2013-07-24T07:14:52Z</time></trkpt><trkpt lat="46.5511192102" lon="12.2043598071"><ele>1839.62</ele><time>2013-07-24T07:14:56Z</time></trkpt><trkpt lat="46.5510480478" lon="12.2045185603"><ele>1840.10</ele><time>2013-07-24T07:15:09Z</time></trkpt><trkpt lat="46.5510324575" lon="12.2045899741"><ele>1841.06</ele><time>2013-07-24T07:15:14Z</time></trkpt><trkpt lat="46.5510213096" lon="12.2046605498"><ele>1841.06</ele><time>2013-07-24T07:15:19Z</time></trkpt><trkpt lat="46.5510065574" lon="12.2047151998"><ele>1841.54</ele><time>2013-07-24T07:15:23Z</time></trkpt><trkpt lat="46.5509758797" lon="12.2048623022"><ele>1842.02</ele><time>2013-07-24T07:15:34Z</time></trkpt><trkpt lat="46.5509703476" lon="12.2048747912"><ele>1842.50</ele><time>2013-07-24T07:15:35Z</time></trkpt><trkpt lat="46.5509160329" lon="12.2049980890"><ele>1843.95</ele><time>2013-07-24T07:15:43Z</time></trkpt><trkpt lat="46.5508720279" lon="12.2050259169"><ele>1844.43</ele><time>2013-07-24T07:15:47Z</time></trkpt><trkpt lat="46.5508236643" lon="12.2050481290"><ele>1844.43</ele><time>2013-07-24T07:15:51Z</time></trkpt><trkpt lat="46.5507565252" lon="12.2050270066"><ele>1845.87</ele><time>2013-07-24T07:15:59Z</time></trkpt><trkpt lat="46.5506649949" lon="12.2049710155"><ele>1846.35</ele><time>2013-07-24T07:16:11Z</time></trkpt><trkpt lat="46.5506412741" lon="12.2049331293"><ele>1848.27</ele><time>2013-07-24T07:16:22Z</time></trkpt><trkpt lat="46.5506359097" lon="12.2049270943"><ele>1848.27</ele><time>2013-07-24T07:16:23Z</time></trkpt><trkpt lat="46.5505868755" lon="12.2048570216"><ele>1849.23</ele><time>2013-07-24T07:16:33Z</time></trkpt><trkpt lat="46.5505729616" lon="12.2047965880"><ele>1851.16</ele><time>2013-07-24T07:16:41Z</time></trkpt><trkpt lat="46.5505122766" lon="12.2047086619"><ele>1852.60</ele><time>2013-07-24T07:16:53Z</time></trkpt><trkpt lat="46.5504642483" lon="12.2046108451"><ele>1853.08</ele><time>2013-07-24T07:17:02Z</time></trkpt><trkpt lat="46.5503997076" lon="12.2044822667"><ele>1855.00</ele><time>2013-07-24T07:17:12Z</time></trkpt><trkpt lat="46.5503452253" lon="12.2044391837"><ele>1855.00</ele><time>2013-07-24T07:17:17Z</time></trkpt><trkpt lat="46.5503318142" lon="12.2044390161"><ele>1855.48</ele><time>2013-07-24T07:17:19Z</time></trkpt><trkpt lat="46.5502696205" lon="12.2044174746"><ele>1855.48</ele><time>2013-07-24T07:17:23Z</time></trkpt><trkpt lat="46.5502285492" lon="12.2043891437"><ele>1856.44</ele><time>2013-07-24T07:17:28Z</time></trkpt><trkpt lat="46.5501769166" lon="12.2043426242"><ele>1857.40</ele><time>2013-07-24T07:17:34Z</time></trkpt><trkpt lat="46.5501492564" lon="12.2043073364"><ele>1857.89</ele><time>2013-07-24T07:17:38Z</time></trkpt><trkpt lat="46.5501105320" lon="12.2042090166"><ele>1859.33</ele><time>2013-07-24T07:17:49Z</time></trkpt><trkpt lat="46.5500909183" lon="12.2041920852"><ele>1859.33</ele><time>2013-07-24T07:17:52Z</time></trkpt><trkpt lat="46.5500075184" lon="12.2041264549"><ele>1861.25</ele><time>2013-07-24T07:18:01Z</time></trkpt><trkpt lat="46.5499499347" lon="12.2040565498"><ele>1862.21</ele><time>2013-07-24T07:18:10Z</time></trkpt><trkpt lat="46.5499066841" lon="12.2040173225"><ele>1863.65</ele><time>2013-07-24T07:18:18Z</time></trkpt><trkpt lat="46.5498274751" lon="12.2039438970"><ele>1865.09</ele><time>2013-07-24T07:18:29Z</time></trkpt><trkpt lat="46.5497728251" lon="12.2038205154"><ele>1867.02</ele><time>2013-07-24T07:18:39Z</time></trkpt><trkpt lat="46.5497297421" lon="12.2037066892"><ele>1867.98</ele><time>2013-07-24T07:18:48Z</time></trkpt><trkpt lat="46.5496735834" lon="12.2036407236"><ele>1869.42</ele><time>2013-07-24T07:18:57Z</time></trkpt><trkpt lat="46.5495978948" lon="12.2035548091"><ele>1870.38</ele><time>2013-07-24T07:19:08Z</time></trkpt><trkpt lat="46.5495002456" lon="12.2034683917"><ele>1872.30</ele><time>2013-07-24T07:19:19Z</time></trkpt><trkpt lat="46.5494327713" lon="12.2033160087"><ele>1873.75</ele><time>2013-07-24T07:19:30Z</time></trkpt><trkpt lat="46.5493922029" lon="12.2032786254"><ele>1873.75</ele><time>2013-07-24T07:19:35Z</time></trkpt><trkpt lat="46.5493209567" lon="12.2031716723"><ele>1875.67</ele><time>2013-07-24T07:19:47Z</time></trkpt><trkpt lat="46.5492711682" lon="12.2031199560"><ele>1876.15</ele><time>2013-07-24T07:19:53Z</time></trkpt><trkpt lat="46.5492094774" lon="12.2029887792"><ele>1878.07</ele><time>2013-07-24T07:20:04Z</time></trkpt><trkpt lat="46.5491933841" lon="12.2028856818"><ele>1879.51</ele><time>2013-07-24T07:20:11Z</time></trkpt><trkpt lat="46.5491559170" lon="12.2027826682"><ele>1880.96</ele><time>2013-07-24T07:20:19Z</time></trkpt><trkpt lat="46.5491474513" lon="12.2027773876"><ele>1880.96</ele><time>2013-07-24T07:20:21Z</time></trkpt><trkpt lat="46.5491337050" lon="12.2026479710"><ele>1881.44</ele><time>2013-07-24T07:20:27Z</time></trkpt><trkpt lat="46.5490834974" lon="12.2024829313"><ele>1883.36</ele><time>2013-07-24T07:20:38Z</time></trkpt><trkpt lat="46.5490696672" lon="12.2022881359"><ele>1886.24</ele><time>2013-07-24T07:20:50Z</time></trkpt><trkpt lat="46.5490620397" lon="12.2022708692"><ele>1885.76</ele><time>2013-07-24T07:20:51Z</time></trkpt><trkpt lat="46.5490446892" lon="12.2021380998"><ele>1887.21</ele><time>2013-07-24T07:21:02Z</time></trkpt><trkpt lat="46.5490400791" lon="12.2020543646"><ele>1888.65</ele><time>2013-07-24T07:21:08Z</time></trkpt><trkpt lat="46.5490306076" lon="12.2019266244"><ele>1889.61</ele><time>2013-07-24T07:21:18Z</time></trkpt><trkpt lat="46.5490070544" lon="12.2017933521"><ele>1891.53</ele><time>2013-07-24T07:21:28Z</time></trkpt><trkpt lat="46.5489703417" lon="12.2017023247"><ele>1891.53</ele><time>2013-07-24T07:21:36Z</time></trkpt><trkpt lat="46.5489164460" lon="12.2016070224"><ele>1892.49</ele><time>2013-07-24T07:21:42Z</time></trkpt><trkpt lat="46.5488804039" lon="12.2015232034"><ele>1893.45</ele><time>2013-07-24T07:21:47Z</time></trkpt><trkpt lat="46.5488295257" lon="12.2014180105"><ele>1894.90</ele><time>2013-07-24T07:21:54Z</time></trkpt><trkpt lat="46.5487167053" lon="12.2013184335"><ele>1895.86</ele><time>2013-07-24T07:22:07Z</time></trkpt><trkpt lat="46.5486499015" lon="12.2012570780"><ele>1897.78</ele><time>2013-07-24T07:22:16Z</time></trkpt><trkpt lat="46.5485587902" lon="12.2012020089"><ele>1899.70</ele><time>2013-07-24T07:22:27Z</time></trkpt><trkpt lat="46.5484498255" lon="12.2011164296"><ele>1900.66</ele><time>2013-07-24T07:22:38Z</time></trkpt><trkpt lat="46.5483748913" lon="12.2010647133"><ele>1902.11</ele><time>2013-07-24T07:22:47Z</time></trkpt><trkpt lat="46.5482360870" lon="12.2010132484"><ele>1903.07</ele><time>2013-07-24T07:22:59Z</time></trkpt><trkpt lat="46.5481546987" lon="12.2009996697"><ele>1904.03</ele><time>2013-07-24T07:23:09Z</time></trkpt><trkpt lat="46.5480858833" lon="12.2009828221"><ele>1904.51</ele><time>2013-07-24T07:23:16Z</time></trkpt><trkpt lat="46.5479731467" lon="12.2009629570"><ele>1905.95</ele><time>2013-07-24T07:23:25Z</time></trkpt><trkpt lat="46.5478962846" lon="12.2009685729"><ele>1906.43</ele><time>2013-07-24T07:23:31Z</time></trkpt><trkpt lat="46.5478201769" lon="12.2009606939"><ele>1907.39</ele><time>2013-07-24T07:23:39Z</time></trkpt><trkpt lat="46.5477098711" lon="12.2008648049"><ele>1908.83</ele><time>2013-07-24T07:23:50Z</time></trkpt><trkpt lat="46.5476230346" lon="12.2007483803"><ele>1910.28</ele><time>2013-07-24T07:24:01Z</time></trkpt><trkpt lat="46.5475212783" lon="12.2006842587"><ele>1911.72</ele><time>2013-07-24T07:24:11Z</time></trkpt><trkpt lat="46.5474947914" lon="12.2006881144"><ele>1911.72</ele><time>2013-07-24T07:24:15Z</time></trkpt><trkpt lat="46.5474108886" lon="12.2007256653"><ele>1912.20</ele><time>2013-07-24T07:24:25Z</time></trkpt><trkpt lat="46.5474066976" lon="12.2007358074"><ele>1912.68</ele><time>2013-07-24T07:24:26Z</time></trkpt><trkpt lat="46.5473945439" lon="12.2007760406"><ele>1912.68</ele><time>2013-07-24T07:24:31Z</time></trkpt><trkpt lat="46.5473825578" lon="12.2008779645"><ele>1913.64</ele><time>2013-07-24T07:24:40Z</time></trkpt><trkpt lat="46.5473383013" lon="12.2009219695"><ele>1914.60</ele><time>2013-07-24T07:24:49Z</time></trkpt><trkpt lat="46.5472430829" lon="12.2009525634"><ele>1915.08</ele><time>2013-07-24T07:24:59Z</time></trkpt><trkpt lat="46.5471803863" lon="12.2009914555"><ele>1916.53</ele><time>2013-07-24T07:25:06Z</time></trkpt><trkpt lat="46.5471466910" lon="12.2010082193"><ele>1916.04</ele><time>2013-07-24T07:25:09Z</time></trkpt><trkpt lat="46.5469917934" lon="12.2010862548"><ele>1917.49</ele><time>2013-07-24T07:25:19Z</time></trkpt><trkpt lat="46.5468161087" lon="12.2011203691"><ele>1918.93</ele><time>2013-07-24T07:25:31Z</time></trkpt><trkpt lat="46.5467680804" lon="12.2011114843"><ele>1920.37</ele><time>2013-07-24T07:25:36Z</time></trkpt><trkpt lat="46.5466293599" lon="12.2010582592"><ele>1921.81</ele><time>2013-07-24T07:25:47Z</time></trkpt><trkpt lat="46.5465166233" lon="12.2010292578"><ele>1922.77</ele><time>2013-07-24T07:25:55Z</time></trkpt><trkpt lat="46.5463830996" lon="12.2010430880"><ele>1924.22</ele><time>2013-07-24T07:26:06Z</time></trkpt><trkpt lat="46.5462839417" lon="12.2010611091"><ele>1925.18</ele><time>2013-07-24T07:26:15Z</time></trkpt><trkpt lat="46.5462272801" lon="12.2010538168"><ele>1926.62</ele><time>2013-07-24T07:26:23Z</time></trkpt><trkpt lat="46.5461303014" lon="12.2010336164"><ele>1928.06</ele><time>2013-07-24T07:26:33Z</time></trkpt><trkpt lat="46.5460158885" lon="12.2010376398"><ele>1928.54</ele><time>2013-07-24T07:26:43Z</time></trkpt><trkpt lat="46.5460028127" lon="12.2010487039"><ele>1929.50</ele><time>2013-07-24T07:26:45Z</time></trkpt><trkpt lat="46.5458738990" lon="12.2010488715"><ele>1930.95</ele><time>2013-07-24T07:26:57Z</time></trkpt><trkpt lat="46.5458516870" lon="12.2010445129"><ele>1931.43</ele><time>2013-07-24T07:26:59Z</time></trkpt><trkpt lat="46.5457626712" lon="12.2010443453"><ele>1932.39</ele><time>2013-07-24T07:27:08Z</time></trkpt><trkpt lat="46.5457473323" lon="12.2010435909"><ele>1932.39</ele><time>2013-07-24T07:27:10Z</time></trkpt><trkpt lat="46.5456700511" lon="12.2010454349"><ele>1933.35</ele><time>2013-07-24T07:27:17Z</time></trkpt><trkpt lat="46.5455693007" lon="12.2010436747"><ele>1934.79</ele><time>2013-07-24T07:27:24Z</time></trkpt><trkpt lat="46.5455460828" lon="12.2010426689"><ele>1934.31</ele><time>2013-07-24T07:27:26Z</time></trkpt><trkpt lat="46.5453988966" lon="12.2010524757"><ele>1936.23</ele><time>2013-07-24T07:27:37Z</time></trkpt><trkpt lat="46.5453342721" lon="12.2010730952"><ele>1937.19</ele><time>2013-07-24T07:27:44Z</time></trkpt><trkpt lat="46.5452726651" lon="12.2011973150"><ele>1937.19</ele><time>2013-07-24T07:27:56Z</time></trkpt><trkpt lat="46.5452472679" lon="12.2013012506"><ele>1937.19</ele><time>2013-07-24T07:28:03Z</time></trkpt><trkpt lat="46.5452101361" lon="12.2013636120"><ele>1937.67</ele><time>2013-07-24T07:28:08Z</time></trkpt><trkpt lat="46.5452048555" lon="12.2014376242"><ele>1937.67</ele><time>2013-07-24T07:28:11Z</time></trkpt><trkpt lat="46.5450238902" lon="12.2015460022"><ele>1938.64</ele><time>2013-07-24T07:28:22Z</time></trkpt><trkpt lat="46.5448804758" lon="12.2014999017"><ele>1938.64</ele><time>2013-07-24T07:28:32Z</time></trkpt><trkpt lat="46.5447627101" lon="12.2015247121"><ele>1940.56</ele><time>2013-07-24T07:28:42Z</time></trkpt><trkpt lat="46.5447058808" lon="12.2016368620"><ele>1941.52</ele><time>2013-07-24T07:28:52Z</time></trkpt><trkpt lat="46.5446611214" lon="12.2018035781"><ele>1942.48</ele><time>2013-07-24T07:29:03Z</time></trkpt><trkpt lat="46.5445788112" lon="12.2019094415"><ele>1943.92</ele><time>2013-07-24T07:29:12Z</time></trkpt><trkpt lat="46.5444241650" lon="12.2019640077"><ele>1944.88</ele><time>2013-07-24T07:29:23Z</time></trkpt><trkpt lat="46.5443849377" lon="12.2019921709"><ele>1945.85</ele><time>2013-07-24T07:29:28Z</time></trkpt><trkpt lat="46.5443160385" lon="12.2020657640"><ele>1945.36</ele><time>2013-07-24T07:29:35Z</time></trkpt><trkpt lat="46.5442950837" lon="12.2021014709"><ele>1945.85</ele><time>2013-07-24T07:29:38Z</time></trkpt><trkpt lat="46.5442955866" lon="12.2021634970"><ele>1945.36</ele><time>2013-07-24T07:29:43Z</time></trkpt><trkpt lat="46.5442007035" lon="12.2022863757"><ele>1945.85</ele><time>2013-07-24T07:29:50Z</time></trkpt><trkpt lat="46.5440014657" lon="12.2022585478"><ele>1946.33</ele><time>2013-07-24T07:30:01Z</time></trkpt><trkpt lat="46.5439722966" lon="12.2022493277"><ele>1945.85</ele><time>2013-07-24T07:30:03Z</time></trkpt><trkpt lat="46.5439209156" lon="12.2021956835"><ele>1945.85</ele><time>2013-07-24T07:30:08Z</time></trkpt><trkpt lat="46.5438904054" lon="12.2021873854"><ele>1946.33</ele><time>2013-07-24T07:30:11Z</time></trkpt><trkpt lat="46.5437552892" lon="12.2021557856"><ele>1946.33</ele><time>2013-07-24T07:30:21Z</time></trkpt><trkpt lat="46.5437121224" lon="12.2021367587"><ele>1946.81</ele><time>2013-07-24T07:30:25Z</time></trkpt><trkpt lat="46.5435692947" lon="12.2021257784"><ele>1947.77</ele><time>2013-07-24T07:30:37Z</time></trkpt><trkpt lat="46.5434497688" lon="12.2021105234"><ele>1948.25</ele><time>2013-07-24T07:30:47Z</time></trkpt><trkpt lat="46.5433832165" lon="12.2021033987"><ele>1948.73</ele><time>2013-07-24T07:30:53Z</time></trkpt><trkpt lat="46.5433144849" lon="12.2020912450"><ele>1950.17</ele><time>2013-07-24T07:30:58Z</time></trkpt><trkpt lat="46.5432274807" lon="12.2020310629"><ele>1950.65</ele><time>2013-07-24T07:31:08Z</time></trkpt><trkpt lat="46.5431370400" lon="12.2020423785"><ele>1953.06</ele><time>2013-07-24T07:31:18Z</time></trkpt><trkpt lat="46.5431034286" lon="12.2020915803"><ele>1953.54</ele><time>2013-07-24T07:31:23Z</time></trkpt><trkpt lat="46.5430891793" lon="12.2021272872"><ele>1954.50</ele><time>2013-07-24T07:31:26Z</time></trkpt><trkpt lat="46.5430725832" lon="12.2021493316"><ele>1954.02</ele><time>2013-07-24T07:31:28Z</time></trkpt><trkpt lat="46.5430490300" lon="12.2021915764"><ele>1954.50</ele><time>2013-07-24T07:31:32Z</time></trkpt><trkpt lat="46.5430067014" lon="12.2022345755"><ele>1955.94</ele><time>2013-07-24T07:31:38Z</time></trkpt><trkpt lat="46.5429703239" lon="12.2022700310"><ele>1956.42</ele><time>2013-07-24T07:31:42Z</time></trkpt><trkpt lat="46.5429341979" lon="12.2022894770"><ele>1956.90</ele><time>2013-07-24T07:31:46Z</time></trkpt><trkpt lat="46.5428336151" lon="12.2022908181"><ele>1957.86</ele><time>2013-07-24T07:31:55Z</time></trkpt><trkpt lat="46.5427932143" lon="12.2022791672"><ele>1958.34</ele><time>2013-07-24T07:31:59Z</time></trkpt><trkpt lat="46.5426789690" lon="12.2022324800"><ele>1959.78</ele><time>2013-07-24T07:32:08Z</time></trkpt><trkpt lat="46.5426393226" lon="12.2021612339"><ele>1960.75</ele><time>2013-07-24T07:32:16Z</time></trkpt><trkpt lat="46.5426218044" lon="12.2021453083"><ele>1960.75</ele><time>2013-07-24T07:32:18Z</time></trkpt><trkpt lat="46.5425917972" lon="12.2020800132"><ele>1961.23</ele><time>2013-07-24T07:32:24Z</time></trkpt><trkpt lat="46.5425524022" lon="12.2019958589"><ele>1962.67</ele><time>2013-07-24T07:32:34Z</time></trkpt><trkpt lat="46.5425452776" lon="12.2019846272"><ele>1963.63</ele><time>2013-07-24T07:32:43Z</time></trkpt><trkpt lat="46.5425052121" lon="12.2019703779"><ele>1964.59</ele><time>2013-07-24T07:32:52Z</time></trkpt><trkpt lat="46.5423916373" lon="12.2019443940"><ele>1965.55</ele><time>2013-07-24T07:33:03Z</time></trkpt><trkpt lat="46.5423707664" lon="12.2019376047"><ele>1966.51</ele><time>2013-07-24T07:33:07Z</time></trkpt><trkpt lat="46.5422318783" lon="12.2018775064"><ele>1967.48</ele><time>2013-07-24T07:33:17Z</time></trkpt><trkpt lat="46.5421203990" lon="12.2018545400"><ele>1968.44</ele><time>2013-07-24T07:33:23Z</time></trkpt><trkpt lat="46.5419918206" lon="12.2017931845"><ele>1969.40</ele><time>2013-07-24T07:33:33Z</time></trkpt><trkpt lat="46.5419278666" lon="12.2017041687"><ele>1970.36</ele><time>2013-07-24T07:33:43Z</time></trkpt><trkpt lat="46.5418351628" lon="12.2016662825"><ele>1971.32</ele><time>2013-07-24T07:33:53Z</time></trkpt><trkpt lat="46.5418226738" lon="12.2016605828"><ele>1971.32</ele><time>2013-07-24T07:33:54Z</time></trkpt><trkpt lat="46.5417543612" lon="12.2015268076"><ele>1972.76</ele><time>2013-07-24T07:34:06Z</time></trkpt><trkpt lat="46.5416618250" lon="12.2014387976"><ele>1974.20</ele><time>2013-07-24T07:34:16Z</time></trkpt><trkpt lat="46.5416276269" lon="12.2013936192"><ele>1974.69</ele><time>2013-07-24T07:34:20Z</time></trkpt><trkpt lat="46.5415356774" lon="12.2013050225"><ele>1976.61</ele><time>2013-07-24T07:34:30Z</time></trkpt><trkpt lat="46.5414713044" lon="12.2012300044"><ele>1977.57</ele><time>2013-07-24T07:34:39Z</time></trkpt><trkpt lat="46.5414415486" lon="12.2011691518"><ele>1979.49</ele><time>2013-07-24T07:34:49Z</time></trkpt><trkpt lat="46.5413391218" lon="12.2012169287"><ele>1980.93</ele><time>2013-07-24T07:35:01Z</time></trkpt><trkpt lat="46.5412454121" lon="12.2012807988"><ele>1981.90</ele><time>2013-07-24T07:35:10Z</time></trkpt><trkpt lat="46.5412297379" lon="12.2012937907"><ele>1982.38</ele><time>2013-07-24T07:35:12Z</time></trkpt><trkpt lat="46.5411968809" lon="12.2013329342"><ele>1982.86</ele><time>2013-07-24T07:35:17Z</time></trkpt><trkpt lat="46.5411066916" lon="12.2013741732"><ele>1984.30</ele><time>2013-07-24T07:35:27Z</time></trkpt><trkpt lat="46.5410016663" lon="12.2013570741"><ele>1985.74</ele><time>2013-07-24T07:35:37Z</time></trkpt><trkpt lat="46.5409082081" lon="12.2013030946"><ele>1987.18</ele><time>2013-07-24T07:35:49Z</time></trkpt><trkpt lat="46.5408450924" lon="12.2012777813"><ele>1988.14</ele><time>2013-07-24T07:35:57Z</time></trkpt><trkpt lat="46.5408062842" lon="12.2013332695"><ele>1990.07</ele><time>2013-07-24T07:36:08Z</time></trkpt><trkpt lat="46.5408085473" lon="12.2013737541"><ele>1990.55</ele><time>2013-07-24T07:36:16Z</time></trkpt><trkpt lat="46.5407857485" lon="12.2014624346"><ele>1991.99</ele><time>2013-07-24T07:36:25Z</time></trkpt><trkpt lat="46.5407725889" lon="12.2015009914"><ele>1992.47</ele><time>2013-07-24T07:36:28Z</time></trkpt><trkpt lat="46.5406645462" lon="12.2015750036"><ele>1993.43</ele><time>2013-07-24T07:36:40Z</time></trkpt><trkpt lat="46.5406430047" lon="12.2015863191"><ele>1993.43</ele><time>2013-07-24T07:36:42Z</time></trkpt><trkpt lat="46.5405893605" lon="12.2016111296"><ele>1993.91</ele><time>2013-07-24T07:36:48Z</time></trkpt><trkpt lat="46.5405430924" lon="12.2016236186"><ele>1994.87</ele><time>2013-07-24T07:36:52Z</time></trkpt><trkpt lat="46.5404430125" lon="12.2016254626"><ele>1996.32</ele><time>2013-07-24T07:37:03Z</time></trkpt><trkpt lat="46.5403783042" lon="12.2016288992"><ele>1997.76</ele><time>2013-07-24T07:37:14Z</time></trkpt><trkpt lat="46.5402240772" lon="12.2016330063"><ele>1999.20</ele><time>2013-07-24T07:37:27Z</time></trkpt><trkpt lat="46.5401992667" lon="12.2016079444"><ele>1999.68</ele><time>2013-07-24T07:37:31Z</time></trkpt><trkpt lat="46.5400980972" lon="12.2015815414"><ele>2000.64</ele><time>2013-07-24T07:37:41Z</time></trkpt><trkpt lat="46.5400340594" lon="12.2015335131"><ele>2001.60</ele><time>2013-07-24T07:37:50Z</time></trkpt><trkpt lat="46.5399630647" lon="12.2015213594"><ele>2002.08</ele><time>2013-07-24T07:37:55Z</time></trkpt><trkpt lat="46.5398929920" lon="12.2014808748"><ele>2003.52</ele><time>2013-07-24T07:38:03Z</time></trkpt><trkpt lat="46.5398439579" lon="12.2014325112"><ele>2004.49</ele><time>2013-07-24T07:38:13Z</time></trkpt><trkpt lat="46.5397959296" lon="12.2014358640"><ele>2005.93</ele><time>2013-07-24T07:38:21Z</time></trkpt><trkpt lat="46.5397453029" lon="12.2014522087"><ele>2007.37</ele><time>2013-07-24T07:38:29Z</time></trkpt><trkpt lat="46.5397394355" lon="12.2014531307"><ele>2008.81</ele><time>2013-07-24T07:38:38Z</time></trkpt><trkpt lat="46.5396976937" lon="12.2014520410"><ele>2009.77</ele><time>2013-07-24T07:38:48Z</time></trkpt><trkpt lat="46.5396508388" lon="12.2014612611"><ele>2011.22</ele><time>2013-07-24T07:38:58Z</time></trkpt><trkpt lat="46.5396073367" lon="12.2014606744"><ele>2013.14</ele><time>2013-07-24T07:39:09Z</time></trkpt><trkpt lat="46.5395508427" lon="12.2014679667"><ele>2014.58</ele><time>2013-07-24T07:39:20Z</time></trkpt><trkpt lat="46.5394878946" lon="12.2014754266"><ele>2016.02</ele><time>2013-07-24T07:39:31Z</time></trkpt><trkpt lat="46.5394624975" lon="12.2014962137"><ele>2017.46</ele><time>2013-07-24T07:39:41Z</time></trkpt><trkpt lat="46.5394267906" lon="12.2015326750"><ele>2018.91</ele><time>2013-07-24T07:39:51Z</time></trkpt><trkpt lat="46.5394236054" lon="12.2015353572"><ele>2020.83</ele><time>2013-07-24T07:40:02Z</time></trkpt><trkpt lat="46.5394236054" lon="12.2015353572"><ele>2022.75</ele><time>2013-07-24T07:40:14Z</time></trkpt><trkpt lat="46.5394071769" lon="12.2015495226"><ele>2024.67</ele><time>2013-07-24T07:40:24Z</time></trkpt><trkpt lat="46.5393641777" lon="12.2015799489"><ele>2026.12</ele><time>2013-07-24T07:40:35Z</time></trkpt><trkpt lat="46.5393133834" lon="12.2016384546"><ele>2027.56</ele><time>2013-07-24T07:40:47Z</time></trkpt><trkpt lat="46.5392682049" lon="12.2016785201"><ele>2028.52</ele><time>2013-07-24T07:40:52Z</time></trkpt><trkpt lat="46.5391318314" lon="12.2017259616"><ele>2028.52</ele><time>2013-07-24T07:41:03Z</time></trkpt><trkpt lat="46.5389853157" lon="12.2017687932"><ele>2027.56</ele><time>2013-07-24T07:41:14Z</time></trkpt><trkpt lat="46.5388223715" lon="12.2018165700"><ele>2027.56</ele><time>2013-07-24T07:41:25Z</time></trkpt><trkpt lat="46.5387011692" lon="12.2018707171"><ele>2028.52</ele><time>2013-07-24T07:41:36Z</time></trkpt><trkpt lat="46.5386175178" lon="12.2019474953"><ele>2029.48</ele><time>2013-07-24T07:41:46Z</time></trkpt><trkpt lat="46.5385926235" lon="12.2019821126"><ele>2029.96</ele><time>2013-07-24T07:41:50Z</time></trkpt><trkpt lat="46.5385169350" lon="12.2021009680"><ele>2031.40</ele><time>2013-07-24T07:42:02Z</time></trkpt><trkpt lat="46.5384886879" lon="12.2021402791"><ele>2032.36</ele><time>2013-07-24T07:42:06Z</time></trkpt><trkpt lat="46.5384064615" lon="12.2022101842"><ele>2034.29</ele><time>2013-07-24T07:42:18Z</time></trkpt><trkpt lat="46.5383491293" lon="12.2022939194"><ele>2036.21</ele><time>2013-07-24T07:42:30Z</time></trkpt><trkpt lat="46.5383347962" lon="12.2022991162"><ele>2036.69</ele><time>2013-07-24T07:42:31Z</time></trkpt><trkpt lat="46.5382522345" lon="12.2023873776"><ele>2036.21</ele><time>2013-07-24T07:42:41Z</time></trkpt><trkpt lat="46.5382352192" lon="12.2024137806"><ele>2036.69</ele><time>2013-07-24T07:42:43Z</time></trkpt><trkpt lat="46.5382129233" lon="12.2024321370"><ele>2036.21</ele><time>2013-07-24T07:42:45Z</time></trkpt><trkpt lat="46.5381510649" lon="12.2025662474"><ele>2038.13</ele><time>2013-07-24T07:42:57Z</time></trkpt><trkpt lat="46.5381138492" lon="12.2026520781"><ele>2039.09</ele><time>2013-07-24T07:43:06Z</time></trkpt><trkpt lat="46.5380928945" lon="12.2027793154"><ele>2041.98</ele><time>2013-07-24T07:43:19Z</time></trkpt><trkpt lat="46.5380997676" lon="12.2028603684"><ele>2042.94</ele><time>2013-07-24T07:43:29Z</time></trkpt><trkpt lat="46.5381034557" lon="12.2029235680"><ele>2044.86</ele><time>2013-07-24T07:43:39Z</time></trkpt><trkpt lat="46.5381021146" lon="12.2030259110"><ele>2046.78</ele><time>2013-07-24T07:43:49Z</time></trkpt><trkpt lat="46.5380946547" lon="12.2031051200"><ele>2047.75</ele><time>2013-07-24T07:43:57Z</time></trkpt><trkpt lat="46.5381367318" lon="12.2032389790"><ele>2049.19</ele><time>2013-07-24T07:44:09Z</time></trkpt><trkpt lat="46.5381718520" lon="12.2032994125"><ele>2050.15</ele><time>2013-07-24T07:44:20Z</time></trkpt><trkpt lat="46.5381991770" lon="12.2033523023"><ele>2051.11</ele><time>2013-07-24T07:44:30Z</time></trkpt><trkpt lat="46.5382058825" lon="12.2033594269"><ele>2052.55</ele><time>2013-07-24T07:44:33Z</time></trkpt><trkpt lat="46.5382247418" lon="12.2033865005"><ele>2053.51</ele><time>2013-07-24T07:44:44Z</time></trkpt><trkpt lat="46.5382280946" lon="12.2033963073"><ele>2054.47</ele><time>2013-07-24T07:44:54Z</time></trkpt><trkpt lat="46.5382289328" lon="12.2034270689"><ele>2056.40</ele><time>2013-07-24T07:45:05Z</time></trkpt><trkpt lat="46.5382358059" lon="12.2034402285"><ele>2057.36</ele><time>2013-07-24T07:45:14Z</time></trkpt><trkpt lat="46.5382847562" lon="12.2034861613"><ele>2059.28</ele><time>2013-07-24T07:45:26Z</time></trkpt><trkpt lat="46.5383198764" lon="12.2035243828"><ele>2060.72</ele><time>2013-07-24T07:45:36Z</time></trkpt><trkpt lat="46.5383435134" lon="12.2035951260"><ele>2061.68</ele><time>2013-07-24T07:45:45Z</time></trkpt><trkpt lat="46.5383839980" lon="12.2036781907"><ele>2063.13</ele><time>2013-07-24T07:45:55Z</time></trkpt><trkpt lat="46.5383973252" lon="12.2037665360"><ele>2064.57</ele><time>2013-07-24T07:46:05Z</time></trkpt><trkpt lat="46.5384345409" lon="12.2038140614"><ele>2066.49</ele><time>2013-07-24T07:46:16Z</time></trkpt><trkpt lat="46.5385213774" lon="12.2039168235"><ele>2067.45</ele><time>2013-07-24T07:46:29Z</time></trkpt><trkpt lat="46.5385621134" lon="12.2039692104"><ele>2068.89</ele><time>2013-07-24T07:46:38Z</time></trkpt><trkpt lat="46.5385934617" lon="12.2040630039"><ele>2070.82</ele><time>2013-07-24T07:46:49Z</time></trkpt><trkpt lat="46.5386310965" lon="12.2040962800"><ele>2071.78</ele><time>2013-07-24T07:46:58Z</time></trkpt><trkpt lat="46.5386580024" lon="12.2041014768"><ele>2073.22</ele><time>2013-07-24T07:47:08Z</time></trkpt><trkpt lat="46.5387172624" lon="12.2041117027"><ele>2074.66</ele><time>2013-07-24T07:47:19Z</time></trkpt><trkpt lat="46.5387870837" lon="12.2041053325"><ele>2075.62</ele><time>2013-07-24T07:47:29Z</time></trkpt><trkpt lat="46.5387527179" lon="12.2041761596"><ele>2077.55</ele><time>2013-07-24T07:47:42Z</time></trkpt><trkpt lat="46.5387342777" lon="12.2042449750"><ele>2079.47</ele><time>2013-07-24T07:47:53Z</time></trkpt><trkpt lat="46.5387324337" lon="12.2042706236"><ele>2080.91</ele><time>2013-07-24T07:48:04Z</time></trkpt><trkpt lat="46.5387324337" lon="12.2042706236"><ele>2080.43</ele><time>2013-07-24T07:48:05Z</time></trkpt><trkpt lat="46.5386801306" lon="12.2042957693"><ele>2081.87</ele><time>2013-07-24T07:48:15Z</time></trkpt><trkpt lat="46.5386221278" lon="12.2044049017"><ele>2083.79</ele><time>2013-07-24T07:48:28Z</time></trkpt><trkpt lat="46.5386098903" lon="12.2044253536"><ele>2083.79</ele><time>2013-07-24T07:48:30Z</time></trkpt><trkpt lat="46.5385415778" lon="12.2045012936"><ele>2084.76</ele><time>2013-07-24T07:48:40Z</time></trkpt><trkpt lat="46.5385008417" lon="12.2045667563"><ele>2086.68</ele><time>2013-07-24T07:48:54Z</time></trkpt><trkpt lat="46.5385077149" lon="12.2046342306"><ele>2088.60</ele><time>2013-07-24T07:49:04Z</time></trkpt><trkpt lat="46.5384943038" lon="12.2046755534"><ele>2088.60</ele><time>2013-07-24T07:49:06Z</time></trkpt><trkpt lat="46.5383733530" lon="12.2048680019"><ele>2089.08</ele><time>2013-07-24T07:49:17Z</time></trkpt><trkpt lat="46.5383539069" lon="12.2048778925"><ele>2090.04</ele><time>2013-07-24T07:49:19Z</time></trkpt><trkpt lat="46.5382732730" lon="12.2049312852"><ele>2091.00</ele><time>2013-07-24T07:49:28Z</time></trkpt><trkpt lat="46.5382113308" lon="12.2050277609"><ele>2091.97</ele><time>2013-07-24T07:49:39Z</time></trkpt><trkpt lat="46.5382025298" lon="12.2050892003"><ele>2093.89</ele><time>2013-07-24T07:49:50Z</time></trkpt><trkpt lat="46.5381943155" lon="12.2051294334"><ele>2093.89</ele><time>2013-07-24T07:49:53Z</time></trkpt><trkpt lat="46.5381696727" lon="12.2051656432"><ele>2094.37</ele><time>2013-07-24T07:49:56Z</time></trkpt><trkpt lat="46.5381094068" lon="12.2052318603"><ele>2094.85</ele><time>2013-07-24T07:50:06Z</time></trkpt><trkpt lat="46.5380799863" lon="12.2053091414"><ele>2095.81</ele><time>2013-07-24T07:50:15Z</time></trkpt><trkpt lat="46.5380278509" lon="12.2053461056"><ele>2096.77</ele><time>2013-07-24T07:50:26Z</time></trkpt><trkpt lat="46.5380215645" lon="12.2053592652"><ele>2098.70</ele><time>2013-07-24T07:50:37Z</time></trkpt><trkpt lat="46.5380048845" lon="12.2053561639"><ele>2099.66</ele><time>2013-07-24T07:50:42Z</time></trkpt><trkpt lat="46.5379602090" lon="12.2054099757"><ele>2101.10</ele><time>2013-07-24T07:50:50Z</time></trkpt><trkpt lat="46.5379531682" lon="12.2055602632"><ele>2102.06</ele><time>2013-07-24T07:50:59Z</time></trkpt><trkpt lat="46.5379364882" lon="12.2056049388"><ele>2102.54</ele><time>2013-07-24T07:51:02Z</time></trkpt><trkpt lat="46.5377660003" lon="12.2057452518"><ele>2103.50</ele><time>2013-07-24T07:51:12Z</time></trkpt><trkpt lat="46.5377372503" lon="12.2058647778"><ele>2104.46</ele><time>2013-07-24T07:51:23Z</time></trkpt><trkpt lat="46.5377351549" lon="12.2058748361"><ele>2104.94</ele><time>2013-07-24T07:51:24Z</time></trkpt><trkpt lat="46.5377162118" lon="12.2059889138"><ele>2105.42</ele><time>2013-07-24T07:51:35Z</time></trkpt><trkpt lat="46.5376726259" lon="12.2060564719"><ele>2106.87</ele><time>2013-07-24T07:51:44Z</time></trkpt><trkpt lat="46.5376292076" lon="12.2060964536"><ele>2107.83</ele><time>2013-07-24T07:51:53Z</time></trkpt><trkpt lat="46.5375704505" lon="12.2060925979"><ele>2108.79</ele><time>2013-07-24T07:52:03Z</time></trkpt><trkpt lat="46.5375109389" lon="12.2061192524"><ele>2110.23</ele><time>2013-07-24T07:52:13Z</time></trkpt><trkpt lat="46.5374417044" lon="12.2061700467"><ele>2111.67</ele><time>2013-07-24T07:52:23Z</time></trkpt><trkpt lat="46.5373517666" lon="12.2062106151"><ele>2112.63</ele><time>2013-07-24T07:52:33Z</time></trkpt><trkpt lat="46.5372769162" lon="12.2063078452"><ele>2114.08</ele><time>2013-07-24T07:52:42Z</time></trkpt><trkpt lat="46.5372612420" lon="12.2063339129"><ele>2114.08</ele><time>2013-07-24T07:52:44Z</time></trkpt><trkpt lat="46.5371557977" lon="12.2064102720"><ele>2115.04</ele><time>2013-07-24T07:52:54Z</time></trkpt><trkpt lat="46.5370327514" lon="12.2064462304"><ele>2116.96</ele><time>2013-07-24T07:53:05Z</time></trkpt><trkpt lat="46.5369780175" lon="12.2064741421"><ele>2117.44</ele><time>2013-07-24T07:53:12Z</time></trkpt><trkpt lat="46.5369108785" lon="12.2065287083"><ele>2117.92</ele><time>2013-07-24T07:53:20Z</time></trkpt><trkpt lat="46.5368212759" lon="12.2065575421"><ele>2118.88</ele><time>2013-07-24T07:53:31Z</time></trkpt><trkpt lat="46.5367436595" lon="12.2065617330"><ele>2120.81</ele><time>2013-07-24T07:53:41Z</time></trkpt><trkpt lat="46.5366741735" lon="12.2065595537"><ele>2121.77</ele><time>2013-07-24T07:53:49Z</time></trkpt><trkpt lat="46.5366499498" lon="12.2065651696"><ele>2122.25</ele><time>2013-07-24T07:53:52Z</time></trkpt><trkpt lat="46.5365919471" lon="12.2065804247"><ele>2122.25</ele><time>2013-07-24T07:53:59Z</time></trkpt><trkpt lat="46.5365033504" lon="12.2065786645"><ele>2124.17</ele><time>2013-07-24T07:54:08Z</time></trkpt><trkpt lat="46.5364132449" lon="12.2066287883"><ele>2124.65</ele><time>2013-07-24T07:54:18Z</time></trkpt><trkpt lat="46.5363321081" lon="12.2067053989"><ele>2126.57</ele><time>2013-07-24T07:54:29Z</time></trkpt><trkpt lat="46.5362412483" lon="12.2067940794"><ele>2127.53</ele><time>2013-07-24T07:54:39Z</time></trkpt><trkpt lat="46.5361514781" lon="12.2068411857"><ele>2128.50</ele><time>2013-07-24T07:54:51Z</time></trkpt><trkpt lat="46.5360632166" lon="12.2068549320"><ele>2128.98</ele><time>2013-07-24T07:55:01Z</time></trkpt><trkpt lat="46.5359451156" lon="12.2068451252"><ele>2130.42</ele><time>2013-07-24T07:55:13Z</time></trkpt><trkpt lat="46.5358265117" lon="12.2068342287"><ele>2132.34</ele><time>2013-07-24T07:55:26Z</time></trkpt><trkpt lat="46.5357514936" lon="12.2068343963"><ele>2133.30</ele><time>2013-07-24T07:55:34Z</time></trkpt><trkpt lat="46.5356286988" lon="12.2068892140"><ele>2134.26</ele><time>2013-07-24T07:55:45Z</time></trkpt><trkpt lat="46.5355994459" lon="12.2068899684"><ele>2134.26</ele><time>2013-07-24T07:55:48Z</time></trkpt><trkpt lat="46.5355732106" lon="12.2069057263"><ele>2134.74</ele><time>2013-07-24T07:55:51Z</time></trkpt><trkpt lat="46.5354933310" lon="12.2070032079"><ele>2136.19</ele><time>2013-07-24T07:56:02Z</time></trkpt><trkpt lat="46.5354848653" lon="12.2070316225"><ele>2135.71</ele><time>2013-07-24T07:56:14Z</time></trkpt><trkpt lat="46.5354848653" lon="12.2070316225"><ele>2135.71</ele><time>2013-07-24T07:56:30Z</time></trkpt><trkpt lat="46.5354874637" lon="12.2070288565"><ele>2135.23</ele><time>2013-07-24T07:56:54Z</time></trkpt><trkpt lat="46.5354971029" lon="12.2070140205"><ele>2135.23</ele><time>2013-07-24T07:57:02Z</time></trkpt><trkpt lat="46.5354971029" lon="12.2070140205"><ele>2135.23</ele><time>2013-07-24T07:57:19Z</time></trkpt><trkpt lat="46.5354971029" lon="12.2070140205"><ele>2134.74</ele><time>2013-07-24T07:57:38Z</time></trkpt><trkpt lat="46.5354971867" lon="12.2070129309"><ele>2135.23</ele><time>2013-07-24T07:58:01Z</time></trkpt><trkpt lat="46.5354950074" lon="12.2070198040"><ele>2134.74</ele><time>2013-07-24T07:58:30Z</time></trkpt><trkpt lat="46.5354944207" lon="12.2070201393"><ele>2135.71</ele><time>2013-07-24T07:59:04Z</time></trkpt><trkpt lat="46.5354944207" lon="12.2070201393"><ele>2135.23</ele><time>2013-07-24T07:59:32Z</time></trkpt><trkpt lat="46.5354935825" lon="12.2070250008"><ele>2135.71</ele><time>2013-07-24T08:00:01Z</time></trkpt><trkpt lat="46.5354935825" lon="12.2070250008"><ele>2133.78</ele><time>2013-07-24T08:00:15Z</time></trkpt><trkpt lat="46.5354935825" lon="12.2070250008"><ele>2136.67</ele><time>2013-07-24T08:00:17Z</time></trkpt><trkpt lat="46.5354931634" lon="12.2070230730"><ele>2132.82</ele><time>2013-07-24T08:00:33Z</time></trkpt><trkpt lat="46.5354931634" lon="12.2070230730"><ele>2136.19</ele><time>2013-07-24T08:00:34Z</time></trkpt><trkpt lat="46.5354947560" lon="12.2070226539"><ele>2136.19</ele><time>2013-07-24T08:00:45Z</time></trkpt><trkpt lat="46.5354947560" lon="12.2070226539"><ele>2135.23</ele><time>2013-07-24T08:01:04Z</time></trkpt><trkpt lat="46.5354937501" lon="12.2070241626"><ele>2135.23</ele><time>2013-07-24T08:01:31Z</time></trkpt><trkpt lat="46.5354900621" lon="12.2070273478"><ele>2135.71</ele><time>2013-07-24T08:02:00Z</time></trkpt><trkpt lat="46.5354900621" lon="12.2070273478"><ele>2135.23</ele><time>2013-07-24T08:02:25Z</time></trkpt><trkpt lat="46.5354893077" lon="12.2070279345"><ele>2135.23</ele><time>2013-07-24T08:02:46Z</time></trkpt><trkpt lat="46.5354893077" lon="12.2070279345"><ele>2134.74</ele><time>2013-07-24T08:03:15Z</time></trkpt><trkpt lat="46.5354910679" lon="12.2070269287"><ele>2135.23</ele><time>2013-07-24T08:03:45Z</time></trkpt><trkpt lat="46.5354893077" lon="12.2070216481"><ele>2135.23</ele><time>2013-07-24T08:04:18Z</time></trkpt><trkpt lat="46.5354833566" lon="12.2070349753"><ele>2135.71</ele><time>2013-07-24T08:04:30Z</time></trkpt><trkpt lat="46.5354851168" lon="12.2070414294"><ele>2135.23</ele><time>2013-07-24T08:04:41Z</time></trkpt><trkpt lat="46.5354833566" lon="12.2070527449"><ele>2135.71</ele><time>2013-07-24T08:05:01Z</time></trkpt><trkpt lat="46.5354805905" lon="12.2070631385"><ele>2135.23</ele><time>2013-07-24T08:05:02Z</time></trkpt><trkpt lat="46.5354727115" lon="12.2071104962"><ele>2135.71</ele><time>2013-07-24T08:05:08Z</time></trkpt><trkpt lat="46.5355214104" lon="12.2071909625"><ele>2136.67</ele><time>2013-07-24T08:05:18Z</time></trkpt><trkpt lat="46.5355758928" lon="12.2072534915"><ele>2137.63</ele><time>2013-07-24T08:05:27Z</time></trkpt><trkpt lat="46.5356104262" lon="12.2072857618"><ele>2137.63</ele><time>2013-07-24T08:05:31Z</time></trkpt><trkpt lat="46.5356483962" lon="12.2073376458"><ele>2137.63</ele><time>2013-07-24T08:05:36Z</time></trkpt><trkpt lat="46.5356779005" lon="12.2074030247"><ele>2138.11</ele><time>2013-07-24T08:05:41Z</time></trkpt><trkpt lat="46.5357052255" lon="12.2074415814"><ele>2138.59</ele><time>2013-07-24T08:05:45Z</time></trkpt><trkpt lat="46.5357240848" lon="12.2074590996"><ele>2138.59</ele><time>2013-07-24T08:05:47Z</time></trkpt><trkpt lat="46.5357680060" lon="12.2075495403"><ele>2138.11</ele><time>2013-07-24T08:05:55Z</time></trkpt><trkpt lat="46.5357861947" lon="12.2075678129"><ele>2138.11</ele><time>2013-07-24T08:05:57Z</time></trkpt><trkpt lat="46.5358164534" lon="12.2076637857"><ele>2136.19</ele><time>2013-07-24T08:06:03Z</time></trkpt><trkpt lat="46.5358555969" lon="12.2077434976"><ele>2136.19</ele><time>2013-07-24T08:06:09Z</time></trkpt><trkpt lat="46.5358818322" lon="12.2078440804"><ele>2136.19</ele><time>2013-07-24T08:06:15Z</time></trkpt><trkpt lat="46.5359263401" lon="12.2079685517"><ele>2136.67</ele><time>2013-07-24T08:06:24Z</time></trkpt><trkpt lat="46.5359802358" lon="12.2081132233"><ele>2136.67</ele><time>2013-07-24T08:06:34Z</time></trkpt><trkpt lat="46.5360370651" lon="12.2082114592"><ele>2138.59</ele><time>2013-07-24T08:06:44Z</time></trkpt><trkpt lat="46.5360441059" lon="12.2082230262"><ele>2138.59</ele><time>2013-07-24T08:06:45Z</time></trkpt><trkpt lat="46.5360863507" lon="12.2083133832"><ele>2138.59</ele><time>2013-07-24T08:06:52Z</time></trkpt><trkpt lat="46.5360883623" lon="12.2083502635"><ele>2138.59</ele><time>2013-07-24T08:06:55Z</time></trkpt><trkpt lat="46.5360766277" lon="12.2084652632"><ele>2138.59</ele><time>2013-07-24T08:07:05Z</time></trkpt><trkpt lat="46.5361039527" lon="12.2085907403"><ele>2140.03</ele><time>2013-07-24T08:07:15Z</time></trkpt><trkpt lat="46.5361378994" lon="12.2086767387"><ele>2140.99</ele><time>2013-07-24T08:07:27Z</time></trkpt><trkpt lat="46.5361551661" lon="12.2087707836"><ele>2142.92</ele><time>2013-07-24T08:07:35Z</time></trkpt><trkpt lat="46.5361241531" lon="12.2088265233"><ele>2142.44</ele><time>2013-07-24T08:07:40Z</time></trkpt><trkpt lat="46.5361070540" lon="12.2089003678"><ele>2141.47</ele><time>2013-07-24T08:07:49Z</time></trkpt><trkpt lat="46.5361265838" lon="12.2090426087"><ele>2140.99</ele><time>2013-07-24T08:07:56Z</time></trkpt><trkpt lat="46.5361268353" lon="12.2090812493"><ele>2140.99</ele><time>2013-07-24T08:07:58Z</time></trkpt><trkpt lat="46.5361327026" lon="12.2091400903"><ele>2141.47</ele><time>2013-07-24T08:08:02Z</time></trkpt><trkpt lat="46.5361807309" lon="12.2092809062"><ele>2142.44</ele><time>2013-07-24T08:08:12Z</time></trkpt><trkpt lat="46.5361827426" lon="12.2092933953"><ele>2142.44</ele><time>2013-07-24T08:08:13Z</time></trkpt><trkpt lat="46.5362040326" lon="12.2094494663"><ele>2142.92</ele><time>2013-07-24T08:08:25Z</time></trkpt><trkpt lat="46.5362105705" lon="12.2094661463"><ele>2143.40</ele><time>2013-07-24T08:08:27Z</time></trkpt><trkpt lat="46.5362246521" lon="12.2095922939"><ele>2143.88</ele><time>2013-07-24T08:08:35Z</time></trkpt><trkpt lat="46.5362199582" lon="12.2096635401"><ele>2144.36</ele><time>2013-07-24T08:08:40Z</time></trkpt><trkpt lat="46.5362302680" lon="12.2096943855"><ele>2144.36</ele><time>2013-07-24T08:08:42Z</time></trkpt><trkpt lat="46.5362583473" lon="12.2097513825"><ele>2144.84</ele><time>2013-07-24T08:08:46Z</time></trkpt><trkpt lat="46.5363030229" lon="12.2098720819"><ele>2145.80</ele><time>2013-07-24T08:08:55Z</time></trkpt><trkpt lat="46.5363247320" lon="12.2099840641"><ele>2147.24</ele><time>2013-07-24T08:09:05Z</time></trkpt><trkpt lat="46.5363513865" lon="12.2100091260"><ele>2147.24</ele><time>2013-07-24T08:09:09Z</time></trkpt><trkpt lat="46.5363681503" lon="12.2101292387"><ele>2147.72</ele><time>2013-07-24T08:09:18Z</time></trkpt><trkpt lat="46.5363743529" lon="12.2101543844"><ele>2148.20</ele><time>2013-07-24T08:09:21Z</time></trkpt><trkpt lat="46.5363668092" lon="12.2102611698"><ele>2149.65</ele><time>2013-07-24T08:09:32Z</time></trkpt><trkpt lat="46.5363907814" lon="12.2103136405"><ele>2149.16</ele><time>2013-07-24T08:09:37Z</time></trkpt><trkpt lat="46.5364248119" lon="12.2104596533"><ele>2149.16</ele><time>2013-07-24T08:09:47Z</time></trkpt><trkpt lat="46.5364202857" lon="12.2105375212"><ele>2149.65</ele><time>2013-07-24T08:09:53Z</time></trkpt><trkpt lat="46.5364673082" lon="12.2106893174"><ele>2149.65</ele><time>2013-07-24T08:10:02Z</time></trkpt><trkpt lat="46.5364709962" lon="12.2106995434"><ele>2149.65</ele><time>2013-07-24T08:10:03Z</time></trkpt><trkpt lat="46.5365130734" lon="12.2107535228"><ele>2150.61</ele><time>2013-07-24T08:10:11Z</time></trkpt><trkpt lat="46.5365312621" lon="12.2108339891"><ele>2151.57</ele><time>2013-07-24T08:10:19Z</time></trkpt><trkpt lat="46.5365315136" lon="12.2108946741"><ele>2153.01</ele><time>2013-07-24T08:10:28Z</time></trkpt><trkpt lat="46.5365462657" lon="12.2109133657"><ele>2153.97</ele><time>2013-07-24T08:10:37Z</time></trkpt><trkpt lat="46.5365654603" lon="12.2109523416"><ele>2155.89</ele><time>2013-07-24T08:10:45Z</time></trkpt><trkpt lat="46.5366103873" lon="12.2110487334"><ele>2156.86</ele><time>2013-07-24T08:10:55Z</time></trkpt><trkpt lat="46.5366241336" lon="12.2110826802"><ele>2157.34</ele><time>2013-07-24T08:10:58Z</time></trkpt><trkpt lat="46.5366720781" lon="12.2111986857"><ele>2159.26</ele><time>2013-07-24T08:11:08Z</time></trkpt><trkpt lat="46.5367074497" lon="12.2112815827"><ele>2160.22</ele><time>2013-07-24T08:11:16Z</time></trkpt><trkpt lat="46.5367246326" lon="12.2113018669"><ele>2162.14</ele><time>2013-07-24T08:11:26Z</time></trkpt><trkpt lat="46.5367246326" lon="12.2113018669"><ele>2163.10</ele><time>2013-07-24T08:11:34Z</time></trkpt><trkpt lat="46.5367246326" lon="12.2113018669"><ele>2164.06</ele><time>2013-07-24T08:11:43Z</time></trkpt><trkpt lat="46.5367403906" lon="12.2113192175"><ele>2164.55</ele><time>2013-07-24T08:11:48Z</time></trkpt><trkpt lat="46.5367967170" lon="12.2114047967"><ele>2165.51</ele><time>2013-07-24T08:11:57Z</time></trkpt><trkpt lat="46.5368337650" lon="12.2114471253"><ele>2165.99</ele><time>2013-07-24T08:12:04Z</time></trkpt><trkpt lat="46.5368337650" lon="12.2114471253"><ele>2166.47</ele><time>2013-07-24T08:12:21Z</time></trkpt><trkpt lat="46.5368505288" lon="12.2114865202"><ele>2168.39</ele><time>2013-07-24T08:12:31Z</time></trkpt><trkpt lat="46.5368537139" lon="12.2114875261"><ele>2170.79</ele><time>2013-07-24T08:12:43Z</time></trkpt><trkpt lat="46.5368537139" lon="12.2114875261"><ele>2171.76</ele><time>2013-07-24T08:12:51Z</time></trkpt><trkpt lat="46.5368537139" lon="12.2114875261"><ele>2172.24</ele><time>2013-07-24T08:13:01Z</time></trkpt><trkpt lat="46.5368537139" lon="12.2114875261"><ele>2172.24</ele><time>2013-07-24T08:13:02Z</time></trkpt><trkpt lat="46.5368968807" lon="12.2115480434"><ele>2173.20</ele><time>2013-07-24T08:13:13Z</time></trkpt><trkpt lat="46.5369158238" lon="12.2115874384"><ele>2173.68</ele><time>2013-07-24T08:13:23Z</time></trkpt><trkpt lat="46.5369419754" lon="12.2116230614"><ele>2175.60</ele><time>2013-07-24T08:13:35Z</time></trkpt><trkpt lat="46.5369419754" lon="12.2116230614"><ele>2176.08</ele><time>2013-07-24T08:13:43Z</time></trkpt><trkpt lat="46.5369419754" lon="12.2116230614"><ele>2177.04</ele><time>2013-07-24T08:13:53Z</time></trkpt><trkpt lat="46.5369525366" lon="12.2116442677"><ele>2177.04</ele><time>2013-07-24T08:14:00Z</time></trkpt><trkpt lat="46.5369525366" lon="12.2116442677"><ele>2177.52</ele><time>2013-07-24T08:14:12Z</time></trkpt><trkpt lat="46.5369525366" lon="12.2116442677"><ele>2178.00</ele><time>2013-07-24T08:14:17Z</time></trkpt><trkpt lat="46.5369557217" lon="12.2116536554"><ele>2179.45</ele><time>2013-07-24T08:14:25Z</time></trkpt><trkpt lat="46.5369557217" lon="12.2116536554"><ele>2180.89</ele><time>2013-07-24T08:14:34Z</time></trkpt><trkpt lat="46.5369557217" lon="12.2116536554"><ele>2181.85</ele><time>2013-07-24T08:14:43Z</time></trkpt><trkpt lat="46.5369622596" lon="12.2116770409"><ele>2183.29</ele><time>2013-07-24T08:14:52Z</time></trkpt><trkpt lat="46.5369682107" lon="12.2117123287"><ele>2184.25</ele><time>2013-07-24T08:15:04Z</time></trkpt><trkpt lat="46.5369682107" lon="12.2117123287"><ele>2184.25</ele><time>2013-07-24T08:15:12Z</time></trkpt><trkpt lat="46.5369715635" lon="12.2117144242"><ele>2184.25</ele><time>2013-07-24T08:15:28Z</time></trkpt><trkpt lat="46.5369935241" lon="12.2117540706"><ele>2185.21</ele><time>2013-07-24T08:15:37Z</time></trkpt><trkpt lat="46.5369935241" lon="12.2117540706"><ele>2185.21</ele><time>2013-07-24T08:15:49Z</time></trkpt><trkpt lat="46.5370253753" lon="12.2117798869"><ele>2185.21</ele><time>2013-07-24T08:15:59Z</time></trkpt><trkpt lat="46.5370253753" lon="12.2117798869"><ele>2186.66</ele><time>2013-07-24T08:16:09Z</time></trkpt><trkpt lat="46.5370511077" lon="12.2118960600"><ele>2186.66</ele><time>2013-07-24T08:16:17Z</time></trkpt><trkpt lat="46.5370511077" lon="12.2118960600"><ele>2187.62</ele><time>2013-07-24T08:16:30Z</time></trkpt><trkpt lat="46.5370566398" lon="12.2119134944"><ele>2189.06</ele><time>2013-07-24T08:16:38Z</time></trkpt><trkpt lat="46.5370566398" lon="12.2119134944"><ele>2190.02</ele><time>2013-07-24T08:16:47Z</time></trkpt><trkpt lat="46.5370729007" lon="12.2119905241"><ele>2190.50</ele><time>2013-07-24T08:16:56Z</time></trkpt><trkpt lat="46.5370729007" lon="12.2119905241"><ele>2191.94</ele><time>2013-07-24T08:17:05Z</time></trkpt><trkpt lat="46.5371081885" lon="12.2120484430"><ele>2193.39</ele><time>2013-07-24T08:17:14Z</time></trkpt><trkpt lat="46.5371108707" lon="12.2120624408"><ele>2194.35</ele><time>2013-07-24T08:17:23Z</time></trkpt><trkpt lat="46.5371108707" lon="12.2120624408"><ele>2195.79</ele><time>2013-07-24T08:17:33Z</time></trkpt><trkpt lat="46.5371108707" lon="12.2120624408"><ele>2197.23</ele><time>2013-07-24T08:17:42Z</time></trkpt><trkpt lat="46.5371310711" lon="12.2121965513"><ele>2198.67</ele><time>2013-07-24T08:17:51Z</time></trkpt><trkpt lat="46.5371271316" lon="12.2122149915"><ele>2200.11</ele><time>2013-07-24T08:18:01Z</time></trkpt><trkpt lat="46.5371271316" lon="12.2122149915"><ele>2200.59</ele><time>2013-07-24T08:18:11Z</time></trkpt><trkpt lat="46.5371271316" lon="12.2122149915"><ele>2201.56</ele><time>2013-07-24T08:18:24Z</time></trkpt><trkpt lat="46.5371266287" lon="12.2122235410"><ele>2201.08</ele><time>2013-07-24T08:18:40Z</time></trkpt><trkpt lat="46.5371266287" lon="12.2122235410"><ele>2202.04</ele><time>2013-07-24T08:18:58Z</time></trkpt><trkpt lat="46.5371222701" lon="12.2122592479"><ele>2201.56</ele><time>2013-07-24T08:19:06Z</time></trkpt><trkpt lat="46.5371222701" lon="12.2122592479"><ele>2201.56</ele><time>2013-07-24T08:19:24Z</time></trkpt><trkpt lat="46.5371295623" lon="12.2122827172"><ele>2200.59</ele><time>2013-07-24T08:19:47Z</time></trkpt><trkpt lat="46.5371295623" lon="12.2122827172"><ele>2200.59</ele><time>2013-07-24T08:20:11Z</time></trkpt><trkpt lat="46.5371295623" lon="12.2122827172"><ele>2201.08</ele><time>2013-07-24T08:20:12Z</time></trkpt><trkpt lat="46.5371343400" lon="12.2123358585"><ele>2201.56</ele><time>2013-07-24T08:20:21Z</time></trkpt><trkpt lat="46.5371402074" lon="12.2124217730"><ele>2202.52</ele><time>2013-07-24T08:20:27Z</time></trkpt><trkpt lat="46.5372005571" lon="12.2125500161"><ele>2203.96</ele><time>2013-07-24T08:20:37Z</time></trkpt><trkpt lat="46.5372413769" lon="12.2125684563"><ele>2205.88</ele><time>2013-07-24T08:20:45Z</time></trkpt><trkpt lat="46.5372505970" lon="12.2126165684"><ele>2206.36</ele><time>2013-07-24T08:20:52Z</time></trkpt><trkpt lat="46.5372573026" lon="12.2126433905"><ele>2207.81</ele><time>2013-07-24T08:20:59Z</time></trkpt><trkpt lat="46.5372832865" lon="12.2127059195"><ele>2208.29</ele><time>2013-07-24T08:21:07Z</time></trkpt><trkpt lat="46.5372589789" lon="12.2126919217"><ele>2208.77</ele><time>2013-07-24T08:21:18Z</time></trkpt><trkpt lat="46.5372454841" lon="12.2127255332"><ele>2210.21</ele><time>2013-07-24T08:21:27Z</time></trkpt><trkpt lat="46.5372390300" lon="12.2127391957"><ele>2211.65</ele><time>2013-07-24T08:21:36Z</time></trkpt><trkpt lat="46.5372338332" lon="12.2127499245"><ele>2212.61</ele><time>2013-07-24T08:21:43Z</time></trkpt><trkpt lat="46.5372334141" lon="12.2127775848"><ele>2213.57</ele><time>2013-07-24T08:21:54Z</time></trkpt><trkpt lat="46.5372343361" lon="12.2127920017"><ele>2214.53</ele><time>2013-07-24T08:22:02Z</time></trkpt><trkpt lat="46.5372343361" lon="12.2127920017"><ele>2215.98</ele><time>2013-07-24T08:22:10Z</time></trkpt><trkpt lat="46.5372343361" lon="12.2127920017"><ele>2217.42</ele><time>2013-07-24T08:22:19Z</time></trkpt><trkpt lat="46.5372343361" lon="12.2127920017"><ele>2218.38</ele><time>2013-07-24T08:22:28Z</time></trkpt><trkpt lat="46.5372186620" lon="12.2128458973"><ele>2219.34</ele><time>2013-07-24T08:22:37Z</time></trkpt><trkpt lat="46.5371919237" lon="12.2128272057"><ele>2220.30</ele><time>2013-07-24T08:22:47Z</time></trkpt><trkpt lat="46.5371922590" lon="12.2129035648"><ele>2221.74</ele><time>2013-07-24T08:22:55Z</time></trkpt><trkpt lat="46.5371819492" lon="12.2129116952"><ele>2222.71</ele><time>2013-07-24T08:23:02Z</time></trkpt><trkpt lat="46.5371817816" lon="12.2129301354"><ele>2224.15</ele><time>2013-07-24T08:23:11Z</time></trkpt><trkpt lat="46.5371817816" lon="12.2129301354"><ele>2225.11</ele><time>2013-07-24T08:23:26Z</time></trkpt><trkpt lat="46.5371699631" lon="12.2129230946"><ele>2226.55</ele><time>2013-07-24T08:23:36Z</time></trkpt><trkpt lat="46.5371747408" lon="12.2129577957"><ele>2227.99</ele><time>2013-07-24T08:23:47Z</time></trkpt><trkpt lat="46.5371662751" lon="12.2129733860"><ele>2227.99</ele><time>2013-07-24T08:23:48Z</time></trkpt><trkpt lat="46.5371820331" lon="12.2130194865"><ele>2229.92</ele><time>2013-07-24T08:23:58Z</time></trkpt><trkpt lat="46.5371683706" lon="12.2130211629"><ele>2230.40</ele><time>2013-07-24T08:24:06Z</time></trkpt><trkpt lat="46.5371683706" lon="12.2130211629"><ele>2231.36</ele><time>2013-07-24T08:24:16Z</time></trkpt><trkpt lat="46.5371632576" lon="12.2130378429"><ele>2233.28</ele><time>2013-07-24T08:24:23Z</time></trkpt><trkpt lat="46.5371534508" lon="12.2130318917"><ele>2233.76</ele><time>2013-07-24T08:24:35Z</time></trkpt><trkpt lat="46.5371540375" lon="12.2130516730"><ele>2234.24</ele><time>2013-07-24T08:24:55Z</time></trkpt><trkpt lat="46.5371430572" lon="12.2130552772"><ele>2235.20</ele><time>2013-07-24T08:25:05Z</time></trkpt><trkpt lat="46.5371345915" lon="12.2130653355"><ele>2235.68</ele><time>2013-07-24T08:25:17Z</time></trkpt><trkpt lat="46.5371360164" lon="12.2130644135"><ele>2236.64</ele><time>2013-07-24T08:25:31Z</time></trkpt><trkpt lat="46.5371360164" lon="12.2130644135"><ele>2237.13</ele><time>2013-07-24T08:25:41Z</time></trkpt><trkpt lat="46.5371364355" lon="12.2130607255"><ele>2237.61</ele><time>2013-07-24T08:25:49Z</time></trkpt><trkpt lat="46.5371330827" lon="12.2130670119"><ele>2237.61</ele><time>2013-07-24T08:26:00Z</time></trkpt><trkpt lat="46.5371309873" lon="12.2130941693"><ele>2238.57</ele><time>2013-07-24T08:26:10Z</time></trkpt><trkpt lat="46.5371426381" lon="12.2131312173"><ele>2240.01</ele><time>2013-07-24T08:26:20Z</time></trkpt><trkpt lat="46.5371426381" lon="12.2131312173"><ele>2240.01</ele><time>2013-07-24T08:26:35Z</time></trkpt><trkpt lat="46.5371339209" lon="12.2131326422"><ele>2240.97</ele><time>2013-07-24T08:26:44Z</time></trkpt><trkpt lat="46.5371245332" lon="12.2131225001"><ele>2241.45</ele><time>2013-07-24T08:26:53Z</time></trkpt><trkpt lat="46.5371052548" lon="12.2131590452"><ele>2242.89</ele><time>2013-07-24T08:27:00Z</time></trkpt><trkpt lat="46.5371052548" lon="12.2131590452"><ele>2244.33</ele><time>2013-07-24T08:27:11Z</time></trkpt><trkpt lat="46.5371052548" lon="12.2131590452"><ele>2245.78</ele><time>2013-07-24T08:27:21Z</time></trkpt><trkpt lat="46.5371052548" lon="12.2131590452"><ele>2246.74</ele><time>2013-07-24T08:27:30Z</time></trkpt><trkpt lat="46.5371031594" lon="12.2131618112"><ele>2248.18</ele><time>2013-07-24T08:27:39Z</time></trkpt><trkpt lat="46.5370869823" lon="12.2131917346"><ele>2249.14</ele><time>2013-07-24T08:27:47Z</time></trkpt><trkpt lat="46.5370869823" lon="12.2131917346"><ele>2250.58</ele><time>2013-07-24T08:27:57Z</time></trkpt><trkpt lat="46.5370621718" lon="12.2132597957"><ele>2252.51</ele><time>2013-07-24T08:28:05Z</time></trkpt><trkpt lat="46.5370163228" lon="12.2133092489"><ele>2252.99</ele><time>2013-07-24T08:28:16Z</time></trkpt><trkpt lat="46.5370163228" lon="12.2133092489"><ele>2253.95</ele><time>2013-07-24T08:28:26Z</time></trkpt><trkpt lat="46.5370163228" lon="12.2133092489"><ele>2255.39</ele><time>2013-07-24T08:28:40Z</time></trkpt><trkpt lat="46.5370163228" lon="12.2133092489"><ele>2254.91</ele><time>2013-07-24T08:28:52Z</time></trkpt><trkpt lat="46.5370099526" lon="12.2133148648"><ele>2255.87</ele><time>2013-07-24T08:29:03Z</time></trkpt><trkpt lat="46.5370041691" lon="12.2133544274"><ele>2257.79</ele><time>2013-07-24T08:29:12Z</time></trkpt><trkpt lat="46.5370050911" lon="12.2133736219"><ele>2257.79</ele><time>2013-07-24T08:29:20Z</time></trkpt><trkpt lat="46.5370089468" lon="12.2134213150"><ele>2259.24</ele><time>2013-07-24T08:29:29Z</time></trkpt><trkpt lat="46.5370089468" lon="12.2134213150"><ele>2259.72</ele><time>2013-07-24T08:29:31Z</time></trkpt><trkpt lat="46.5369961224" lon="12.2134447843"><ele>2261.16</ele><time>2013-07-24T08:29:42Z</time></trkpt><trkpt lat="46.5369878244" lon="12.2134505678"><ele>2261.64</ele><time>2013-07-24T08:29:52Z</time></trkpt><trkpt lat="46.5369878244" lon="12.2134505678"><ele>2263.08</ele><time>2013-07-24T08:30:01Z</time></trkpt><trkpt lat="46.5369853936" lon="12.2135158628"><ele>2264.04</ele><time>2013-07-24T08:30:14Z</time></trkpt><trkpt lat="46.5369552188" lon="12.2136421781"><ele>2265.96</ele><time>2013-07-24T08:30:24Z</time></trkpt><trkpt lat="46.5369344316" lon="12.2136577684"><ele>2266.45</ele><time>2013-07-24T08:30:34Z</time></trkpt><trkpt lat="46.5369101241" lon="12.2136970796"><ele>2269.33</ele><time>2013-07-24T08:30:45Z</time></trkpt><trkpt lat="46.5369101241" lon="12.2136970796"><ele>2270.29</ele><time>2013-07-24T08:30:57Z</time></trkpt><trkpt lat="46.5369040892" lon="12.2137025278"><ele>2271.73</ele><time>2013-07-24T08:31:06Z</time></trkpt><trkpt lat="46.5368855651" lon="12.2137057129"><ele>2272.21</ele><time>2013-07-24T08:31:10Z</time></trkpt><trkpt lat="46.5368381236" lon="12.2137367260"><ele>2273.17</ele><time>2013-07-24T08:31:21Z</time></trkpt><trkpt lat="46.5368300769" lon="12.2137467004"><ele>2274.62</ele><time>2013-07-24T08:31:29Z</time></trkpt><trkpt lat="46.5368278138" lon="12.2137653083"><ele>2275.58</ele><time>2013-07-24T08:31:37Z</time></trkpt><trkpt lat="46.5368278138" lon="12.2137653083"><ele>2276.06</ele><time>2013-07-24T08:31:50Z</time></trkpt><trkpt lat="46.5368278138" lon="12.2137653083"><ele>2277.50</ele><time>2013-07-24T08:31:58Z</time></trkpt><trkpt lat="46.5368278138" lon="12.2137653083"><ele>2277.98</ele><time>2013-07-24T08:32:09Z</time></trkpt><trkpt lat="46.5368424822" lon="12.2138219699"><ele>2278.94</ele><time>2013-07-24T08:32:19Z</time></trkpt><trkpt lat="46.5368424822" lon="12.2138219699"><ele>2280.38</ele><time>2013-07-24T08:32:29Z</time></trkpt><trkpt lat="46.5368424822" lon="12.2138219699"><ele>2282.31</ele><time>2013-07-24T08:32:39Z</time></trkpt><trkpt lat="46.5368515346" lon="12.2138469480"><ele>2282.79</ele><time>2013-07-24T08:32:47Z</time></trkpt><trkpt lat="46.5368514508" lon="12.2138504684"><ele>2283.75</ele><time>2013-07-24T08:32:58Z</time></trkpt><trkpt lat="46.5368334297" lon="12.2138819844"><ele>2285.19</ele><time>2013-07-24T08:33:07Z</time></trkpt><trkpt lat="46.5368194319" lon="12.2139492072"><ele>2285.67</ele><time>2013-07-24T08:33:14Z</time></trkpt><trkpt lat="46.5368194319" lon="12.2139492072"><ele>2287.11</ele><time>2013-07-24T08:33:25Z</time></trkpt><trkpt lat="46.5368418954" lon="12.2140253987"><ele>2288.08</ele><time>2013-07-24T08:33:34Z</time></trkpt><trkpt lat="46.5368039254" lon="12.2141872533"><ele>2290.00</ele><time>2013-07-24T08:33:46Z</time></trkpt><trkpt lat="46.5367727447" lon="12.2142221220"><ele>2290.96</ele><time>2013-07-24T08:33:56Z</time></trkpt><trkpt lat="46.5367727447" lon="12.2142221220"><ele>2292.40</ele><time>2013-07-24T08:34:07Z</time></trkpt><trkpt lat="46.5367727447" lon="12.2142221220"><ele>2293.84</ele><time>2013-07-24T08:34:18Z</time></trkpt><trkpt lat="46.5367727447" lon="12.2142221220"><ele>2295.28</ele><time>2013-07-24T08:34:28Z</time></trkpt><trkpt lat="46.5367654525" lon="12.2142368741"><ele>2296.25</ele><time>2013-07-24T08:34:40Z</time></trkpt><trkpt lat="46.5367428213" lon="12.2142445855"><ele>2297.69</ele><time>2013-07-24T08:34:50Z</time></trkpt><trkpt lat="46.5367428213" lon="12.2142445855"><ele>2298.65</ele><time>2013-07-24T08:35:00Z</time></trkpt><trkpt lat="46.5366972238" lon="12.2142895125"><ele>2300.09</ele><time>2013-07-24T08:35:11Z</time></trkpt><trkpt lat="46.5366883390" lon="12.2142993193"><ele>2300.09</ele><time>2013-07-24T08:35:22Z</time></trkpt><trkpt lat="46.5366883390" lon="12.2142993193"><ele>2299.61</ele><time>2013-07-24T08:35:38Z</time></trkpt><trkpt lat="46.5366841480" lon="12.2143061925"><ele>2299.61</ele><time>2013-07-24T08:35:59Z</time></trkpt><trkpt lat="46.5366540570" lon="12.2143790312"><ele>2299.61</ele><time>2013-07-24T08:36:06Z</time></trkpt><trkpt lat="46.5366617683" lon="12.2144225333"><ele>2298.65</ele><time>2013-07-24T08:36:14Z</time></trkpt><trkpt lat="46.5366617683" lon="12.2144225333"><ele>2299.13</ele><time>2013-07-24T08:36:34Z</time></trkpt><trkpt lat="46.5366609301" lon="12.2144273948"><ele>2298.65</ele><time>2013-07-24T08:36:56Z</time></trkpt><trkpt lat="46.5366609301" lon="12.2144273948"><ele>2298.65</ele><time>2013-07-24T08:37:20Z</time></trkpt><trkpt lat="46.5366603434" lon="12.2144324239"><ele>2298.65</ele><time>2013-07-24T08:37:45Z</time></trkpt><trkpt lat="46.5366603434" lon="12.2144324239"><ele>2298.17</ele><time>2013-07-24T08:38:04Z</time></trkpt><trkpt lat="46.5366683062" lon="12.2144978028"><ele>2299.13</ele><time>2013-07-24T08:38:28Z</time></trkpt><trkpt lat="46.5366738383" lon="12.2145237867"><ele>2298.17</ele><time>2013-07-24T08:38:51Z</time></trkpt><trkpt lat="46.5366738383" lon="12.2145237867"><ele>2298.65</ele><time>2013-07-24T08:39:16Z</time></trkpt><trkpt lat="46.5366767719" lon="12.2145478427"><ele>2298.65</ele><time>2013-07-24T08:39:41Z</time></trkpt><trkpt lat="46.5366799571" lon="12.2145665344"><ele>2298.65</ele><time>2013-07-24T08:40:11Z</time></trkpt><trkpt lat="46.5366799571" lon="12.2145665344"><ele>2298.65</ele><time>2013-07-24T08:40:37Z</time></trkpt><trkpt lat="46.5366838127" lon="12.2145782690"><ele>2298.65</ele><time>2013-07-24T08:41:03Z</time></trkpt><trkpt lat="46.5366838127" lon="12.2145782690"><ele>2298.65</ele><time>2013-07-24T08:41:24Z</time></trkpt><trkpt lat="46.5366852377" lon="12.2145844717"><ele>2298.17</ele><time>2013-07-24T08:41:45Z</time></trkpt><trkpt lat="46.5366852377" lon="12.2145844717"><ele>2298.17</ele><time>2013-07-24T08:42:06Z</time></trkpt><trkpt lat="46.5366850700" lon="12.2145892493"><ele>2298.17</ele><time>2013-07-24T08:42:26Z</time></trkpt><trkpt lat="46.5366868302" lon="12.2145922668"><ele>2298.17</ele><time>2013-07-24T08:42:50Z</time></trkpt><trkpt lat="46.5366868302" lon="12.2145922668"><ele>2299.13</ele><time>2013-07-24T08:43:10Z</time></trkpt><trkpt lat="46.5366926137" lon="12.2145989724"><ele>2298.17</ele><time>2013-07-24T08:43:35Z</time></trkpt><trkpt lat="46.5366926137" lon="12.2145989724"><ele>2298.65</ele><time>2013-07-24T08:44:00Z</time></trkpt><trkpt lat="46.5367117245" lon="12.2146135569"><ele>2299.13</ele><time>2013-07-24T08:44:12Z</time></trkpt><trkpt lat="46.5367170889" lon="12.2146061808"><ele>2299.61</ele><time>2013-07-24T08:44:28Z</time></trkpt><trkpt lat="46.5367180109" lon="12.2146102879"><ele>2299.61</ele><time>2013-07-24T08:44:39Z</time></trkpt><trkpt lat="46.5367052704" lon="12.2146159876"><ele>2299.13</ele><time>2013-07-24T08:44:49Z</time></trkpt><trkpt lat="46.5367052704" lon="12.2146159876"><ele>2299.13</ele><time>2013-07-24T08:44:56Z</time></trkpt><trkpt lat="46.5367205255" lon="12.2147259582"><ele>2298.17</ele><time>2013-07-24T08:45:05Z</time></trkpt><trkpt lat="46.5367081203" lon="12.2147987969"><ele>2297.69</ele><time>2013-07-24T08:45:15Z</time></trkpt><trkpt lat="46.5366644505" lon="12.2147898283"><ele>2295.28</ele><time>2013-07-24T08:45:25Z</time></trkpt><trkpt lat="46.5366362035" lon="12.2147226892"><ele>2293.36</ele><time>2013-07-24T08:45:36Z</time></trkpt><trkpt lat="46.5366381314" lon="12.2147126310"><ele>2292.88</ele><time>2013-07-24T08:45:45Z</time></trkpt><trkpt lat="46.5366351977" lon="12.2147125471"><ele>2293.84</ele><time>2013-07-24T08:46:03Z</time></trkpt><trkpt lat="46.5366351977" lon="12.2147125471"><ele>2293.84</ele><time>2013-07-24T08:46:14Z</time></trkpt><trkpt lat="46.5366247203" lon="12.2147158161"><ele>2292.88</ele><time>2013-07-24T08:46:21Z</time></trkpt><trkpt lat="46.5365735069" lon="12.2147254553"><ele>2290.96</ele><time>2013-07-24T08:46:31Z</time></trkpt><trkpt lat="46.5365636162" lon="12.2147233598"><ele>2291.44</ele><time>2013-07-24T08:46:38Z</time></trkpt><trkpt lat="46.5365196113" lon="12.2147099487"><ele>2290.48</ele><time>2013-07-24T08:46:42Z</time></trkpt><trkpt lat="46.5365015063" lon="12.2146991361"><ele>2289.52</ele><time>2013-07-24T08:46:49Z</time></trkpt><trkpt lat="46.5364452638" lon="12.2147201747"><ele>2287.11</ele><time>2013-07-24T08:46:58Z</time></trkpt><trkpt lat="46.5364031866" lon="12.2147135530"><ele>2286.63</ele><time>2013-07-24T08:47:03Z</time></trkpt><trkpt lat="46.5363840759" lon="12.2147224378"><ele>2286.15</ele><time>2013-07-24T08:47:05Z</time></trkpt><trkpt lat="46.5363127459" lon="12.2147257067"><ele>2283.75</ele><time>2013-07-24T08:47:13Z</time></trkpt><trkpt lat="46.5361836646" lon="12.2146749124"><ele>2282.31</ele><time>2013-07-24T08:47:22Z</time></trkpt><trkpt lat="46.5361595247" lon="12.2146745771"><ele>2281.83</ele><time>2013-07-24T08:47:24Z</time></trkpt><trkpt lat="46.5360702574" lon="12.2146672010"><ele>2278.94</ele><time>2013-07-24T08:47:34Z</time></trkpt><trkpt lat="46.5360585228" lon="12.2146642674"><ele>2278.94</ele><time>2013-07-24T08:47:35Z</time></trkpt><trkpt lat="46.5359656513" lon="12.2146470845"><ele>2276.06</ele><time>2013-07-24T08:47:45Z</time></trkpt><trkpt lat="46.5359109174" lon="12.2146253753"><ele>2274.62</ele><time>2013-07-24T08:47:51Z</time></trkpt><trkpt lat="46.5358232427" lon="12.2145133093"><ele>2272.69</ele><time>2013-07-24T08:48:02Z</time></trkpt><trkpt lat="46.5357339755" lon="12.2144692205"><ele>2270.77</ele><time>2013-07-24T08:48:12Z</time></trkpt><trkpt lat="46.5357173793" lon="12.2144634370"><ele>2269.33</ele><time>2013-07-24T08:48:16Z</time></trkpt><trkpt lat="46.5357288625" lon="12.2144870739"><ele>2269.33</ele><time>2013-07-24T08:48:19Z</time></trkpt><trkpt lat="46.5357497334" lon="12.2145325877"><ele>2267.89</ele><time>2013-07-24T08:48:24Z</time></trkpt><trkpt lat="46.5358014498" lon="12.2145964578"><ele>2266.45</ele><time>2013-07-24T08:48:31Z</time></trkpt><trkpt lat="46.5358249191" lon="12.2146713082"><ele>2265.48</ele><time>2013-07-24T08:48:36Z</time></trkpt><trkpt lat="46.5358463768" lon="12.2147510201"><ele>2264.52</ele><time>2013-07-24T08:48:42Z</time></trkpt><trkpt lat="46.5358652361" lon="12.2147942707"><ele>2263.08</ele><time>2013-07-24T08:48:45Z</time></trkpt><trkpt lat="46.5359370690" lon="12.2148308996"><ele>2262.60</ele><time>2013-07-24T08:48:52Z</time></trkpt><trkpt lat="46.5359633043" lon="12.2149163112"><ele>2260.20</ele><time>2013-07-24T08:49:01Z</time></trkpt><trkpt lat="46.5359617118" lon="12.2149976157"><ele>2258.75</ele><time>2013-07-24T08:49:09Z</time></trkpt><trkpt lat="46.5359644778" lon="12.2150536906"><ele>2256.83</ele><time>2013-07-24T08:49:17Z</time></trkpt><trkpt lat="46.5359700937" lon="12.2151109390"><ele>2256.35</ele><time>2013-07-24T08:49:23Z</time></trkpt><trkpt lat="46.5359575208" lon="12.2151898127"><ele>2254.43</ele><time>2013-07-24T08:49:31Z</time></trkpt><trkpt lat="46.5359540004" lon="12.2152004577"><ele>2253.47</ele><time>2013-07-24T08:49:32Z</time></trkpt><trkpt lat="46.5359392483" lon="12.2152200714"><ele>2253.47</ele><time>2013-07-24T08:49:34Z</time></trkpt><trkpt lat="46.5359142702" lon="12.2152924072"><ele>2251.54</ele><time>2013-07-24T08:49:42Z</time></trkpt><trkpt lat="46.5358774737" lon="12.2153244261"><ele>2250.58</ele><time>2013-07-24T08:49:47Z</time></trkpt><trkpt lat="46.5358718578" lon="12.2153508291"><ele>2249.62</ele><time>2013-07-24T08:49:51Z</time></trkpt><trkpt lat="46.5358501486" lon="12.2153763939"><ele>2249.14</ele><time>2013-07-24T08:49:55Z</time></trkpt><trkpt lat="46.5358600393" lon="12.2154052276"><ele>2248.66</ele><time>2013-07-24T08:49:58Z</time></trkpt><trkpt lat="46.5358593687" lon="12.2154245060"><ele>2248.66</ele><time>2013-07-24T08:50:00Z</time></trkpt><trkpt lat="46.5358794853" lon="12.2155559342"><ele>2245.30</ele><time>2013-07-24T08:50:10Z</time></trkpt><trkpt lat="46.5358747076" lon="12.2156072315"><ele>2244.33</ele><time>2013-07-24T08:50:15Z</time></trkpt><trkpt lat="46.5358220693" lon="12.2157139331"><ele>2241.93</ele><time>2013-07-24T08:50:24Z</time></trkpt><trkpt lat="46.5358196385" lon="12.2158028651"><ele>2240.97</ele><time>2013-07-24T08:50:31Z</time></trkpt><trkpt lat="46.5358389169" lon="12.2158796433"><ele>2240.97</ele><time>2013-07-24T08:50:36Z</time></trkpt><trkpt lat="46.5357938223" lon="12.2159728501"><ele>2240.97</ele><time>2013-07-24T08:50:43Z</time></trkpt><trkpt lat="46.5357250068" lon="12.2161550727"><ele>2240.49</ele><time>2013-07-24T08:50:55Z</time></trkpt><trkpt lat="46.5357068181" lon="12.2161971498"><ele>2240.01</ele><time>2013-07-24T08:50:59Z</time></trkpt><trkpt lat="46.5356666688" lon="12.2162493691"><ele>2239.53</ele><time>2013-07-24T08:51:03Z</time></trkpt><trkpt lat="46.5356314648" lon="12.2162690666"><ele>2239.53</ele><time>2013-07-24T08:51:07Z</time></trkpt><trkpt lat="46.5355908126" lon="12.2163826413"><ele>2239.53</ele><time>2013-07-24T08:51:14Z</time></trkpt><trkpt lat="46.5355531778" lon="12.2164333519"><ele>2240.49</ele><time>2013-07-24T08:51:19Z</time></trkpt><trkpt lat="46.5355296247" lon="12.2165416460"><ele>2240.97</ele><time>2013-07-24T08:51:26Z</time></trkpt><trkpt lat="46.5355278645" lon="12.2165562306"><ele>2240.97</ele><time>2013-07-24T08:51:27Z</time></trkpt><trkpt lat="46.5355207399" lon="12.2165812086"><ele>2240.97</ele><time>2013-07-24T08:51:29Z</time></trkpt><trkpt lat="46.5355043113" lon="12.2166692186"><ele>2241.93</ele><time>2013-07-24T08:51:36Z</time></trkpt><trkpt lat="46.5354875475" lon="12.2166957054"><ele>2241.45</ele><time>2013-07-24T08:51:38Z</time></trkpt><trkpt lat="46.5354346577" lon="12.2167656105"><ele>2241.45</ele><time>2013-07-24T08:51:45Z</time></trkpt><trkpt lat="46.5354240965" lon="12.2168045864"><ele>2241.93</ele><time>2013-07-24T08:51:47Z</time></trkpt><trkpt lat="46.5353943408" lon="12.2168765031"><ele>2241.45</ele><time>2013-07-24T08:51:52Z</time></trkpt><trkpt lat="46.5353717934" lon="12.2169821989"><ele>2240.97</ele><time>2013-07-24T08:52:00Z</time></trkpt><trkpt lat="46.5353606455" lon="12.2170946840"><ele>2239.53</ele><time>2013-07-24T08:52:08Z</time></trkpt><trkpt lat="46.5353655908" lon="12.2171249427"><ele>2240.01</ele><time>2013-07-24T08:52:10Z</time></trkpt><trkpt lat="46.5352814365" lon="12.2172483243"><ele>2238.57</ele><time>2013-07-24T08:52:19Z</time></trkpt><trkpt lat="46.5352724679" lon="12.2172707040"><ele>2237.61</ele><time>2013-07-24T08:52:21Z</time></trkpt><trkpt lat="46.5352122858" lon="12.2173344065"><ele>2238.09</ele><time>2013-07-24T08:52:31Z</time></trkpt><trkpt lat="46.5352083463" lon="12.2173467278"><ele>2237.13</ele><time>2013-07-24T08:52:35Z</time></trkpt><trkpt lat="46.5351122059" lon="12.2174071614"><ele>2236.16</ele><time>2013-07-24T08:52:44Z</time></trkpt><trkpt lat="46.5350462403" lon="12.2174807545"><ele>2235.68</ele><time>2013-07-24T08:52:53Z</time></trkpt><trkpt lat="46.5349987987" lon="12.2174884658"><ele>2234.72</ele><time>2013-07-24T08:53:01Z</time></trkpt><trkpt lat="46.5349634271" lon="12.2175065707"><ele>2234.72</ele><time>2013-07-24T08:53:04Z</time></trkpt><trkpt lat="46.5348886605" lon="12.2175081633"><ele>2233.76</ele><time>2013-07-24T08:53:12Z</time></trkpt><trkpt lat="46.5348122176" lon="12.2175515816"><ele>2232.32</ele><time>2013-07-24T08:53:21Z</time></trkpt><trkpt lat="46.5347360261" lon="12.2175918147"><ele>2230.88</ele><time>2013-07-24T08:53:29Z</time></trkpt><trkpt lat="46.5346343536" lon="12.2176000290"><ele>2229.92</ele><time>2013-07-24T08:53:39Z</time></trkpt><trkpt lat="46.5345911868" lon="12.2175811697"><ele>2229.43</ele><time>2013-07-24T08:53:44Z</time></trkpt><trkpt lat="46.5345359500" lon="12.2175747156"><ele>2228.95</ele><time>2013-07-24T08:53:48Z</time></trkpt><trkpt lat="46.5344120655" lon="12.2176081594"><ele>2229.43</ele><time>2013-07-24T08:53:59Z</time></trkpt><trkpt lat="46.5343912784" lon="12.2176200617"><ele>2228.95</ele><time>2013-07-24T08:54:01Z</time></trkpt><trkpt lat="46.5343607683" lon="12.2176413517"><ele>2228.95</ele><time>2013-07-24T08:54:04Z</time></trkpt><trkpt lat="46.5343216248" lon="12.2176877875"><ele>2229.92</ele><time>2013-07-24T08:54:12Z</time></trkpt><trkpt lat="46.5343170147" lon="12.2177134361"><ele>2229.92</ele><time>2013-07-24T08:54:14Z</time></trkpt><trkpt lat="46.5343081299" lon="12.2177555133"><ele>2229.43</ele><time>2013-07-24T08:54:17Z</time></trkpt><trkpt lat="46.5342562459" lon="12.2178375721"><ele>2228.95</ele><time>2013-07-24T08:54:24Z</time></trkpt><trkpt lat="46.5342497081" lon="12.2178870253"><ele>2227.99</ele><time>2013-07-24T08:54:29Z</time></trkpt><trkpt lat="46.5342069604" lon="12.2180418391"><ele>2227.99</ele><time>2013-07-24T08:54:40Z</time></trkpt><trkpt lat="46.5342105646" lon="12.2180724330"><ele>2227.99</ele><time>2013-07-24T08:54:44Z</time></trkpt><trkpt lat="46.5342153423" lon="12.2181060445"><ele>2227.99</ele><time>2013-07-24T08:54:47Z</time></trkpt><trkpt lat="46.5342269931" lon="12.2182447650"><ele>2227.03</ele><time>2013-07-24T08:54:57Z</time></trkpt><trkpt lat="46.5342188627" lon="12.2184054460"><ele>2227.03</ele><time>2013-07-24T08:55:06Z</time></trkpt><trkpt lat="46.5342195332" lon="12.2184190247"><ele>2227.03</ele><time>2013-07-24T08:55:07Z</time></trkpt><trkpt lat="46.5341917891" lon="12.2184667177"><ele>2226.55</ele><time>2013-07-24T08:55:10Z</time></trkpt><trkpt lat="46.5341380611" lon="12.2185481060"><ele>2225.59</ele><time>2013-07-24T08:55:15Z</time></trkpt><trkpt lat="46.5340617858" lon="12.2186340205"><ele>2225.11</ele><time>2013-07-24T08:55:22Z</time></trkpt><trkpt lat="46.5340903681" lon="12.2187709808"><ele>2224.15</ele><time>2013-07-24T08:55:33Z</time></trkpt><trkpt lat="46.5340888593" lon="12.2187976353"><ele>2224.15</ele><time>2013-07-24T08:55:35Z</time></trkpt><trkpt lat="46.5340552479" lon="12.2188807838"><ele>2223.67</ele><time>2013-07-24T08:55:40Z</time></trkpt><trkpt lat="46.5340423398" lon="12.2189512756"><ele>2223.19</ele><time>2013-07-24T08:55:44Z</time></trkpt><trkpt lat="46.5340286773" lon="12.2191364318"><ele>2224.15</ele><time>2013-07-24T08:55:54Z</time></trkpt><trkpt lat="46.5340273362" lon="12.2191864718"><ele>2223.67</ele><time>2013-07-24T08:55:57Z</time></trkpt><trkpt lat="46.5340580139" lon="12.2192828637"><ele>2223.67</ele><time>2013-07-24T08:56:05Z</time></trkpt><trkpt lat="46.5340612829" lon="12.2193127032"><ele>2222.71</ele><time>2013-07-24T08:56:07Z</time></trkpt><trkpt lat="46.5340699162" lon="12.2193603124"><ele>2222.71</ele><time>2013-07-24T08:56:11Z</time></trkpt><trkpt lat="46.5340698324" lon="12.2194794193"><ele>2220.30</ele><time>2013-07-24T08:56:20Z</time></trkpt><trkpt lat="46.5340318624" lon="12.2194906510"><ele>2219.34</ele><time>2013-07-24T08:56:25Z</time></trkpt><trkpt lat="46.5340050403" lon="12.2195391823"><ele>2218.86</ele><time>2013-07-24T08:56:29Z</time></trkpt><trkpt lat="46.5338826645" lon="12.2196702752"><ele>2215.98</ele><time>2013-07-24T08:56:40Z</time></trkpt><trkpt lat="46.5337788127" lon="12.2197491489"><ele>2214.53</ele><time>2013-07-24T08:56:50Z</time></trkpt><trkpt lat="46.5337265935" lon="12.2198089119"><ele>2212.61</ele><time>2013-07-24T08:56:57Z</time></trkpt><trkpt lat="46.5337165352" lon="12.2198479716"><ele>2212.61</ele><time>2013-07-24T08:57:00Z</time></trkpt><trkpt lat="46.5337129310" lon="12.2198899649"><ele>2211.17</ele><time>2013-07-24T08:57:03Z</time></trkpt><trkpt lat="46.5336950775" lon="12.2199437767"><ele>2210.69</ele><time>2013-07-24T08:57:07Z</time></trkpt><trkpt lat="46.5336620528" lon="12.2200728580"><ele>2210.21</ele><time>2013-07-24T08:57:17Z</time></trkpt><trkpt lat="46.5336593706" lon="12.2200998478"><ele>2211.17</ele><time>2013-07-24T08:57:19Z</time></trkpt><trkpt lat="46.5336495638" lon="12.2201539110"><ele>2211.17</ele><time>2013-07-24T08:57:23Z</time></trkpt><trkpt lat="46.5336465463" lon="12.2201855108"><ele>2211.17</ele><time>2013-07-24T08:57:25Z</time></trkpt><trkpt lat="46.5336473007" lon="12.2202295996"><ele>2211.65</ele><time>2013-07-24T08:57:28Z</time></trkpt><trkpt lat="46.5336370748" lon="12.2202973254"><ele>2211.65</ele><time>2013-07-24T08:57:32Z</time></trkpt><trkpt lat="46.5335509088" lon="12.2203611117"><ele>2212.61</ele><time>2013-07-24T08:57:41Z</time></trkpt><trkpt lat="46.5335126035" lon="12.2203498799"><ele>2213.09</ele><time>2013-07-24T08:57:45Z</time></trkpt><trkpt lat="46.5334924031" lon="12.2203574236"><ele>2213.57</ele><time>2013-07-24T08:57:47Z</time></trkpt><trkpt lat="46.5334577020" lon="12.2203684039"><ele>2214.53</ele><time>2013-07-24T08:57:51Z</time></trkpt><trkpt lat="46.5334297065" lon="12.2204269934"><ele>2215.01</ele><time>2013-07-24T08:58:01Z</time></trkpt><trkpt lat="46.5334297065" lon="12.2204269934"><ele>2215.01</ele><time>2013-07-24T08:58:07Z</time></trkpt><trkpt lat="46.5334137809" lon="12.2204513848"><ele>2215.50</ele><time>2013-07-24T08:58:10Z</time></trkpt><trkpt lat="46.5333771519" lon="12.2205085494"><ele>2216.46</ele><time>2013-07-24T08:58:16Z</time></trkpt><trkpt lat="46.5333431214" lon="12.2206055280"><ele>2217.90</ele><time>2013-07-24T08:58:26Z</time></trkpt><trkpt lat="46.5333241783" lon="12.2206221242"><ele>2219.34</ele><time>2013-07-24T08:58:35Z</time></trkpt><trkpt lat="46.5333241783" lon="12.2206221242"><ele>2219.82</ele><time>2013-07-24T08:58:40Z</time></trkpt><trkpt lat="46.5333148744" lon="12.2206203640"><ele>2220.30</ele><time>2013-07-24T08:58:45Z</time></trkpt><trkpt lat="46.5332894772" lon="12.2206491139"><ele>2221.26</ele><time>2013-07-24T08:58:54Z</time></trkpt><trkpt lat="46.5332894772" lon="12.2206491139"><ele>2222.71</ele><time>2013-07-24T08:59:02Z</time></trkpt><trkpt lat="46.5332894772" lon="12.2206491139"><ele>2223.67</ele><time>2013-07-24T08:59:12Z</time></trkpt><trkpt lat="46.5332894772" lon="12.2206491139"><ele>2225.11</ele><time>2013-07-24T08:59:24Z</time></trkpt><trkpt lat="46.5332619846" lon="12.2207044344"><ele>2226.55</ele><time>2013-07-24T08:59:33Z</time></trkpt><trkpt lat="46.5332619846" lon="12.2207044344"><ele>2227.03</ele><time>2013-07-24T08:59:43Z</time></trkpt><trkpt lat="46.5332619846" lon="12.2207044344"><ele>2228.47</ele><time>2013-07-24T08:59:53Z</time></trkpt><trkpt lat="46.5332091786" lon="12.2208396345"><ele>2230.40</ele><time>2013-07-24T09:00:04Z</time></trkpt><trkpt lat="46.5332099330" lon="12.2209119704"><ele>2230.88</ele><time>2013-07-24T09:00:08Z</time></trkpt><trkpt lat="46.5331836138" lon="12.2209989745"><ele>2231.84</ele><time>2013-07-24T09:00:18Z</time></trkpt><trkpt lat="46.5331588872" lon="12.2211702168"><ele>2232.32</ele><time>2013-07-24T09:00:27Z</time></trkpt><trkpt lat="46.5331489965" lon="12.2213181574"><ele>2232.32</ele><time>2013-07-24T09:00:37Z</time></trkpt><trkpt lat="46.5331494156" lon="12.2213377710"><ele>2233.28</ele><time>2013-07-24T09:00:45Z</time></trkpt><trkpt lat="46.5331577137" lon="12.2214178182"><ele>2234.72</ele><time>2013-07-24T09:00:54Z</time></trkpt><trkpt lat="46.5331803448" lon="12.2215300519"><ele>2234.72</ele><time>2013-07-24T09:01:02Z</time></trkpt><trkpt lat="46.5331981983" lon="12.2215855401"><ele>2234.24</ele><time>2013-07-24T09:01:07Z</time></trkpt><trkpt lat="46.5332166385" lon="12.2216135357"><ele>2234.24</ele><time>2013-07-24T09:01:12Z</time></trkpt><trkpt lat="46.5332435444" lon="12.2216590494"><ele>2233.28</ele><time>2013-07-24T09:01:16Z</time></trkpt><trkpt lat="46.5332947578" lon="12.2217796650"><ele>2234.24</ele><time>2013-07-24T09:01:25Z</time></trkpt><trkpt lat="46.5333033912" lon="12.2217898909"><ele>2233.76</ele><time>2013-07-24T09:01:26Z</time></trkpt><trkpt lat="46.5333164670" lon="12.2218110971"><ele>2233.76</ele><time>2013-07-24T09:01:28Z</time></trkpt><trkpt lat="46.5333814267" lon="12.2219400946"><ele>2233.76</ele><time>2013-07-24T09:01:38Z</time></trkpt><trkpt lat="46.5334147029" lon="12.2220033780"><ele>2233.28</ele><time>2013-07-24T09:01:43Z</time></trkpt><trkpt lat="46.5334392618" lon="12.2220556810"><ele>2233.28</ele><time>2013-07-24T09:01:47Z</time></trkpt><trkpt lat="46.5334521700" lon="12.2220764682"><ele>2232.80</ele><time>2013-07-24T09:01:49Z</time></trkpt><trkpt lat="46.5334603004" lon="12.2221037094"><ele>2232.80</ele><time>2013-07-24T09:01:51Z</time></trkpt><trkpt lat="46.5334810037" lon="12.2221788950"><ele>2232.32</ele><time>2013-07-24T09:01:56Z</time></trkpt><trkpt lat="46.5335008688" lon="12.2222022805"><ele>2231.84</ele><time>2013-07-24T09:01:58Z</time></trkpt><trkpt lat="46.5335297026" lon="12.2223017737"><ele>2230.88</ele><time>2013-07-24T09:02:05Z</time></trkpt><trkpt lat="46.5335408505" lon="12.2223630454"><ele>2231.84</ele><time>2013-07-24T09:02:09Z</time></trkpt><trkpt lat="46.5335536748" lon="12.2224307712"><ele>2231.36</ele><time>2013-07-24T09:02:13Z</time></trkpt><trkpt lat="46.5335697681" lon="12.2225678992"><ele>2231.84</ele><time>2013-07-24T09:02:22Z</time></trkpt><trkpt lat="46.5335675050" lon="12.2225847468"><ele>2233.28</ele><time>2013-07-24T09:02:25Z</time></trkpt><trkpt lat="46.5335714445" lon="12.2226397321"><ele>2232.80</ele><time>2013-07-24T09:02:34Z</time></trkpt><trkpt lat="46.5335714445" lon="12.2226397321"><ele>2232.80</ele><time>2013-07-24T09:02:44Z</time></trkpt><trkpt lat="46.5335530881" lon="12.2227102239"><ele>2234.72</ele><time>2013-07-24T09:02:54Z</time></trkpt><trkpt lat="46.5335180517" lon="12.2226965614"><ele>2236.16</ele><time>2013-07-24T09:03:04Z</time></trkpt><trkpt lat="46.5335110947" lon="12.2226989921"><ele>2237.61</ele><time>2013-07-24T09:03:14Z</time></trkpt><trkpt lat="46.5335110947" lon="12.2226989921"><ele>2239.05</ele><time>2013-07-24T09:03:25Z</time></trkpt><trkpt lat="46.5335110947" lon="12.2226989921"><ele>2240.49</ele><time>2013-07-24T09:03:36Z</time></trkpt><trkpt lat="46.5335110947" lon="12.2226989921"><ele>2241.45</ele><time>2013-07-24T09:03:45Z</time></trkpt><trkpt lat="46.5335119329" lon="12.2227099724"><ele>2242.89</ele><time>2013-07-24T09:03:56Z</time></trkpt><trkpt lat="46.5334987734" lon="12.2227159236"><ele>2243.37</ele><time>2013-07-24T09:04:00Z</time></trkpt><trkpt lat="46.5333990287" lon="12.2227064520"><ele>2244.82</ele><time>2013-07-24T09:04:10Z</time></trkpt><trkpt lat="46.5333669260" lon="12.2226461861"><ele>2245.78</ele><time>2013-07-24T09:04:17Z</time></trkpt><trkpt lat="46.5333317220" lon="12.2226005048"><ele>2246.74</ele><time>2013-07-24T09:04:26Z</time></trkpt><trkpt lat="46.5332847834" lon="12.2226968128"><ele>2248.18</ele><time>2013-07-24T09:04:34Z</time></trkpt><trkpt lat="46.5332575422" lon="12.2227756027"><ele>2249.62</ele><time>2013-07-24T09:04:44Z</time></trkpt><trkpt lat="46.5332458075" lon="12.2228326835"><ele>2251.06</ele><time>2013-07-24T09:04:54Z</time></trkpt><trkpt lat="46.5332458075" lon="12.2228326835"><ele>2252.03</ele><time>2013-07-24T09:05:05Z</time></trkpt><trkpt lat="46.5332458075" lon="12.2228326835"><ele>2251.54</ele><time>2013-07-24T09:05:25Z</time></trkpt><trkpt lat="46.5332209971" lon="12.2228090465"><ele>2252.51</ele><time>2013-07-24T09:05:35Z</time></trkpt><trkpt lat="46.5332209971" lon="12.2228090465"><ele>2253.95</ele><time>2013-07-24T09:05:45Z</time></trkpt><trkpt lat="46.5332209971" lon="12.2228090465"><ele>2254.43</ele><time>2013-07-24T09:05:54Z</time></trkpt><trkpt lat="46.5331986174" lon="12.2228046041"><ele>2256.35</ele><time>2013-07-24T09:06:01Z</time></trkpt><trkpt lat="46.5331774112" lon="12.2228140756"><ele>2257.31</ele><time>2013-07-24T09:06:10Z</time></trkpt><trkpt lat="46.5331774112" lon="12.2228140756"><ele>2257.31</ele><time>2013-07-24T09:06:15Z</time></trkpt><trkpt lat="46.5331659280" lon="12.2228225414"><ele>2258.27</ele><time>2013-07-24T09:06:24Z</time></trkpt><trkpt lat="46.5331696998" lon="12.2228170093"><ele>2259.24</ele><time>2013-07-24T09:06:33Z</time></trkpt><trkpt lat="46.5331696998" lon="12.2228170093"><ele>2260.20</ele><time>2013-07-24T09:06:42Z</time></trkpt><trkpt lat="46.5331696998" lon="12.2228170093"><ele>2262.12</ele><time>2013-07-24T09:06:50Z</time></trkpt><trkpt lat="46.5331375971" lon="12.2228623554"><ele>2262.60</ele><time>2013-07-24T09:06:57Z</time></trkpt><trkpt lat="46.5330885630" lon="12.2229097970"><ele>2264.04</ele><time>2013-07-24T09:07:07Z</time></trkpt><trkpt lat="46.5330885630" lon="12.2229097970"><ele>2264.52</ele><time>2013-07-24T09:07:19Z</time></trkpt><trkpt lat="46.5330885630" lon="12.2229097970"><ele>2265.96</ele><time>2013-07-24T09:07:29Z</time></trkpt><trkpt lat="46.5330697037" lon="12.2228641994"><ele>2266.93</ele><time>2013-07-24T09:07:39Z</time></trkpt><trkpt lat="46.5330640879" lon="12.2228601761"><ele>2268.37</ele><time>2013-07-24T09:07:54Z</time></trkpt><trkpt lat="46.5330640879" lon="12.2228601761"><ele>2267.89</ele><time>2013-07-24T09:08:12Z</time></trkpt><trkpt lat="46.5330640879" lon="12.2228601761"><ele>2266.93</ele><time>2013-07-24T09:08:18Z</time></trkpt><trkpt lat="46.5330535267" lon="12.2228632774"><ele>2266.93</ele><time>2013-07-24T09:08:20Z</time></trkpt><trkpt lat="46.5329894051" lon="12.2228603438"><ele>2265.48</ele><time>2013-07-24T09:08:28Z</time></trkpt><trkpt lat="46.5329054184" lon="12.2228633612"><ele>2263.08</ele><time>2013-07-24T09:08:40Z</time></trkpt><trkpt lat="46.5328411292" lon="12.2228797060"><ele>2262.60</ele><time>2013-07-24T09:08:50Z</time></trkpt><trkpt lat="46.5327438992" lon="12.2228977270"><ele>2260.68</ele><time>2013-07-24T09:09:01Z</time></trkpt><trkpt lat="46.5327091981" lon="12.2229059413"><ele>2260.20</ele><time>2013-07-24T09:09:13Z</time></trkpt><trkpt lat="46.5327091981" lon="12.2229059413"><ele>2260.20</ele><time>2013-07-24T09:09:19Z</time></trkpt><trkpt lat="46.5326345991" lon="12.2229360323"><ele>2258.75</ele><time>2013-07-24T09:09:29Z</time></trkpt><trkpt lat="46.5326070227" lon="12.2229486890"><ele>2257.79</ele><time>2013-07-24T09:09:36Z</time></trkpt><trkpt lat="46.5326070227" lon="12.2229486890"><ele>2257.79</ele><time>2013-07-24T09:09:59Z</time></trkpt><trkpt lat="46.5325988084" lon="12.2229453363"><ele>2257.79</ele><time>2013-07-24T09:10:27Z</time></trkpt><trkpt lat="46.5325675439" lon="12.2229680512"><ele>2257.79</ele><time>2013-07-24T09:10:37Z</time></trkpt><trkpt lat="46.5325158276" lon="12.2229730804"><ele>2255.39</ele><time>2013-07-24T09:10:45Z</time></trkpt><trkpt lat="46.5324148256" lon="12.2230012435"><ele>2252.51</ele><time>2013-07-24T09:10:56Z</time></trkpt><trkpt lat="46.5323470160" lon="12.2230216954"><ele>2250.58</ele><time>2013-07-24T09:11:04Z</time></trkpt><trkpt lat="46.5322977304" lon="12.2230415605"><ele>2249.14</ele><time>2013-07-24T09:11:10Z</time></trkpt><trkpt lat="46.5322786197" lon="12.2230560612"><ele>2248.18</ele><time>2013-07-24T09:11:12Z</time></trkpt><trkpt lat="46.5321414918" lon="12.2230780218"><ele>2245.78</ele><time>2013-07-24T09:11:24Z</time></trkpt><trkpt lat="46.5319977421" lon="12.2230529599"><ele>2245.30</ele><time>2013-07-24T09:11:36Z</time></trkpt><trkpt lat="46.5319782123" lon="12.2230459191"><ele>2245.30</ele><time>2013-07-24T09:11:38Z</time></trkpt><trkpt lat="46.5319573414" lon="12.2230366152"><ele>2245.30</ele><time>2013-07-24T09:11:40Z</time></trkpt><trkpt lat="46.5318582673" lon="12.2230144870"><ele>2244.33</ele><time>2013-07-24T09:11:50Z</time></trkpt><trkpt lat="46.5318404976" lon="12.2230235394"><ele>2243.85</ele><time>2013-07-24T09:11:52Z</time></trkpt><trkpt lat="46.5317118354" lon="12.2230158281"><ele>2242.89</ele><time>2013-07-24T09:12:02Z</time></trkpt><trkpt lat="46.5316023678" lon="12.2229964659"><ele>2240.49</ele><time>2013-07-24T09:12:12Z</time></trkpt><trkpt lat="46.5315915551" lon="12.2229947895"><ele>2240.97</ele><time>2013-07-24T09:12:13Z</time></trkpt><trkpt lat="46.5315381624" lon="12.2229829710"><ele>2239.53</ele><time>2013-07-24T09:12:18Z</time></trkpt><trkpt lat="46.5315218177" lon="12.2229694761"><ele>2243.85</ele><time>2013-07-24T09:12:20Z</time></trkpt><trkpt lat="46.5315196384" lon="12.2229739185"><ele>2239.53</ele><time>2013-07-24T09:12:21Z</time></trkpt><trkpt lat="46.5315097477" lon="12.2229875810"><ele>2239.05</ele><time>2013-07-24T09:12:22Z</time></trkpt><trkpt lat="46.5314944927" lon="12.2230069432"><ele>2239.05</ele><time>2013-07-24T09:12:34Z</time></trkpt><trkpt lat="46.5314944927" lon="12.2230069432"><ele>2238.57</ele><time>2013-07-24T09:12:59Z</time></trkpt><trkpt lat="46.5314925648" lon="12.2229936998"><ele>2239.53</ele><time>2013-07-24T09:13:16Z</time></trkpt><trkpt lat="46.5314912237" lon="12.2229978908"><ele>2239.53</ele><time>2013-07-24T09:13:18Z</time></trkpt><trkpt lat="46.5314055607" lon="12.2230025008"><ele>2237.13</ele><time>2013-07-24T09:13:29Z</time></trkpt><trkpt lat="46.5313307103" lon="12.2229841445"><ele>2235.20</ele><time>2013-07-24T09:13:39Z</time></trkpt><trkpt lat="46.5312989429" lon="12.2229830548"><ele>2234.24</ele><time>2013-07-24T09:13:43Z</time></trkpt><trkpt lat="46.5311720408" lon="12.2230221145"><ele>2231.36</ele><time>2013-07-24T09:13:55Z</time></trkpt><trkpt lat="46.5311059076" lon="12.2230160795"><ele>2227.99</ele><time>2013-07-24T09:14:05Z</time></trkpt><trkpt lat="46.5310938377" lon="12.2230287362"><ele>2227.51</ele><time>2013-07-24T09:14:07Z</time></trkpt><trkpt lat="46.5310306381" lon="12.2230374534"><ele>2225.11</ele><time>2013-07-24T09:14:17Z</time></trkpt><trkpt lat="46.5310013853" lon="12.2229882516"><ele>2223.19</ele><time>2013-07-24T09:14:27Z</time></trkpt><trkpt lat="46.5309415385" lon="12.2229860723"><ele>2221.26</ele><time>2013-07-24T09:14:36Z</time></trkpt><trkpt lat="46.5309039038" lon="12.2230271436"><ele>2219.82</ele><time>2013-07-24T09:14:46Z</time></trkpt><trkpt lat="46.5308951866" lon="12.2230340168"><ele>2219.34</ele><time>2013-07-24T09:14:47Z</time></trkpt><trkpt lat="46.5308436379" lon="12.2230498586"><ele>2216.94</ele><time>2013-07-24T09:14:55Z</time></trkpt><trkpt lat="46.5308215935" lon="12.2230716515"><ele>2215.98</ele><time>2013-07-24T09:15:00Z</time></trkpt><trkpt lat="46.5307638422" lon="12.2231328394"><ele>2213.09</ele><time>2013-07-24T09:15:09Z</time></trkpt><trkpt lat="46.5307228547" lon="12.2231451608"><ele>2211.17</ele><time>2013-07-24T09:15:17Z</time></trkpt><trkpt lat="46.5307048336" lon="12.2231524531"><ele>2210.69</ele><time>2013-07-24T09:15:19Z</time></trkpt><trkpt lat="46.5306553803" lon="12.2231820412"><ele>2207.32</ele><time>2013-07-24T09:15:29Z</time></trkpt><trkpt lat="46.5306034964" lon="12.2231900040"><ele>2205.88</ele><time>2013-07-24T09:15:38Z</time></trkpt><trkpt lat="46.5305957012" lon="12.2231936082"><ele>2205.88</ele><time>2013-07-24T09:15:39Z</time></trkpt><trkpt lat="46.5305489302" lon="12.2232224420"><ele>2204.92</ele><time>2013-07-24T09:15:47Z</time></trkpt><trkpt lat="46.5305557195" lon="12.2232442349"><ele>2203.00</ele><time>2013-07-24T09:15:53Z</time></trkpt><trkpt lat="46.5305674542" lon="12.2232860606"><ele>2201.56</ele><time>2013-07-24T09:16:01Z</time></trkpt><trkpt lat="46.5305709746" lon="12.2233308200"><ele>2200.11</ele><time>2013-07-24T09:16:08Z</time></trkpt><trkpt lat="46.5304864012" lon="12.2233558819"><ele>2196.75</ele><time>2013-07-24T09:16:19Z</time></trkpt><trkpt lat="46.5304478444" lon="12.2233691253"><ele>2195.79</ele><time>2013-07-24T09:16:27Z</time></trkpt><trkpt lat="46.5303907637" lon="12.2233959474"><ele>2192.42</ele><time>2013-07-24T09:16:35Z</time></trkpt><trkpt lat="46.5303525422" lon="12.2234285530"><ele>2190.50</ele><time>2013-07-24T09:16:43Z</time></trkpt><trkpt lat="46.5302973054" lon="12.2234459035"><ele>2189.06</ele><time>2013-07-24T09:16:53Z</time></trkpt><trkpt lat="46.5302814636" lon="12.2234448139"><ele>2187.62</ele><time>2013-07-24T09:16:55Z</time></trkpt><trkpt lat="46.5302472655" lon="12.2234723903"><ele>2186.18</ele><time>2013-07-24T09:17:02Z</time></trkpt><trkpt lat="46.5301813837" lon="12.2234822810"><ele>2184.25</ele><time>2013-07-24T09:17:10Z</time></trkpt><trkpt lat="46.5301528014" lon="12.2234955244"><ele>2183.77</ele><time>2013-07-24T09:17:13Z</time></trkpt><trkpt lat="46.5300831478" lon="12.2235089354"><ele>2181.85</ele><time>2013-07-24T09:17:22Z</time></trkpt><trkpt lat="46.5300631989" lon="12.2234990448"><ele>2180.89</ele><time>2013-07-24T09:17:26Z</time></trkpt><trkpt lat="46.5299818944" lon="12.2234956082"><ele>2178.48</ele><time>2013-07-24T09:17:36Z</time></trkpt><trkpt lat="46.5299279988" lon="12.2235233523"><ele>2175.60</ele><time>2013-07-24T09:17:45Z</time></trkpt><trkpt lat="46.5298737679" lon="12.2235321533"><ele>2173.68</ele><time>2013-07-24T09:17:54Z</time></trkpt><trkpt lat="46.5298684873" lon="12.2235395294"><ele>2173.68</ele><time>2013-07-24T09:17:55Z</time></trkpt><trkpt lat="46.5298291761" lon="12.2235680278"><ele>2171.27</ele><time>2013-07-24T09:18:04Z</time></trkpt><trkpt lat="46.5297653060" lon="12.2235759068"><ele>2169.83</ele><time>2013-07-24T09:18:12Z</time></trkpt><trkpt lat="46.5297004301" lon="12.2236203309"><ele>2166.47</ele><time>2013-07-24T09:18:22Z</time></trkpt><trkpt lat="46.5296361409" lon="12.2236350831"><ele>2164.55</ele><time>2013-07-24T09:18:31Z</time></trkpt><trkpt lat="46.5295706782" lon="12.2236664314"><ele>2161.66</ele><time>2013-07-24T09:18:42Z</time></trkpt><trkpt lat="46.5295606200" lon="12.2236601450"><ele>2160.70</ele><time>2013-07-24T09:18:44Z</time></trkpt><trkpt lat="46.5294832550" lon="12.2236775793"><ele>2158.30</ele><time>2013-07-24T09:18:55Z</time></trkpt><trkpt lat="46.5294076502" lon="12.2236739751"><ele>2156.37</ele><time>2013-07-24T09:19:05Z</time></trkpt><trkpt lat="46.5293372422" lon="12.2236767411"><ele>2153.49</ele><time>2013-07-24T09:19:14Z</time></trkpt><trkpt lat="46.5292754676" lon="12.2236516792"><ele>2151.57</ele><time>2013-07-24T09:19:23Z</time></trkpt><trkpt lat="46.5292483941" lon="12.2236481588"><ele>2150.61</ele><time>2013-07-24T09:19:26Z</time></trkpt><trkpt lat="46.5291738790" lon="12.2236414533"><ele>2148.20</ele><time>2013-07-24T09:19:35Z</time></trkpt><trkpt lat="46.5291511640" lon="12.2236157209"><ele>2146.76</ele><time>2013-07-24T09:19:44Z</time></trkpt><trkpt lat="46.5291395131" lon="12.2236483265"><ele>2145.32</ele><time>2013-07-24T09:19:51Z</time></trkpt><trkpt lat="46.5291126911" lon="12.2237102687"><ele>2143.40</ele><time>2013-07-24T09:19:59Z</time></trkpt><trkpt lat="46.5291019622" lon="12.2237010486"><ele>2141.47</ele><time>2013-07-24T09:20:04Z</time></trkpt><trkpt lat="46.5290283691" lon="12.2236977797"><ele>2140.03</ele><time>2013-07-24T09:20:14Z</time></trkpt><trkpt lat="46.5290097613" lon="12.2236998752"><ele>2139.55</ele><time>2013-07-24T09:20:16Z</time></trkpt><trkpt lat="46.5289515909" lon="12.2236888949"><ele>2138.11</ele><time>2013-07-24T09:20:25Z</time></trkpt><trkpt lat="46.5288968571" lon="12.2236932535"><ele>2137.15</ele><time>2013-07-24T09:20:30Z</time></trkpt><trkpt lat="46.5288526006" lon="12.2236617375"><ele>2136.19</ele><time>2013-07-24T09:20:37Z</time></trkpt><trkpt lat="46.5288003813" lon="12.2236957680"><ele>2133.78</ele><time>2013-07-24T09:20:47Z</time></trkpt><trkpt lat="46.5287373494" lon="12.2237124480"><ele>2131.86</ele><time>2013-07-24T09:20:59Z</time></trkpt><trkpt lat="46.5286978707" lon="12.2237132862"><ele>2129.46</ele><time>2013-07-24T09:21:10Z</time></trkpt><trkpt lat="46.5286657680" lon="12.2237218358"><ele>2127.53</ele><time>2013-07-24T09:21:19Z</time></trkpt><trkpt lat="46.5286651812" lon="12.2237835266"><ele>2126.09</ele><time>2013-07-24T09:21:28Z</time></trkpt><trkpt lat="46.5286563803" lon="12.2238293756"><ele>2124.65</ele><time>2013-07-24T09:21:37Z</time></trkpt><trkpt lat="46.5286072623" lon="12.2238463908"><ele>2122.73</ele><time>2013-07-24T09:21:46Z</time></trkpt><trkpt lat="46.5285913367" lon="12.2238524258"><ele>2120.81</ele><time>2013-07-24T09:21:56Z</time></trkpt><trkpt lat="46.5285723936" lon="12.2238556948"><ele>2118.40</ele><time>2013-07-24T09:22:05Z</time></trkpt><trkpt lat="46.5285470802" lon="12.2238519229"><ele>2116.48</ele><time>2013-07-24T09:22:15Z</time></trkpt><trkpt lat="46.5285406262" lon="12.2238463908"><ele>2115.04</ele><time>2013-07-24T09:22:22Z</time></trkpt><trkpt lat="46.5285029914" lon="12.2238686029"><ele>2113.12</ele><time>2013-07-24T09:22:31Z</time></trkpt><trkpt lat="46.5284573939" lon="12.2238790803"><ele>2110.71</ele><time>2013-07-24T09:22:40Z</time></trkpt><trkpt lat="46.5284268837" lon="12.2239011247"><ele>2109.27</ele><time>2013-07-24T09:22:49Z</time></trkpt><trkpt lat="46.5283470880" lon="12.2239329759"><ele>2106.39</ele><time>2013-07-24T09:22:59Z</time></trkpt><trkpt lat="46.5283197630" lon="12.2240000311"><ele>2104.46</ele><time>2013-07-24T09:23:10Z</time></trkpt><trkpt lat="46.5283175837" lon="12.2240614705"><ele>2102.54</ele><time>2013-07-24T09:23:18Z</time></trkpt><trkpt lat="46.5282904264" lon="12.2241082415"><ele>2101.10</ele><time>2013-07-24T09:23:26Z</time></trkpt><trkpt lat="46.5282548033" lon="12.2241388354"><ele>2099.18</ele><time>2013-07-24T09:23:34Z</time></trkpt><trkpt lat="46.5281905141" lon="12.2241708543"><ele>2096.77</ele><time>2013-07-24T09:23:44Z</time></trkpt><trkpt lat="46.5281711519" lon="12.2241773922"><ele>2094.85</ele><time>2013-07-24T09:23:53Z</time></trkpt><trkpt lat="46.5281543043" lon="12.2241826728"><ele>2093.41</ele><time>2013-07-24T09:23:59Z</time></trkpt><trkpt lat="46.5281520411" lon="12.2242117580"><ele>2091.97</ele><time>2013-07-24T09:24:06Z</time></trkpt><trkpt lat="46.5281395521" lon="12.2242476325"><ele>2091.49</ele><time>2013-07-24T09:24:11Z</time></trkpt><trkpt lat="46.5281528793" lon="12.2243079823"><ele>2089.08</ele><time>2013-07-24T09:24:19Z</time></trkpt><trkpt lat="46.5281540528" lon="12.2243679967"><ele>2087.16</ele><time>2013-07-24T09:24:27Z</time></trkpt><trkpt lat="46.5281382948" lon="12.2244207188"><ele>2085.72</ele><time>2013-07-24T09:24:32Z</time></trkpt><trkpt lat="46.5281007439" lon="12.2244458646"><ele>2083.79</ele><time>2013-07-24T09:24:41Z</time></trkpt><trkpt lat="46.5280808788" lon="12.2244798951"><ele>2081.39</ele><time>2013-07-24T09:24:50Z</time></trkpt><trkpt lat="46.5280637797" lon="12.2245036997"><ele>2080.43</ele><time>2013-07-24T09:24:53Z</time></trkpt><trkpt lat="46.5280528832" lon="12.2245429270"><ele>2079.95</ele><time>2013-07-24T09:24:56Z</time></trkpt><trkpt lat="46.5280402265" lon="12.2246203758"><ele>2078.51</ele><time>2013-07-24T09:25:05Z</time></trkpt><trkpt lat="46.5280414838" lon="12.2246140055"><ele>2077.55</ele><time>2013-07-24T09:25:13Z</time></trkpt><trkpt lat="46.5280352812" lon="12.2246182803"><ele>2077.55</ele><time>2013-07-24T09:25:32Z</time></trkpt><trkpt lat="46.5280352812" lon="12.2246182803"><ele>2077.55</ele><time>2013-07-24T09:25:47Z</time></trkpt><trkpt lat="46.5280350298" lon="12.2246173583"><ele>2077.55</ele><time>2013-07-24T09:26:14Z</time></trkpt><trkpt lat="46.5280350298" lon="12.2246173583"><ele>2077.55</ele><time>2013-07-24T09:26:41Z</time></trkpt><trkpt lat="46.5280322637" lon="12.2246247344"><ele>2078.03</ele><time>2013-07-24T09:26:49Z</time></trkpt><trkpt lat="46.5280180145" lon="12.2246280033"><ele>2077.55</ele><time>2013-07-24T09:27:02Z</time></trkpt><trkpt lat="46.5279944614" lon="12.2246385645"><ele>2076.59</ele><time>2013-07-24T09:27:10Z</time></trkpt><trkpt lat="46.5279771946" lon="12.2246328648"><ele>2073.70</ele><time>2013-07-24T09:27:19Z</time></trkpt><trkpt lat="46.5279514622" lon="12.2246718407"><ele>2072.26</ele><time>2013-07-24T09:27:28Z</time></trkpt><trkpt lat="46.5279514622" lon="12.2247409914"><ele>2069.86</ele><time>2013-07-24T09:27:37Z</time></trkpt><trkpt lat="46.5279503725" lon="12.2247487865"><ele>2069.86</ele><time>2013-07-24T09:27:38Z</time></trkpt><trkpt lat="46.5279056132" lon="12.2247717530"><ele>2067.93</ele><time>2013-07-24T09:27:47Z</time></trkpt><trkpt lat="46.5278751869" lon="12.2247482836"><ele>2066.49</ele><time>2013-07-24T09:27:55Z</time></trkpt><trkpt lat="46.5278307628" lon="12.2247323580"><ele>2065.05</ele><time>2013-07-24T09:28:03Z</time></trkpt><trkpt lat="46.5277917869" lon="12.2247140855"><ele>2063.61</ele><time>2013-07-24T09:28:08Z</time></trkpt><trkpt lat="46.5277536493" lon="12.2246892750"><ele>2063.13</ele><time>2013-07-24T09:28:15Z</time></trkpt><trkpt lat="46.5277186129" lon="12.2246634588"><ele>2061.20</ele><time>2013-07-24T09:28:24Z</time></trkpt><trkpt lat="46.5277135000" lon="12.2246659733"><ele>2060.24</ele><time>2013-07-24T09:28:28Z</time></trkpt><trkpt lat="46.5276775416" lon="12.2246776242"><ele>2059.28</ele><time>2013-07-24T09:28:41Z</time></trkpt><trkpt lat="46.5276425052" lon="12.2246964835"><ele>2058.32</ele><time>2013-07-24T09:28:50Z</time></trkpt><trkpt lat="46.5276218858" lon="12.2247047815"><ele>2056.40</ele><time>2013-07-24T09:28:57Z</time></trkpt><trkpt lat="46.5276147611" lon="12.2247085534"><ele>2056.40</ele><time>2013-07-24T09:28:58Z</time></trkpt><trkpt lat="46.5275753662" lon="12.2247429192"><ele>2054.96</ele><time>2013-07-24T09:29:09Z</time></trkpt><trkpt lat="46.5275715105" lon="12.2247193661"><ele>2053.03</ele><time>2013-07-24T09:29:18Z</time></trkpt><trkpt lat="46.5275687445" lon="12.2247135825"><ele>2052.07</ele><time>2013-07-24T09:29:22Z</time></trkpt><trkpt lat="46.5275312774" lon="12.2247211263"><ele>2050.15</ele><time>2013-07-24T09:29:31Z</time></trkpt><trkpt lat="46.5275001805" lon="12.2247320227"><ele>2048.71</ele><time>2013-07-24T09:29:42Z</time></trkpt><trkpt lat="46.5274959058" lon="12.2247204557"><ele>2048.23</ele><time>2013-07-24T09:29:50Z</time></trkpt><trkpt lat="46.5274899546" lon="12.2247081343"><ele>2047.26</ele><time>2013-07-24T09:30:01Z</time></trkpt><trkpt lat="46.5274823271" lon="12.2246903647"><ele>2047.26</ele><time>2013-07-24T09:30:10Z</time></trkpt><trkpt lat="46.5274778008" lon="12.2246917896"><ele>2046.30</ele><time>2013-07-24T09:30:24Z</time></trkpt><trkpt lat="46.5274538286" lon="12.2247053683"><ele>2045.34</ele><time>2013-07-24T09:30:35Z</time></trkpt><trkpt lat="46.5274468716" lon="12.2247070447"><ele>2043.42</ele><time>2013-07-24T09:30:44Z</time></trkpt><trkpt lat="46.5274305269" lon="12.2246998362"><ele>2042.46</ele><time>2013-07-24T09:30:52Z</time></trkpt><trkpt lat="46.5273962449" lon="12.2246901132"><ele>2040.54</ele><time>2013-07-24T09:31:02Z</time></trkpt><trkpt lat="46.5273905452" lon="12.2246902809"><ele>2040.05</ele><time>2013-07-24T09:31:05Z</time></trkpt><trkpt lat="46.5273265913" lon="12.2246782109"><ele>2037.65</ele><time>2013-07-24T09:31:14Z</time></trkpt><trkpt lat="46.5273018647" lon="12.2246458568"><ele>2035.73</ele><time>2013-07-24T09:31:22Z</time></trkpt><trkpt lat="46.5272781439" lon="12.2246568371"><ele>2034.29</ele><time>2013-07-24T09:31:31Z</time></trkpt><trkpt lat="46.5272482205" lon="12.2246570885"><ele>2032.84</ele><time>2013-07-24T09:31:36Z</time></trkpt><trkpt lat="46.5272142738" lon="12.2246962320"><ele>2030.92</ele><time>2013-07-24T09:31:46Z</time></trkpt><trkpt lat="46.5271839313" lon="12.2246891074"><ele>2029.00</ele><time>2013-07-24T09:31:57Z</time></trkpt><trkpt lat="46.5271102544" lon="12.2247279994"><ele>2028.52</ele><time>2013-07-24T09:32:06Z</time></trkpt><trkpt lat="46.5271006990" lon="12.2247130796"><ele>2026.60</ele><time>2013-07-24T09:32:14Z</time></trkpt><trkpt lat="46.5270899702" lon="12.2247152589"><ele>2026.60</ele><time>2013-07-24T09:32:22Z</time></trkpt><trkpt lat="46.5270865336" lon="12.2247124929"><ele>2025.64</ele><time>2013-07-24T09:32:30Z</time></trkpt><trkpt lat="46.5270732064" lon="12.2247018479"><ele>2024.67</ele><time>2013-07-24T09:32:38Z</time></trkpt><trkpt lat="46.5270629805" lon="12.2246996686"><ele>2023.71</ele><time>2013-07-24T09:32:44Z</time></trkpt><trkpt lat="46.5270509943" lon="12.2246923763"><ele>2022.75</ele><time>2013-07-24T09:32:49Z</time></trkpt><trkpt lat="46.5270147007" lon="12.2247067932"><ele>2021.79</ele><time>2013-07-24T09:32:58Z</time></trkpt><trkpt lat="46.5269881301" lon="12.2247048654"><ele>2020.83</ele><time>2013-07-24T09:33:12Z</time></trkpt><trkpt lat="46.5269595478" lon="12.2246949747"><ele>2019.39</ele><time>2013-07-24T09:33:21Z</time></trkpt><trkpt lat="46.5269090049" lon="12.2247208748"><ele>2017.46</ele><time>2013-07-24T09:33:30Z</time></trkpt><trkpt lat="46.5268842783" lon="12.2247300949"><ele>2016.50</ele><time>2013-07-24T09:33:33Z</time></trkpt><trkpt lat="46.5268473141" lon="12.2247742675"><ele>2014.58</ele><time>2013-07-24T09:33:43Z</time></trkpt><trkpt lat="46.5268128645" lon="12.2248039395"><ele>2013.14</ele><time>2013-07-24T09:33:52Z</time></trkpt><trkpt lat="46.5268028900" lon="12.2247943841"><ele>2012.18</ele><time>2013-07-24T09:34:00Z</time></trkpt><trkpt lat="46.5267942566" lon="12.2248206194"><ele>2010.73</ele><time>2013-07-24T09:34:12Z</time></trkpt><trkpt lat="46.5267501678" lon="12.2249196097"><ele>2007.85</ele><time>2013-07-24T09:34:23Z</time></trkpt><trkpt lat="46.5267199092" lon="12.2249653749"><ele>2006.89</ele><time>2013-07-24T09:34:31Z</time></trkpt><trkpt lat="46.5267125331" lon="12.2249940410"><ele>2005.93</ele><time>2013-07-24T09:34:41Z</time></trkpt><trkpt lat="46.5266958531" lon="12.2250358667"><ele>2004.97</ele><time>2013-07-24T09:34:51Z</time></trkpt><trkpt lat="46.5266962722" lon="12.2250393033"><ele>2004.49</ele><time>2013-07-24T09:35:02Z</time></trkpt><trkpt lat="46.5266915783" lon="12.2250591684"><ele>2003.52</ele><time>2013-07-24T09:35:14Z</time></trkpt><trkpt lat="46.5266862977" lon="12.2250907682"><ele>2002.56</ele><time>2013-07-24T09:35:23Z</time></trkpt><trkpt lat="46.5266967751" lon="12.2250962164"><ele>2001.60</ele><time>2013-07-24T09:35:32Z</time></trkpt><trkpt lat="46.5266957693" lon="12.2251460887"><ele>2000.16</ele><time>2013-07-24T09:35:42Z</time></trkpt><trkpt lat="46.5266982000" lon="12.2251778562"><ele>1999.68</ele><time>2013-07-24T09:35:48Z</time></trkpt><trkpt lat="46.5266759880" lon="12.2252317518"><ele>1997.76</ele><time>2013-07-24T09:35:57Z</time></trkpt><trkpt lat="46.5266658459" lon="12.2252471745"><ele>1997.28</ele><time>2013-07-24T09:36:10Z</time></trkpt><trkpt lat="46.5266365092" lon="12.2252441570"><ele>1995.83</ele><time>2013-07-24T09:36:20Z</time></trkpt><trkpt lat="46.5266269539" lon="12.2252209391"><ele>1994.87</ele><time>2013-07-24T09:36:28Z</time></trkpt><trkpt lat="46.5266173985" lon="12.2252319194"><ele>1993.91</ele><time>2013-07-24T09:36:35Z</time></trkpt><trkpt lat="46.5266720485" lon="12.2252440732"><ele>1991.51</ele><time>2013-07-24T09:36:46Z</time></trkpt><trkpt lat="46.5266792569" lon="12.2252551373"><ele>1991.03</ele><time>2013-07-24T09:36:53Z</time></trkpt><trkpt lat="46.5267008822" lon="12.2252858989"><ele>1990.07</ele><time>2013-07-24T09:37:01Z</time></trkpt><trkpt lat="46.5266789217" lon="12.2252936102"><ele>1988.62</ele><time>2013-07-24T09:37:08Z</time></trkpt><trkpt lat="46.5266689472" lon="12.2253082786"><ele>1988.62</ele><time>2013-07-24T09:37:09Z</time></trkpt><trkpt lat="46.5266533569" lon="12.2253368609"><ele>1987.66</ele><time>2013-07-24T09:37:16Z</time></trkpt><trkpt lat="46.5264925081" lon="12.2254513577"><ele>1985.74</ele><time>2013-07-24T09:37:25Z</time></trkpt><trkpt lat="46.5264210943" lon="12.2255030740"><ele>1985.26</ele><time>2013-07-24T09:37:33Z</time></trkpt><trkpt lat="46.5263886563" lon="12.2255284712"><ele>1984.30</ele><time>2013-07-24T09:37:39Z</time></trkpt><trkpt lat="46.5263615828" lon="12.2255689558"><ele>1983.34</ele><time>2013-07-24T09:37:47Z</time></trkpt><trkpt lat="46.5263666958" lon="12.2255836241"><ele>1982.38</ele><time>2013-07-24T09:37:55Z</time></trkpt><trkpt lat="46.5263862256" lon="12.2255970351"><ele>1981.41</ele><time>2013-07-24T09:38:05Z</time></trkpt><trkpt lat="46.5263873152" lon="12.2256036568"><ele>1980.45</ele><time>2013-07-24T09:38:22Z</time></trkpt><trkpt lat="46.5263876505" lon="12.2256098595"><ele>1979.49</ele><time>2013-07-24T09:38:29Z</time></trkpt><trkpt lat="46.5263941046" lon="12.2255995497"><ele>1979.01</ele><time>2013-07-24T09:38:39Z</time></trkpt><trkpt lat="46.5263926797" lon="12.2256109491"><ele>1978.53</ele><time>2013-07-24T09:38:51Z</time></trkpt><trkpt lat="46.5263998881" lon="12.2256099433"><ele>1978.05</ele><time>2013-07-24T09:39:01Z</time></trkpt><trkpt lat="46.5264146402" lon="12.2256092727"><ele>1977.09</ele><time>2013-07-24T09:39:12Z</time></trkpt><trkpt lat="46.5264142212" lon="12.2256556246"><ele>1976.13</ele><time>2013-07-24T09:39:23Z</time></trkpt><trkpt lat="46.5264432225" lon="12.2256781720"><ele>1974.69</ele><time>2013-07-24T09:39:31Z</time></trkpt><trkpt lat="46.5264662728" lon="12.2257000487"><ele>1974.69</ele><time>2013-07-24T09:39:39Z</time></trkpt><trkpt lat="46.5264769178" lon="12.2257182375"><ele>1974.20</ele><time>2013-07-24T09:39:48Z</time></trkpt><trkpt lat="46.5264783427" lon="12.2257102747"><ele>1973.24</ele><time>2013-07-24T09:39:53Z</time></trkpt><trkpt lat="46.5264298953" lon="12.2257636674"><ele>1971.80</ele><time>2013-07-24T09:40:03Z</time></trkpt><trkpt lat="46.5264067613" lon="12.2257966083"><ele>1970.84</ele><time>2013-07-24T09:40:11Z</time></trkpt><trkpt lat="46.5263984632" lon="12.2258023918"><ele>1971.80</ele><time>2013-07-24T09:40:17Z</time></trkpt><trkpt lat="46.5264107846" lon="12.2257655952"><ele>1972.28</ele><time>2013-07-24T09:40:27Z</time></trkpt><trkpt lat="46.5264410432" lon="12.2257368453"><ele>1974.69</ele><time>2013-07-24T09:40:38Z</time></trkpt><trkpt lat="46.5264733136" lon="12.2257057484"><ele>1974.20</ele><time>2013-07-24T09:40:47Z</time></trkpt><trkpt lat="46.5265006386" lon="12.2257114481"><ele>1972.76</ele><time>2013-07-24T09:40:56Z</time></trkpt><trkpt lat="46.5265127085" lon="12.2257192433"><ele>1972.76</ele><time>2013-07-24T09:41:09Z</time></trkpt><trkpt lat="46.5265257005" lon="12.2257681098"><ele>1971.32</ele><time>2013-07-24T09:41:18Z</time></trkpt><trkpt lat="46.5265462361" lon="12.2257789224"><ele>1969.88</ele><time>2013-07-24T09:41:26Z</time></trkpt><trkpt lat="46.5265985392" lon="12.2257919982"><ele>1968.92</ele><time>2013-07-24T09:41:34Z</time></trkpt><trkpt lat="46.5266203322" lon="12.2258114442"><ele>1967.96</ele><time>2013-07-24T09:41:43Z</time></trkpt><trkpt lat="46.5266279597" lon="12.2258319799"><ele>1967.48</ele><time>2013-07-24T09:41:51Z</time></trkpt><trkpt lat="46.5266976133" lon="12.2258407809"><ele>1966.99</ele><time>2013-07-24T09:42:00Z</time></trkpt><trkpt lat="46.5267520957" lon="12.2258914914"><ele>1965.55</ele><time>2013-07-24T09:42:08Z</time></trkpt><trkpt lat="46.5268143732" lon="12.2259912360"><ele>1965.07</ele><time>2013-07-24T09:42:17Z</time></trkpt><trkpt lat="46.5268587135" lon="12.2260975186"><ele>1964.11</ele><time>2013-07-24T09:42:25Z</time></trkpt><trkpt lat="46.5269098431" lon="12.2261763085"><ele>1962.19</ele><time>2013-07-24T09:42:34Z</time></trkpt><trkpt lat="46.5268960129" lon="12.2262528352"><ele>1960.27</ele><time>2013-07-24T09:42:43Z</time></trkpt><trkpt lat="46.5268802550" lon="12.2262561880"><ele>1959.30</ele><time>2013-07-24T09:42:51Z</time></trkpt><trkpt lat="46.5268644970" lon="12.2262727842"><ele>1956.90</ele><time>2013-07-24T09:43:01Z</time></trkpt><trkpt lat="46.5268597193" lon="12.2263148613"><ele>1955.46</ele><time>2013-07-24T09:43:06Z</time></trkpt><trkpt lat="46.5268508345" lon="12.2263488919"><ele>1954.02</ele><time>2013-07-24T09:43:14Z</time></trkpt><trkpt lat="46.5268095117" lon="12.2263680026"><ele>1952.09</ele><time>2013-07-24T09:43:24Z</time></trkpt><trkpt lat="46.5267859586" lon="12.2263600398"><ele>1950.65</ele><time>2013-07-24T09:43:32Z</time></trkpt><trkpt lat="46.5267501678" lon="12.2263874486"><ele>1948.25</ele><time>2013-07-24T09:43:41Z</time></trkpt><trkpt lat="46.5267179813" lon="12.2263658233"><ele>1947.29</ele><time>2013-07-24T09:43:49Z</time></trkpt><trkpt lat="46.5266510099" lon="12.2263979260"><ele>1945.36</ele><time>2013-07-24T09:43:58Z</time></trkpt><trkpt lat="46.5266056638" lon="12.2264558449"><ele>1943.92</ele><time>2013-07-24T09:44:04Z</time></trkpt><trkpt lat="46.5265857149" lon="12.2265228163"><ele>1943.44</ele><time>2013-07-24T09:44:12Z</time></trkpt><trkpt lat="46.5265810210" lon="12.2265943140"><ele>1941.52</ele><time>2013-07-24T09:44:20Z</time></trkpt><trkpt lat="46.5266031493" lon="12.2266294342"><ele>1940.08</ele><time>2013-07-24T09:44:28Z</time></trkpt><trkpt lat="46.5266082622" lon="12.2266679071"><ele>1938.64</ele><time>2013-07-24T09:44:32Z</time></trkpt><trkpt lat="46.5266437177" lon="12.2266860958"><ele>1937.67</ele><time>2013-07-24T09:44:42Z</time></trkpt><trkpt lat="46.5266588889" lon="12.2267149296"><ele>1936.71</ele><time>2013-07-24T09:44:50Z</time></trkpt><trkpt lat="46.5266780835" lon="12.2267284244"><ele>1935.27</ele><time>2013-07-24T09:44:57Z</time></trkpt><trkpt lat="46.5266908240" lon="12.2267727647"><ele>1934.79</ele><time>2013-07-24T09:45:06Z</time></trkpt><trkpt lat="46.5266932547" lon="12.2268582601"><ele>1933.35</ele><time>2013-07-24T09:45:15Z</time></trkpt><trkpt lat="46.5266762394" lon="12.2269046120"><ele>1931.43</ele><time>2013-07-24T09:45:24Z</time></trkpt><trkpt lat="46.5266522672" lon="12.2269621119"><ele>1929.98</ele><time>2013-07-24T09:45:33Z</time></trkpt><trkpt lat="46.5266383532" lon="12.2269608546"><ele>1928.54</ele><time>2013-07-24T09:45:40Z</time></trkpt><trkpt lat="46.5266080108" lon="12.2269567475"><ele>1928.54</ele><time>2013-07-24T09:45:49Z</time></trkpt><trkpt lat="46.5265821945" lon="12.2270003334"><ele>1927.10</ele><time>2013-07-24T09:45:58Z</time></trkpt><trkpt lat="46.5265169833" lon="12.2270281613"><ele>1926.62</ele><time>2013-07-24T09:46:07Z</time></trkpt><trkpt lat="46.5264812764" lon="12.2270535585"><ele>1925.66</ele><time>2013-07-24T09:46:16Z</time></trkpt><trkpt lat="46.5264400374" lon="12.2270797100"><ele>1924.22</ele><time>2013-07-24T09:46:24Z</time></trkpt><trkpt lat="46.5263864771" lon="12.2271560691"><ele>1922.29</ele><time>2013-07-24T09:46:33Z</time></trkpt><trkpt lat="46.5263220202" lon="12.2271714080"><ele>1920.85</ele><time>2013-07-24T09:46:43Z</time></trkpt><trkpt lat="46.5262661967" lon="12.2272118088"><ele>1918.93</ele><time>2013-07-24T09:46:51Z</time></trkpt><trkpt lat="46.5262357704" lon="12.2272618487"><ele>1918.45</ele><time>2013-07-24T09:46:54Z</time></trkpt><trkpt lat="46.5261646919" lon="12.2273138165"><ele>1917.97</ele><time>2013-07-24T09:47:03Z</time></trkpt><trkpt lat="46.5260834713" lon="12.2273789439"><ele>1917.01</ele><time>2013-07-24T09:47:13Z</time></trkpt><trkpt lat="46.5260742512" lon="12.2273924388"><ele>1916.04</ele><time>2013-07-24T09:47:16Z</time></trkpt><trkpt lat="46.5260496084" lon="12.2274133097"><ele>1917.01</ele><time>2013-07-24T09:47:21Z</time></trkpt><trkpt lat="46.5259932820" lon="12.2274401318"><ele>1916.53</ele><time>2013-07-24T09:47:29Z</time></trkpt><trkpt lat="46.5258989017" lon="12.2274762578"><ele>1916.53</ele><time>2013-07-24T09:47:40Z</time></trkpt><trkpt lat="46.5257942956" lon="12.2274828795"><ele>1915.56</ele><time>2013-07-24T09:47:49Z</time></trkpt><trkpt lat="46.5257290006" lon="12.2274950333"><ele>1915.08</ele><time>2013-07-24T09:47:59Z</time></trkpt><trkpt lat="46.5256983228" lon="12.2275154851"><ele>1914.60</ele><time>2013-07-24T09:48:08Z</time></trkpt><trkpt lat="46.5256342012" lon="12.2275609989"><ele>1914.60</ele><time>2013-07-24T09:48:17Z</time></trkpt><trkpt lat="46.5256291721" lon="12.2275660280"><ele>1913.64</ele><time>2013-07-24T09:48:20Z</time></trkpt><trkpt lat="46.5256140847" lon="12.2275859769"><ele>1914.12</ele><time>2013-07-24T09:48:22Z</time></trkpt><trkpt lat="46.5255968180" lon="12.2276852187"><ele>1913.16</ele><time>2013-07-24T09:48:32Z</time></trkpt><trkpt lat="46.5255866759" lon="12.2276665270"><ele>1912.68</ele><time>2013-07-24T09:48:35Z</time></trkpt><trkpt lat="46.5255568363" lon="12.2276787646"><ele>1912.20</ele><time>2013-07-24T09:48:40Z</time></trkpt><trkpt lat="46.5255080536" lon="12.2277349234"><ele>1911.24</ele><time>2013-07-24T09:48:47Z</time></trkpt><trkpt lat="46.5254824888" lon="12.2277588118"><ele>1909.32</ele><time>2013-07-24T09:48:56Z</time></trkpt><trkpt lat="46.5254231449" lon="12.2277695406"><ele>1907.87</ele><time>2013-07-24T09:49:05Z</time></trkpt><trkpt lat="46.5253930539" lon="12.2277372703"><ele>1906.91</ele><time>2013-07-24T09:49:10Z</time></trkpt><trkpt lat="46.5253860969" lon="12.2277340852"><ele>1907.39</ele><time>2013-07-24T09:49:11Z</time></trkpt><trkpt lat="46.5253098216" lon="12.2276699636"><ele>1904.99</ele><time>2013-07-24T09:49:22Z</time></trkpt><trkpt lat="46.5253289323" lon="12.2276065126"><ele>1902.59</ele><time>2013-07-24T09:49:31Z</time></trkpt><trkpt lat="46.5253208857" lon="12.2276234441"><ele>1902.59</ele><time>2013-07-24T09:49:35Z</time></trkpt><trkpt lat="46.5253105760" lon="12.2276386991"><ele>1902.11</ele><time>2013-07-24T09:49:37Z</time></trkpt><trkpt lat="46.5252488852" lon="12.2276792675"><ele>1901.14</ele><time>2013-07-24T09:49:45Z</time></trkpt><trkpt lat="46.5252635535" lon="12.2277109511"><ele>1901.14</ele><time>2013-07-24T09:49:50Z</time></trkpt><trkpt lat="46.5252105799" lon="12.2277223505"><ele>1900.66</ele><time>2013-07-24T09:50:01Z</time></trkpt><trkpt lat="46.5251402557" lon="12.2276966181"><ele>1901.14</ele><time>2013-07-24T09:50:06Z</time></trkpt><trkpt lat="46.5250664111" lon="12.2275998071"><ele>1901.14</ele><time>2013-07-24T09:50:15Z</time></trkpt><trkpt lat="46.5249789879" lon="12.2275334224"><ele>1902.11</ele><time>2013-07-24T09:50:24Z</time></trkpt><trkpt lat="46.5248743817" lon="12.2274506930"><ele>1903.07</ele><time>2013-07-24T09:50:35Z</time></trkpt><trkpt lat="46.5248387586" lon="12.2274387069"><ele>1902.59</ele><time>2013-07-24T09:50:38Z</time></trkpt><trkpt lat="46.5248125233" lon="12.2273929417"><ele>1902.59</ele><time>2013-07-24T09:50:43Z</time></trkpt><trkpt lat="46.5247148741" lon="12.2273263894"><ele>1903.07</ele><time>2013-07-24T09:50:55Z</time></trkpt><trkpt lat="46.5247027203" lon="12.2273128107"><ele>1903.07</ele><time>2013-07-24T09:50:57Z</time></trkpt><trkpt lat="46.5246361680" lon="12.2272747569"><ele>1903.55</ele><time>2013-07-24T09:51:08Z</time></trkpt><trkpt lat="46.5245329030" lon="12.2272991482"><ele>1904.03</ele><time>2013-07-24T09:51:13Z</time></trkpt><trkpt lat="46.5243071783" lon="12.2272968013"><ele>1904.03</ele><time>2013-07-24T09:51:23Z</time></trkpt><trkpt lat="46.5242647659" lon="12.2272701468"><ele>1904.03</ele><time>2013-07-24T09:51:28Z</time></trkpt><trkpt lat="46.5242332499" lon="12.2272319254"><ele>1904.03</ele><time>2013-07-24T09:51:32Z</time></trkpt><trkpt lat="46.5241958667" lon="12.2272047680"><ele>1904.99</ele><time>2013-07-24T09:51:37Z</time></trkpt><trkpt lat="46.5241093654" lon="12.2271844000"><ele>1905.47</ele><time>2013-07-24T09:51:45Z</time></trkpt><trkpt lat="46.5240816213" lon="12.2271670494"><ele>1906.43</ele><time>2013-07-24T09:51:48Z</time></trkpt><trkpt lat="46.5239935275" lon="12.2271689773"><ele>1908.83</ele><time>2013-07-24T09:51:59Z</time></trkpt><trkpt lat="46.5239993110" lon="12.2271338571"><ele>1909.32</ele><time>2013-07-24T09:52:12Z</time></trkpt><trkpt lat="46.5240124706" lon="12.2270321008"><ele>1911.24</ele><time>2013-07-24T09:52:23Z</time></trkpt><trkpt lat="46.5239974670" lon="12.2270008363"><ele>1911.72</ele><time>2013-07-24T09:52:31Z</time></trkpt><trkpt lat="46.5239716507" lon="12.2269687336"><ele>1914.12</ele><time>2013-07-24T09:52:40Z</time></trkpt><trkpt lat="46.5239220299" lon="12.2269709129"><ele>1914.60</ele><time>2013-07-24T09:52:51Z</time></trkpt><trkpt lat="46.5238521248" lon="12.2269985732"><ele>1915.56</ele><time>2013-07-24T09:53:03Z</time></trkpt><trkpt lat="46.5237802919" lon="12.2269926220"><ele>1915.56</ele><time>2013-07-24T09:53:12Z</time></trkpt><trkpt lat="46.5237554815" lon="12.2269280814"><ele>1916.04</ele><time>2013-07-24T09:53:20Z</time></trkpt><trkpt lat="46.5237565711" lon="12.2268953919"><ele>1916.53</ele><time>2013-07-24T09:53:23Z</time></trkpt><trkpt lat="46.5237084590" lon="12.2268540692"><ele>1917.01</ele><time>2013-07-24T09:53:33Z</time></trkpt><trkpt lat="46.5236615203" lon="12.2268150095"><ele>1918.45</ele><time>2013-07-24T09:53:43Z</time></trkpt><trkpt lat="46.5236595925" lon="12.2267707530"><ele>1918.45</ele><time>2013-07-24T09:53:48Z</time></trkpt><trkpt lat="46.5236830618" lon="12.2267063800"><ele>1917.97</ele><time>2013-07-24T09:53:55Z</time></trkpt><trkpt lat="46.5236429963" lon="12.2267085593"><ele>1918.45</ele><time>2013-07-24T09:53:59Z</time></trkpt><trkpt lat="46.5235657152" lon="12.2266591061"><ele>1917.97</ele><time>2013-07-24T09:54:07Z</time></trkpt><trkpt lat="46.5235189442" lon="12.2266138438"><ele>1918.93</ele><time>2013-07-24T09:54:16Z</time></trkpt><trkpt lat="46.5234921221" lon="12.2266059648"><ele>1919.41</ele><time>2013-07-24T09:54:21Z</time></trkpt><trkpt lat="46.5234435908" lon="12.2266890295"><ele>1919.41</ele><time>2013-07-24T09:54:28Z</time></trkpt><trkpt lat="46.5233494621" lon="12.2266911250"><ele>1919.89</ele><time>2013-07-24T09:54:36Z</time></trkpt><trkpt lat="46.5233179461" lon="12.2266450245"><ele>1919.89</ele><time>2013-07-24T09:54:40Z</time></trkpt><trkpt lat="46.5233053733" lon="12.2266217228"><ele>1920.37</ele><time>2013-07-24T09:54:42Z</time></trkpt><trkpt lat="46.5232794732" lon="12.2266002651"><ele>1919.89</ele><time>2013-07-24T09:54:45Z</time></trkpt><trkpt lat="46.5232373122" lon="12.2265529074"><ele>1920.85</ele><time>2013-07-24T09:54:51Z</time></trkpt><trkpt lat="46.5231814887" lon="12.2265080642"><ele>1921.33</ele><time>2013-07-24T09:54:57Z</time></trkpt><trkpt lat="46.5231579356" lon="12.2265051305"><ele>1921.33</ele><time>2013-07-24T09:54:59Z</time></trkpt><trkpt lat="46.5231108293" lon="12.2264988441"><ele>1922.29</ele><time>2013-07-24T09:55:03Z</time></trkpt><trkpt lat="46.5230924729" lon="12.2264840081"><ele>1922.29</ele><time>2013-07-24T09:55:05Z</time></trkpt><trkpt lat="46.5230111685" lon="12.2264392488"><ele>1923.74</ele><time>2013-07-24T09:55:15Z</time></trkpt><trkpt lat="46.5229690913" lon="12.2264171205"><ele>1924.22</ele><time>2013-07-24T09:55:20Z</time></trkpt><trkpt lat="46.5229369048" lon="12.2264058888"><ele>1924.22</ele><time>2013-07-24T09:55:23Z</time></trkpt><trkpt lat="46.5228930674" lon="12.2263904661"><ele>1924.70</ele><time>2013-07-24T09:55:27Z</time></trkpt><trkpt lat="46.5228433628" lon="12.2263581119"><ele>1925.66</ele><time>2013-07-24T09:55:34Z</time></trkpt><trkpt lat="46.5228291135" lon="12.2262920626"><ele>1926.62</ele><time>2013-07-24T09:55:43Z</time></trkpt><trkpt lat="46.5228180494" lon="12.2262486443"><ele>1927.58</ele><time>2013-07-24T09:55:50Z</time></trkpt><trkpt lat="46.5227867849" lon="12.2261629812"><ele>1928.06</ele><time>2013-07-24T09:56:00Z</time></trkpt><trkpt lat="46.5227643214" lon="12.2261197306"><ele>1929.50</ele><time>2013-07-24T09:56:09Z</time></trkpt><trkpt lat="46.5227530058" lon="12.2260682657"><ele>1930.46</ele><time>2013-07-24T09:56:19Z</time></trkpt><trkpt lat="46.5227488987" lon="12.2260216624"><ele>1931.91</ele><time>2013-07-24T09:56:27Z</time></trkpt><trkpt lat="46.5227136109" lon="12.2259863745"><ele>1933.83</ele><time>2013-07-24T09:56:36Z</time></trkpt><trkpt lat="46.5227048099" lon="12.2259033937"><ele>1934.79</ele><time>2013-07-24T09:56:45Z</time></trkpt><trkpt lat="46.5226552729" lon="12.2258437146"><ele>1935.27</ele><time>2013-07-24T09:56:54Z</time></trkpt><trkpt lat="46.5226499084" lon="12.2258121148"><ele>1936.23</ele><time>2013-07-24T09:57:02Z</time></trkpt><trkpt lat="46.5226796642" lon="12.2257625777"><ele>1936.71</ele><time>2013-07-24T09:57:19Z</time></trkpt><trkpt lat="46.5226678457" lon="12.2257235181"><ele>1936.71</ele><time>2013-07-24T09:57:31Z</time></trkpt><trkpt lat="46.5226130281" lon="12.2256559599"><ele>1937.19</ele><time>2013-07-24T09:57:39Z</time></trkpt><trkpt lat="46.5225225873" lon="12.2256211750"><ele>1938.16</ele><time>2013-07-24T09:57:49Z</time></trkpt><trkpt lat="46.5225091763" lon="12.2256115358"><ele>1937.67</ele><time>2013-07-24T09:57:51Z</time></trkpt><trkpt lat="46.5224029776" lon="12.2256393638"><ele>1938.16</ele><time>2013-07-24T09:57:58Z</time></trkpt><trkpt lat="46.5223462321" lon="12.2256268747"><ele>1938.64</ele><time>2013-07-24T09:58:06Z</time></trkpt><trkpt lat="46.5222544502" lon="12.2256405372"><ele>1940.56</ele><time>2013-07-24T09:58:16Z</time></trkpt><trkpt lat="46.5221816115" lon="12.2256110329"><ele>1939.60</ele><time>2013-07-24T09:58:26Z</time></trkpt><trkpt lat="46.5221210103" lon="12.2255992144"><ele>1939.60</ele><time>2013-07-24T09:58:37Z</time></trkpt><trkpt lat="46.5221189987" lon="12.2255946044"><ele>1940.56</ele><time>2013-07-24T09:58:38Z</time></trkpt><trkpt lat="46.5221132990" lon="12.2255935147"><ele>1941.04</ele><time>2013-07-24T09:58:44Z</time></trkpt><trkpt lat="46.5221125446" lon="12.2255419660"><ele>1941.52</ele><time>2013-07-24T09:58:52Z</time></trkpt><trkpt lat="46.5220802743" lon="12.2255265433"><ele>1942.96</ele><time>2013-07-24T09:58:57Z</time></trkpt><trkpt lat="46.5220532008" lon="12.2255116235"><ele>1943.92</ele><time>2013-07-24T09:59:02Z</time></trkpt><trkpt lat="46.5219780989" lon="12.2254868131"><ele>1945.85</ele><time>2013-07-24T09:59:10Z</time></trkpt><trkpt lat="46.5219464991" lon="12.2254257929"><ele>1946.81</ele><time>2013-07-24T09:59:18Z</time></trkpt><trkpt lat="46.5218886640" lon="12.2253657784"><ele>1948.25</ele><time>2013-07-24T09:59:26Z</time></trkpt><trkpt lat="46.5218534600" lon="12.2252864856"><ele>1947.77</ele><time>2013-07-24T09:59:34Z</time></trkpt><trkpt lat="46.5217868239" lon="12.2252612561"><ele>1948.73</ele><time>2013-07-24T09:59:42Z</time></trkpt><trkpt lat="46.5217636060" lon="12.2252448276"><ele>1949.69</ele><time>2013-07-24T09:59:51Z</time></trkpt><trkpt lat="46.5217089560" lon="12.2252030857"><ele>1950.17</ele><time>2013-07-24T09:59:57Z</time></trkpt><trkpt lat="46.5216923598" lon="12.2251811251"><ele>1950.65</ele><time>2013-07-24T09:59:59Z</time></trkpt><trkpt lat="46.5216138214" lon="12.2251047660"><ele>1950.17</ele><time>2013-07-24T10:00:06Z</time></trkpt><trkpt lat="46.5214984864" lon="12.2250555642"><ele>1951.13</ele><time>2013-07-24T10:00:15Z</time></trkpt><trkpt lat="46.5214024298" lon="12.2250177618"><ele>1952.09</ele><time>2013-07-24T10:00:23Z</time></trkpt><trkpt lat="46.5213803016" lon="12.2249971423"><ele>1952.09</ele><time>2013-07-24T10:00:29Z</time></trkpt><trkpt lat="46.5213237237" lon="12.2249682248"><ele>1951.61</ele><time>2013-07-24T10:00:39Z</time></trkpt><trkpt lat="46.5213237237" lon="12.2249682248"><ele>1951.61</ele><time>2013-07-24T10:00:54Z</time></trkpt><trkpt lat="46.5213165153" lon="12.2249659617"><ele>1952.09</ele><time>2013-07-24T10:01:10Z</time></trkpt><trkpt lat="46.5213165153" lon="12.2249659617"><ele>1952.09</ele><time>2013-07-24T10:01:27Z</time></trkpt><trkpt lat="46.5213126596" lon="12.2249569930"><ele>1952.57</ele><time>2013-07-24T10:01:38Z</time></trkpt><trkpt lat="46.5213028528" lon="12.2249598429"><ele>1953.54</ele><time>2013-07-24T10:01:46Z</time></trkpt><trkpt lat="46.5212925430" lon="12.2249759361"><ele>1953.06</ele><time>2013-07-24T10:01:55Z</time></trkpt><trkpt lat="46.5212925430" lon="12.2249759361"><ele>1954.02</ele><time>2013-07-24T10:02:17Z</time></trkpt><trkpt lat="46.5212898608" lon="12.2249736730"><ele>1953.54</ele><time>2013-07-24T10:02:35Z</time></trkpt><trkpt lat="46.5212898608" lon="12.2249736730"><ele>1954.50</ele><time>2013-07-24T10:02:56Z</time></trkpt><trkpt lat="46.5212661400" lon="12.2249679733"><ele>1954.98</ele><time>2013-07-24T10:03:21Z</time></trkpt><trkpt lat="46.5212661400" lon="12.2249679733"><ele>1955.46</ele><time>2013-07-24T10:03:44Z</time></trkpt><trkpt lat="46.5212462749" lon="12.2249590047"><ele>1955.46</ele><time>2013-07-24T10:04:04Z</time></trkpt><trkpt lat="46.5212462749" lon="12.2249590047"><ele>1955.94</ele><time>2013-07-24T10:04:25Z</time></trkpt><trkpt lat="46.5211970732" lon="12.2249315120"><ele>1956.42</ele><time>2013-07-24T10:04:35Z</time></trkpt><trkpt lat="46.5211171936" lon="12.2248739284"><ele>1957.38</ele><time>2013-07-24T10:04:45Z</time></trkpt><trkpt lat="46.5211238153" lon="12.2248725034"><ele>1957.38</ele><time>2013-07-24T10:04:51Z</time></trkpt><trkpt lat="46.5211386513" lon="12.2248871718"><ele>1956.42</ele><time>2013-07-24T10:04:59Z</time></trkpt><trkpt lat="46.5211535711" lon="12.2248911113"><ele>1955.94</ele><time>2013-07-24T10:05:01Z</time></trkpt><trkpt lat="46.5211801417" lon="12.2249392234"><ele>1955.94</ele><time>2013-07-24T10:05:06Z</time></trkpt><trkpt lat="46.5211907867" lon="12.2249579150"><ele>1955.94</ele><time>2013-07-24T10:05:08Z</time></trkpt><trkpt lat="46.5212731808" lon="12.2250555642"><ele>1955.94</ele><time>2013-07-24T10:05:19Z</time></trkpt><trkpt lat="46.5213057026" lon="12.2250785306"><ele>1954.98</ele><time>2013-07-24T10:05:24Z</time></trkpt><trkpt lat="46.5213265736" lon="12.2250741720"><ele>1954.02</ele><time>2013-07-24T10:05:27Z</time></trkpt><trkpt lat="46.5214111470" lon="12.2251776885"><ele>1954.50</ele><time>2013-07-24T10:05:37Z</time></trkpt><trkpt lat="46.5214475244" lon="12.2252000682"><ele>1954.02</ele><time>2013-07-24T10:05:41Z</time></trkpt><trkpt lat="46.5214795433" lon="12.2253024951"><ele>1952.57</ele><time>2013-07-24T10:05:48Z</time></trkpt><trkpt lat="46.5214980673" lon="12.2253223602"><ele>1951.61</ele><time>2013-07-24T10:05:51Z</time></trkpt><trkpt lat="46.5215548966" lon="12.2254257929"><ele>1949.69</ele><time>2013-07-24T10:06:01Z</time></trkpt><trkpt lat="46.5215596743" lon="12.2254496813"><ele>1948.25</ele><time>2013-07-24T10:06:08Z</time></trkpt><trkpt lat="46.5215947106" lon="12.2254815325"><ele>1947.29</ele><time>2013-07-24T10:06:17Z</time></trkpt><trkpt lat="46.5215947106" lon="12.2254815325"><ele>1947.77</ele><time>2013-07-24T10:06:24Z</time></trkpt><trkpt lat="46.5216241311" lon="12.2255221847"><ele>1947.77</ele><time>2013-07-24T10:06:32Z</time></trkpt><trkpt lat="46.5216356143" lon="12.2255154792"><ele>1947.77</ele><time>2013-07-24T10:06:42Z</time></trkpt><trkpt lat="46.5216373745" lon="12.2255205084"><ele>1947.77</ele><time>2013-07-24T10:06:49Z</time></trkpt><trkpt lat="46.5216549765" lon="12.2255023196"><ele>1947.77</ele><time>2013-07-24T10:06:58Z</time></trkpt><trkpt lat="46.5216779429" lon="12.2255262081"><ele>1947.29</ele><time>2013-07-24T10:07:02Z</time></trkpt><trkpt lat="46.5217547212" lon="12.2255519405"><ele>1947.29</ele><time>2013-07-24T10:07:07Z</time></trkpt><trkpt lat="46.5218454134" lon="12.2256857995"><ele>1948.73</ele><time>2013-07-24T10:07:17Z</time></trkpt><trkpt lat="46.5218642727" lon="12.2257644217"><ele>1949.21</ele><time>2013-07-24T10:07:25Z</time></trkpt><trkpt lat="46.5218960401" lon="12.2258756496"><ele>1950.65</ele><time>2013-07-24T10:07:34Z</time></trkpt><trkpt lat="46.5218934417" lon="12.2259769868"><ele>1952.57</ele><time>2013-07-24T10:07:43Z</time></trkpt><trkpt lat="46.5218831319" lon="12.2260064073"><ele>1953.54</ele><time>2013-07-24T10:07:51Z</time></trkpt><trkpt lat="46.5218216088" lon="12.2260741331"><ele>1954.50</ele><time>2013-07-24T10:08:01Z</time></trkpt><trkpt lat="46.5218284819" lon="12.2260989435"><ele>1954.02</ele><time>2013-07-24T10:08:05Z</time></trkpt><trkpt lat="46.5218443237" lon="12.2261660825"><ele>1954.50</ele><time>2013-07-24T10:08:11Z</time></trkpt><trkpt lat="46.5218593273" lon="12.2262551822"><ele>1955.46</ele><time>2013-07-24T10:08:22Z</time></trkpt><trkpt lat="46.5218585730" lon="12.2262701020"><ele>1955.46</ele><time>2013-07-24T10:08:23Z</time></trkpt><trkpt lat="46.5218570642" lon="12.2263426892"><ele>1955.94</ele><time>2013-07-24T10:08:27Z</time></trkpt><trkpt lat="46.5218517836" lon="12.2265023645"><ele>1956.42</ele><time>2013-07-24T10:08:38Z</time></trkpt><trkpt lat="46.5218351875" lon="12.2265759576"><ele>1956.42</ele><time>2013-07-24T10:08:47Z</time></trkpt><trkpt lat="46.5218351875" lon="12.2265759576"><ele>1954.98</ele><time>2013-07-24T10:09:05Z</time></trkpt><trkpt lat="46.5218343493" lon="12.2265772149"><ele>1954.50</ele><time>2013-07-24T10:09:25Z</time></trkpt><trkpt lat="46.5218343493" lon="12.2265772149"><ele>1954.02</ele><time>2013-07-24T10:09:46Z</time></trkpt><trkpt lat="46.5218332596" lon="12.2265795618"><ele>1954.02</ele><time>2013-07-24T10:10:10Z</time></trkpt><trkpt lat="46.5218332596" lon="12.2265795618"><ele>1954.02</ele><time>2013-07-24T10:10:31Z</time></trkpt><trkpt lat="46.5218316671" lon="12.2265803162"><ele>1954.02</ele><time>2013-07-24T10:10:49Z</time></trkpt><trkpt lat="46.5218316671" lon="12.2265803162"><ele>1953.54</ele><time>2013-07-24T10:11:13Z</time></trkpt><trkpt lat="46.5218294039" lon="12.2265855130"><ele>1953.54</ele><time>2013-07-24T10:11:35Z</time></trkpt><trkpt lat="46.5218294039" lon="12.2265855130"><ele>1953.06</ele><time>2013-07-24T10:11:55Z</time></trkpt><trkpt lat="46.5218257997" lon="12.2265857644"><ele>1953.06</ele><time>2013-07-24T10:12:19Z</time></trkpt><trkpt lat="46.5218245424" lon="12.2265883628"><ele>1953.06</ele><time>2013-07-24T10:12:44Z</time></trkpt><trkpt lat="46.5218245424" lon="12.2265883628"><ele>1953.06</ele><time>2013-07-24T10:13:07Z</time></trkpt><trkpt lat="46.5218231175" lon="12.2265904583"><ele>1952.57</ele><time>2013-07-24T10:13:32Z</time></trkpt><trkpt lat="46.5218231175" lon="12.2265904583"><ele>1952.57</ele><time>2013-07-24T10:13:53Z</time></trkpt><trkpt lat="46.5218192618" lon="12.2265897039"><ele>1952.57</ele><time>2013-07-24T10:14:15Z</time></trkpt><trkpt lat="46.5218192618" lon="12.2265897039"><ele>1952.57</ele><time>2013-07-24T10:14:39Z</time></trkpt><trkpt lat="46.5218168311" lon="12.2265912965"><ele>1952.09</ele><time>2013-07-24T10:15:03Z</time></trkpt><trkpt lat="46.5218149871" lon="12.2265989240"><ele>1952.09</ele><time>2013-07-24T10:15:27Z</time></trkpt><trkpt lat="46.5218149871" lon="12.2265989240"><ele>1951.61</ele><time>2013-07-24T10:15:51Z</time></trkpt><trkpt lat="46.5218089521" lon="12.2266033664"><ele>1952.09</ele><time>2013-07-24T10:16:13Z</time></trkpt><trkpt lat="46.5218089521" lon="12.2266033664"><ele>1951.61</ele><time>2013-07-24T10:16:36Z</time></trkpt><trkpt lat="46.5218095388" lon="12.2266067192"><ele>1952.09</ele><time>2013-07-24T10:17:01Z</time></trkpt><trkpt lat="46.5218036715" lon="12.2266073059"><ele>1951.61</ele><time>2013-07-24T10:17:25Z</time></trkpt><trkpt lat="46.5218036715" lon="12.2266073059"><ele>1951.13</ele><time>2013-07-24T10:17:52Z</time></trkpt><trkpt lat="46.5218027495" lon="12.2266088147"><ele>1950.65</ele><time>2013-07-24T10:18:17Z</time></trkpt><trkpt lat="46.5217995644" lon="12.2266082279"><ele>1950.65</ele><time>2013-07-24T10:18:45Z</time></trkpt><trkpt lat="46.5217995644" lon="12.2266082279"><ele>1951.13</ele><time>2013-07-24T10:19:09Z</time></trkpt><trkpt lat="46.5217940323" lon="12.2266135085"><ele>1950.17</ele><time>2013-07-24T10:19:37Z</time></trkpt><trkpt lat="46.5217940323" lon="12.2266135085"><ele>1949.69</ele><time>2013-07-24T10:20:02Z</time></trkpt><trkpt lat="46.5217927750" lon="12.2266164422"><ele>1950.17</ele><time>2013-07-24T10:20:27Z</time></trkpt><trkpt lat="46.5217918530" lon="12.2266180348"><ele>1949.69</ele><time>2013-07-24T10:20:52Z</time></trkpt><trkpt lat="46.5217918530" lon="12.2266180348"><ele>1948.73</ele><time>2013-07-24T10:21:18Z</time></trkpt><trkpt lat="46.5217891708" lon="12.2266192921"><ele>1948.73</ele><time>2013-07-24T10:21:39Z</time></trkpt><trkpt lat="46.5217891708" lon="12.2266192921"><ele>1949.21</ele><time>2013-07-24T10:22:03Z</time></trkpt><trkpt lat="46.5217857342" lon="12.2266213875"><ele>1948.73</ele><time>2013-07-24T10:22:26Z</time></trkpt><trkpt lat="46.5217846446" lon="12.2266290989"><ele>1948.73</ele><time>2013-07-24T10:22:46Z</time></trkpt><trkpt lat="46.5217832197" lon="12.2266348824"><ele>1949.69</ele><time>2013-07-24T10:23:05Z</time></trkpt><trkpt lat="46.5217615105" lon="12.2266447730"><ele>1949.21</ele><time>2013-07-24T10:23:14Z</time></trkpt><trkpt lat="46.5217599180" lon="12.2266415041"><ele>1949.21</ele><time>2013-07-24T10:23:27Z</time></trkpt><trkpt lat="46.5217576548" lon="12.2266477067"><ele>1948.73</ele><time>2013-07-24T10:23:39Z</time></trkpt><trkpt lat="46.5217311680" lon="12.2266600281"><ele>1949.21</ele><time>2013-07-24T10:23:48Z</time></trkpt><trkpt lat="46.5217224509" lon="12.2266648896"><ele>1949.21</ele><time>2013-07-24T10:23:49Z</time></trkpt><trkpt lat="46.5217063576" lon="12.2266836651"><ele>1949.21</ele><time>2013-07-24T10:23:51Z</time></trkpt><trkpt lat="46.5216626041" lon="12.2266987525"><ele>1949.69</ele><time>2013-07-24T10:24:01Z</time></trkpt><trkpt lat="46.5218076948" lon="12.2266658116"><ele>1948.25</ele><time>2013-07-24T10:24:41Z</time></trkpt><trkpt lat="46.5217083693" lon="12.2267627064"><ele>1948.73</ele><time>2013-07-24T11:21:40Z</time></trkpt><trkpt lat="46.5217004903" lon="12.2267420031"><ele>1947.77</ele><time>2013-07-24T11:21:53Z</time></trkpt><trkpt lat="46.5216957126" lon="12.2267602757"><ele>1948.25</ele><time>2013-07-24T11:22:19Z</time></trkpt><trkpt lat="46.5216940362" lon="12.2267103195"><ele>1948.25</ele><time>2013-07-24T11:22:40Z</time></trkpt><trkpt lat="46.5216899291" lon="12.2266783845"><ele>1948.73</ele><time>2013-07-24T11:22:57Z</time></trkpt><trkpt lat="46.5217109676" lon="12.2265498899"><ele>1949.21</ele><time>2013-07-24T11:23:06Z</time></trkpt><trkpt lat="46.5216888394" lon="12.2264254186"><ele>1947.77</ele><time>2013-07-24T11:23:15Z</time></trkpt><trkpt lat="46.5216845647" lon="12.2264045477"><ele>1947.77</ele><time>2013-07-24T11:23:18Z</time></trkpt><trkpt lat="46.5216814633" lon="12.2263590340"><ele>1947.29</ele><time>2013-07-24T11:23:21Z</time></trkpt><trkpt lat="46.5216543898" lon="12.2262979299"><ele>1946.33</ele><time>2013-07-24T11:23:26Z</time></trkpt><trkpt lat="46.5216501988" lon="12.2262329701"><ele>1946.81</ele><time>2013-07-24T11:23:31Z</time></trkpt><trkpt lat="46.5217716526" lon="12.2261250950"><ele>1945.85</ele><time>2013-07-24T11:23:43Z</time></trkpt><trkpt lat="46.5218131430" lon="12.2259831056"><ele>1943.44</ele><time>2013-07-24T11:23:55Z</time></trkpt><trkpt lat="46.5218340978" lon="12.2258982807"><ele>1942.00</ele><time>2013-07-24T11:24:03Z</time></trkpt><trkpt lat="46.5218358580" lon="12.2258856241"><ele>1941.52</ele><time>2013-07-24T11:24:04Z</time></trkpt><trkpt lat="46.5217925236" lon="12.2257887293"><ele>1940.08</ele><time>2013-07-24T11:24:14Z</time></trkpt><trkpt lat="46.5217882488" lon="12.2257791739"><ele>1940.08</ele><time>2013-07-24T11:24:18Z</time></trkpt><trkpt lat="46.5217400528" lon="12.2257297207"><ele>1939.12</ele><time>2013-07-24T11:24:24Z</time></trkpt><trkpt lat="46.5217284020" lon="12.2256752383"><ele>1939.12</ele><time>2013-07-24T11:24:27Z</time></trkpt><trkpt lat="46.5217442438" lon="12.2256376036"><ele>1938.64</ele><time>2013-07-24T11:24:29Z</time></trkpt><trkpt lat="46.5218206029" lon="12.2256109491"><ele>1938.64</ele><time>2013-07-24T11:24:36Z</time></trkpt><trkpt lat="46.5219201799" lon="12.2256566305"><ele>1938.64</ele><time>2013-07-24T11:24:45Z</time></trkpt><trkpt lat="46.5219598264" lon="12.2256895714"><ele>1939.12</ele><time>2013-07-24T11:24:52Z</time></trkpt><trkpt lat="46.5220014006" lon="12.2257643379"><ele>1938.64</ele><time>2013-07-24T11:25:00Z</time></trkpt><trkpt lat="46.5220224392" lon="12.2258072533"><ele>1938.16</ele><time>2013-07-24T11:25:03Z</time></trkpt><trkpt lat="46.5220389515" lon="12.2258262802"><ele>1938.64</ele><time>2013-07-24T11:25:05Z</time></trkpt><trkpt lat="46.5220656060" lon="12.2258792538"><ele>1937.67</ele><time>2013-07-24T11:25:09Z</time></trkpt><trkpt lat="46.5221423842" lon="12.2259625699"><ele>1936.23</ele><time>2013-07-24T11:25:20Z</time></trkpt><trkpt lat="46.5221627522" lon="12.2259935830"><ele>1934.79</ele><time>2013-07-24T11:25:28Z</time></trkpt><trkpt lat="46.5222387761" lon="12.2260577884"><ele>1932.87</ele><time>2013-07-24T11:25:39Z</time></trkpt><trkpt lat="46.5222863853" lon="12.2261098400"><ele>1932.39</ele><time>2013-07-24T11:25:45Z</time></trkpt><trkpt lat="46.5223561227" lon="12.2262210678"><ele>1930.46</ele><time>2013-07-24T11:25:56Z</time></trkpt><trkpt lat="46.5224649198" lon="12.2263032943"><ele>1929.50</ele><time>2013-07-24T11:26:08Z</time></trkpt><trkpt lat="46.5225293767" lon="12.2263692599"><ele>1928.54</ele><time>2013-07-24T11:26:17Z</time></trkpt><trkpt lat="46.5225423686" lon="12.2263928968"><ele>1928.06</ele><time>2013-07-24T11:26:19Z</time></trkpt><trkpt lat="46.5226245113" lon="12.2264276817"><ele>1927.58</ele><time>2013-07-24T11:26:26Z</time></trkpt><trkpt lat="46.5226515010" lon="12.2264477983"><ele>1927.58</ele><time>2013-07-24T11:26:28Z</time></trkpt><trkpt lat="46.5227006190" lon="12.2264908813"><ele>1927.10</ele><time>2013-07-24T11:26:32Z</time></trkpt><trkpt lat="46.5227547660" lon="12.2265011072"><ele>1926.62</ele><time>2013-07-24T11:26:37Z</time></trkpt><trkpt lat="46.5228119306" lon="12.2265469562"><ele>1926.62</ele><time>2013-07-24T11:26:42Z</time></trkpt><trkpt lat="46.5228255931" lon="12.2265782207"><ele>1926.62</ele><time>2013-07-24T11:26:44Z</time></trkpt><trkpt lat="46.5228799079" lon="12.2266014386"><ele>1926.62</ele><time>2013-07-24T11:26:50Z</time></trkpt><trkpt lat="46.5229030419" lon="12.2265812382"><ele>1926.62</ele><time>2013-07-24T11:26:52Z</time></trkpt><trkpt lat="46.5229775570" lon="12.2265286837"><ele>1926.62</ele><time>2013-07-24T11:27:00Z</time></trkpt><trkpt lat="46.5230778046" lon="12.2265813220"><ele>1926.14</ele><time>2013-07-24T11:27:10Z</time></trkpt><trkpt lat="46.5231341310" lon="12.2266576812"><ele>1926.14</ele><time>2013-07-24T11:27:18Z</time></trkpt><trkpt lat="46.5231675748" lon="12.2266680747"><ele>1926.62</ele><time>2013-07-24T11:27:21Z</time></trkpt><trkpt lat="46.5232596081" lon="12.2267097328"><ele>1926.14</ele><time>2013-07-24T11:27:31Z</time></trkpt><trkpt lat="46.5233682375" lon="12.2267109901"><ele>1925.18</ele><time>2013-07-24T11:27:42Z</time></trkpt><trkpt lat="46.5233999211" lon="12.2267149296"><ele>1925.66</ele><time>2013-07-24T11:27:45Z</time></trkpt><trkpt lat="46.5234958939" lon="12.2267656401"><ele>1924.22</ele><time>2013-07-24T11:27:54Z</time></trkpt><trkpt lat="46.5235955548" lon="12.2267953958"><ele>1923.74</ele><time>2013-07-24T11:28:02Z</time></trkpt><trkpt lat="46.5237140749" lon="12.2268272471"><ele>1922.77</ele><time>2013-07-24T11:28:13Z</time></trkpt><trkpt lat="46.5238066111" lon="12.2268180270"><ele>1922.77</ele><time>2013-07-24T11:28:21Z</time></trkpt><trkpt lat="46.5239021648" lon="12.2268543206"><ele>1920.85</ele><time>2013-07-24T11:28:31Z</time></trkpt><trkpt lat="46.5239188448" lon="12.2268579248"><ele>1919.89</ele><time>2013-07-24T11:28:33Z</time></trkpt><trkpt lat="46.5239576530" lon="12.2269255668"><ele>1918.93</ele><time>2013-07-24T11:28:42Z</time></trkpt><trkpt lat="46.5239658672" lon="12.2269857489"><ele>1917.49</ele><time>2013-07-24T11:28:49Z</time></trkpt><trkpt lat="46.5239658672" lon="12.2269857489"><ele>1917.01</ele><time>2013-07-24T11:28:50Z</time></trkpt><trkpt lat="46.5239521209" lon="12.2270144988"><ele>1915.56</ele><time>2013-07-24T11:28:59Z</time></trkpt><trkpt lat="46.5239553060" lon="12.2270273231"><ele>1915.56</ele><time>2013-07-24T11:29:10Z</time></trkpt><trkpt lat="46.5239798650" lon="12.2270181030"><ele>1914.60</ele><time>2013-07-24T11:29:15Z</time></trkpt><trkpt lat="46.5240492672" lon="12.2270407341"><ele>1913.16</ele><time>2013-07-24T11:29:24Z</time></trkpt><trkpt lat="46.5240775980" lon="12.2270639520"><ele>1912.68</ele><time>2013-07-24T11:29:27Z</time></trkpt><trkpt lat="46.5241785161" lon="12.2271344438"><ele>1912.20</ele><time>2013-07-24T11:29:38Z</time></trkpt><trkpt lat="46.5241847187" lon="12.2271370422"><ele>1912.20</ele><time>2013-07-24T11:29:39Z</time></trkpt><trkpt lat="46.5242504328" lon="12.2272048518"><ele>1912.20</ele><time>2013-07-24T11:29:48Z</time></trkpt><trkpt lat="46.5242812783" lon="12.2272106353"><ele>1912.20</ele><time>2013-07-24T11:29:50Z</time></trkpt><trkpt lat="46.5243653487" lon="12.2272463422"><ele>1912.20</ele><time>2013-07-24T11:29:57Z</time></trkpt><trkpt lat="46.5244749840" lon="12.2273285687"><ele>1911.72</ele><time>2013-07-24T11:30:09Z</time></trkpt><trkpt lat="46.5245419554" lon="12.2273841407"><ele>1911.24</ele><time>2013-07-24T11:30:17Z</time></trkpt><trkpt lat="46.5245931689" lon="12.2274442390"><ele>1910.76</ele><time>2013-07-24T11:30:21Z</time></trkpt><trkpt lat="46.5246347431" lon="12.2274842206"><ele>1910.76</ele><time>2013-07-24T11:30:26Z</time></trkpt><trkpt lat="46.5247335657" lon="12.2275649384"><ele>1911.24</ele><time>2013-07-24T11:30:34Z</time></trkpt><trkpt lat="46.5247742180" lon="12.2275906708"><ele>1910.76</ele><time>2013-07-24T11:30:38Z</time></trkpt><trkpt lat="46.5248204861" lon="12.2276456561"><ele>1910.28</ele><time>2013-07-24T11:30:42Z</time></trkpt><trkpt lat="46.5249053948" lon="12.2277652659"><ele>1910.28</ele><time>2013-07-24T11:30:52Z</time></trkpt><trkpt lat="46.5249404311" lon="12.2278360929"><ele>1908.83</ele><time>2013-07-24T11:31:02Z</time></trkpt><trkpt lat="46.5249791555" lon="12.2278574668"><ele>1908.35</ele><time>2013-07-24T11:31:13Z</time></trkpt><trkpt lat="46.5249820892" lon="12.2278576344"><ele>1908.35</ele><time>2013-07-24T11:31:14Z</time></trkpt><trkpt lat="46.5250794869" lon="12.2278908268"><ele>1909.32</ele><time>2013-07-24T11:31:24Z</time></trkpt><trkpt lat="46.5251286048" lon="12.2279209178"><ele>1907.39</ele><time>2013-07-24T11:31:34Z</time></trkpt><trkpt lat="46.5251353104" lon="12.2279322334"><ele>1907.39</ele><time>2013-07-24T11:31:35Z</time></trkpt><trkpt lat="46.5251618810" lon="12.2280170582"><ele>1906.43</ele><time>2013-07-24T11:31:46Z</time></trkpt><trkpt lat="46.5252153575" lon="12.2280744743"><ele>1905.47</ele><time>2013-07-24T11:31:56Z</time></trkpt><trkpt lat="46.5253303573" lon="12.2281832714"><ele>1904.03</ele><time>2013-07-24T11:32:08Z</time></trkpt><trkpt lat="46.5253868513" lon="12.2282726225"><ele>1903.55</ele><time>2013-07-24T11:32:18Z</time></trkpt><trkpt lat="46.5254347958" lon="12.2283387557"><ele>1903.07</ele><time>2013-07-24T11:32:27Z</time></trkpt><trkpt lat="46.5254584327" lon="12.2283921484"><ele>1902.59</ele><time>2013-07-24T11:32:40Z</time></trkpt><trkpt lat="46.5254598577" lon="12.2284050565"><ele>1902.59</ele><time>2013-07-24T11:32:50Z</time></trkpt><trkpt lat="46.5254632104" lon="12.2284313757"><ele>1901.63</ele><time>2013-07-24T11:33:02Z</time></trkpt><trkpt lat="46.5255027730" lon="12.2284774762"><ele>1901.14</ele><time>2013-07-24T11:33:12Z</time></trkpt><trkpt lat="46.5255191177" lon="12.2284884565"><ele>1900.66</ele><time>2013-07-24T11:33:20Z</time></trkpt><trkpt lat="46.5255241469" lon="12.2284998558"><ele>1900.18</ele><time>2013-07-24T11:33:29Z</time></trkpt><trkpt lat="46.5255351271" lon="12.2285138536"><ele>1900.18</ele><time>2013-07-24T11:33:39Z</time></trkpt><trkpt lat="46.5255686548" lon="12.2285523266"><ele>1898.26</ele><time>2013-07-24T11:33:48Z</time></trkpt><trkpt lat="46.5255832393" lon="12.2285573557"><ele>1898.74</ele><time>2013-07-24T11:33:57Z</time></trkpt><trkpt lat="46.5255957283" lon="12.2285633907"><ele>1897.78</ele><time>2013-07-24T11:34:06Z</time></trkpt><trkpt lat="46.5256503783" lon="12.2285742871"><ele>1896.34</ele><time>2013-07-24T11:34:15Z</time></trkpt><trkpt lat="46.5256940480" lon="12.2286117543"><ele>1895.38</ele><time>2013-07-24T11:34:24Z</time></trkpt><trkpt lat="46.5257471893" lon="12.2286283504"><ele>1896.82</ele><time>2013-07-24T11:34:34Z</time></trkpt><trkpt lat="46.5257828124" lon="12.2286327090"><ele>1898.26</ele><time>2013-07-24T11:34:42Z</time></trkpt><trkpt lat="46.5258248895" lon="12.2286122572"><ele>1899.70</ele><time>2013-07-24T11:34:50Z</time></trkpt><trkpt lat="46.5258782823" lon="12.2285678331"><ele>1900.66</ele><time>2013-07-24T11:34:59Z</time></trkpt><trkpt lat="46.5258880053" lon="12.2285684198"><ele>1901.63</ele><time>2013-07-24T11:35:02Z</time></trkpt><trkpt lat="46.5259612631" lon="12.2285612952"><ele>1901.14</ele><time>2013-07-24T11:35:12Z</time></trkpt><trkpt lat="46.5260161646" lon="12.2285689227"><ele>1901.14</ele><time>2013-07-24T11:35:23Z</time></trkpt><trkpt lat="46.5261127241" lon="12.2285409272"><ele>1901.14</ele><time>2013-07-24T11:35:33Z</time></trkpt><trkpt lat="46.5261496883" lon="12.2285350598"><ele>1901.63</ele><time>2013-07-24T11:35:38Z</time></trkpt><trkpt lat="46.5262104571" lon="12.2284934018"><ele>1902.59</ele><time>2013-07-24T11:35:47Z</time></trkpt><trkpt lat="46.5263054240" lon="12.2284708545"><ele>1902.59</ele><time>2013-07-24T11:35:53Z</time></trkpt><trkpt lat="46.5264248662" lon="12.2284085769"><ele>1903.55</ele><time>2013-07-24T11:36:03Z</time></trkpt><trkpt lat="46.5264938492" lon="12.2284069844"><ele>1904.51</ele><time>2013-07-24T11:36:11Z</time></trkpt><trkpt lat="46.5265258681" lon="12.2283841018"><ele>1905.47</ele><time>2013-07-24T11:36:21Z</time></trkpt><trkpt lat="46.5265783388" lon="12.2283792403"><ele>1905.47</ele><time>2013-07-24T11:36:30Z</time></trkpt><trkpt lat="46.5266050771" lon="12.2283764742"><ele>1906.43</ele><time>2013-07-24T11:36:37Z</time></trkpt><trkpt lat="46.5266597271" lon="12.2284220718"><ele>1905.47</ele><time>2013-07-24T11:36:46Z</time></trkpt><trkpt lat="46.5267036483" lon="12.2284745425"><ele>1905.47</ele><time>2013-07-24T11:36:56Z</time></trkpt><trkpt lat="46.5267912392" lon="12.2285406757"><ele>1905.47</ele><time>2013-07-24T11:37:07Z</time></trkpt><trkpt lat="46.5268676821" lon="12.2285668273"><ele>1905.47</ele><time>2013-07-24T11:37:16Z</time></trkpt><trkpt lat="46.5269245952" lon="12.2286138497"><ele>1904.99</ele><time>2013-07-24T11:37:22Z</time></trkpt><trkpt lat="46.5270960052" lon="12.2287327051"><ele>1904.99</ele><time>2013-07-24T11:37:32Z</time></trkpt><trkpt lat="46.5271556005" lon="12.2287583537"><ele>1905.95</ele><time>2013-07-24T11:37:35Z</time></trkpt><trkpt lat="46.5271863621" lon="12.2287493013"><ele>1906.43</ele><time>2013-07-24T11:37:38Z</time></trkpt><trkpt lat="46.5272553451" lon="12.2287298553"><ele>1906.91</ele><time>2013-07-24T11:37:43Z</time></trkpt><trkpt lat="46.5273929760" lon="12.2286648955"><ele>1906.91</ele><time>2013-07-24T11:37:55Z</time></trkpt><trkpt lat="46.5274542477" lon="12.2286472097"><ele>1907.39</ele><time>2013-07-24T11:38:01Z</time></trkpt><trkpt lat="46.5274738614" lon="12.2286278475"><ele>1907.39</ele><time>2013-07-24T11:38:03Z</time></trkpt><trkpt lat="46.5275507234" lon="12.2285860218"><ele>1906.91</ele><time>2013-07-24T11:38:12Z</time></trkpt><trkpt lat="46.5275565907" lon="12.2285802383"><ele>1906.43</ele><time>2013-07-24T11:38:13Z</time></trkpt><trkpt lat="46.5275887772" lon="12.2285824176"><ele>1905.95</ele><time>2013-07-24T11:38:16Z</time></trkpt><trkpt lat="46.5276771225" lon="12.2285949904"><ele>1905.95</ele><time>2013-07-24T11:38:26Z</time></trkpt><trkpt lat="46.5277174395" lon="12.2286135983"><ele>1905.47</ele><time>2013-07-24T11:38:30Z</time></trkpt><trkpt lat="46.5277416632" lon="12.2286148556"><ele>1905.95</ele><time>2013-07-24T11:38:32Z</time></trkpt><trkpt lat="46.5277745202" lon="12.2286236566"><ele>1905.95</ele><time>2013-07-24T11:38:35Z</time></trkpt><trkpt lat="46.5278630331" lon="12.2286357265"><ele>1906.91</ele><time>2013-07-24T11:38:46Z</time></trkpt><trkpt lat="46.5278809704" lon="12.2286501434"><ele>1906.43</ele><time>2013-07-24T11:38:48Z</time></trkpt><trkpt lat="46.5279837325" lon="12.2286538314"><ele>1907.39</ele><time>2013-07-24T11:38:58Z</time></trkpt><trkpt lat="46.5280060284" lon="12.2286457848"><ele>1908.35</ele><time>2013-07-24T11:39:02Z</time></trkpt><trkpt lat="46.5280586667" lon="12.2286702599"><ele>1908.83</ele><time>2013-07-24T11:39:11Z</time></trkpt><trkpt lat="46.5281552263" lon="12.2286462877"><ele>1909.32</ele><time>2013-07-24T11:39:21Z</time></trkpt><trkpt lat="46.5282050148" lon="12.2286477964"><ele>1910.76</ele><time>2013-07-24T11:39:30Z</time></trkpt><trkpt lat="46.5282781888" lon="12.2286298592"><ele>1912.20</ele><time>2013-07-24T11:39:40Z</time></trkpt><trkpt lat="46.5283789393" lon="12.2286228184"><ele>1913.64</ele><time>2013-07-24T11:39:50Z</time></trkpt><trkpt lat="46.5285097808" lon="12.2285991814"><ele>1914.12</ele><time>2013-07-24T11:39:58Z</time></trkpt><trkpt lat="46.5285522770" lon="12.2285861056"><ele>1913.64</ele><time>2013-07-24T11:40:02Z</time></trkpt><trkpt lat="46.5286992956" lon="12.2285642289"><ele>1913.16</ele><time>2013-07-24T11:40:12Z</time></trkpt><trkpt lat="46.5287099406" lon="12.2285623848"><ele>1913.64</ele><time>2013-07-24T11:40:13Z</time></trkpt><trkpt lat="46.5288055781" lon="12.2285360657"><ele>1913.16</ele><time>2013-07-24T11:40:21Z</time></trkpt><trkpt lat="46.5288406145" lon="12.2285456210"><ele>1913.16</ele><time>2013-07-24T11:40:24Z</time></trkpt><trkpt lat="46.5288884751" lon="12.2285555117"><ele>1912.68</ele><time>2013-07-24T11:40:29Z</time></trkpt><trkpt lat="46.5289253555" lon="12.2286462877"><ele>1911.72</ele><time>2013-07-24T11:40:36Z</time></trkpt><trkpt lat="46.5289643314" lon="12.2287136782"><ele>1911.72</ele><time>2013-07-24T11:40:44Z</time></trkpt><trkpt lat="46.5290013794" lon="12.2287223116"><ele>1911.24</ele><time>2013-07-24T11:40:48Z</time></trkpt><trkpt lat="46.5290426183" lon="12.2286848444"><ele>1911.72</ele><time>2013-07-24T11:40:52Z</time></trkpt><trkpt lat="46.5290820971" lon="12.2286796477"><ele>1910.76</ele><time>2013-07-24T11:40:59Z</time></trkpt><trkpt lat="46.5291043092" lon="12.2286822461"><ele>1910.76</ele><time>2013-07-24T11:41:01Z</time></trkpt><trkpt lat="46.5291686822" lon="12.2285921406"><ele>1911.24</ele><time>2013-07-24T11:41:07Z</time></trkpt><trkpt lat="46.5291984379" lon="12.2285586130"><ele>1911.24</ele><time>2013-07-24T11:41:09Z</time></trkpt><trkpt lat="46.5292503219" lon="12.2285306174"><ele>1911.72</ele><time>2013-07-24T11:41:13Z</time></trkpt><trkpt lat="46.5293789841" lon="12.2285100818"><ele>1911.24</ele><time>2013-07-24T11:41:24Z</time></trkpt><trkpt lat="46.5295122564" lon="12.2284855228"><ele>1912.68</ele><time>2013-07-24T11:41:35Z</time></trkpt><trkpt lat="46.5295931417" lon="12.2284824215"><ele>1912.20</ele><time>2013-07-24T11:41:43Z</time></trkpt><trkpt lat="46.5296855103" lon="12.2284942400"><ele>1913.16</ele><time>2013-07-24T11:41:53Z</time></trkpt><trkpt lat="46.5297699161" lon="12.2285060585"><ele>1913.16</ele><time>2013-07-24T11:42:01Z</time></trkpt><trkpt lat="46.5298015159" lon="12.2285121772"><ele>1912.68</ele><time>2013-07-24T11:42:04Z</time></trkpt><trkpt lat="46.5299547371" lon="12.2285116743"><ele>1913.16</ele><time>2013-07-24T11:42:17Z</time></trkpt><trkpt lat="46.5299657173" lon="12.2285081539"><ele>1913.16</ele><time>2013-07-24T11:42:18Z</time></trkpt><trkpt lat="46.5300033521" lon="12.2285022028"><ele>1913.16</ele><time>2013-07-24T11:42:22Z</time></trkpt><trkpt lat="46.5301051084" lon="12.2284392547"><ele>1914.12</ele><time>2013-07-24T11:42:32Z</time></trkpt><trkpt lat="46.5301730856" lon="12.2283821739"><ele>1915.56</ele><time>2013-07-24T11:42:40Z</time></trkpt><trkpt lat="46.5301859938" lon="12.2283571120"><ele>1915.56</ele><time>2013-07-24T11:42:42Z</time></trkpt><trkpt lat="46.5302009135" lon="12.2283268534"><ele>1915.08</ele><time>2013-07-24T11:42:45Z</time></trkpt><trkpt lat="46.5302101336" lon="12.2283015400"><ele>1916.04</ele><time>2013-07-24T11:42:47Z</time></trkpt><trkpt lat="46.5303056035" lon="12.2282452974"><ele>1916.53</ele><time>2013-07-24T11:42:56Z</time></trkpt><trkpt lat="46.5303219482" lon="12.2282371670"><ele>1916.04</ele><time>2013-07-24T11:42:58Z</time></trkpt><trkpt lat="46.5304000676" lon="12.2282469738"><ele>1916.04</ele><time>2013-07-24T11:43:09Z</time></trkpt><trkpt lat="46.5304620937" lon="12.2282369155"><ele>1916.04</ele><time>2013-07-24T11:43:17Z</time></trkpt><trkpt lat="46.5305166598" lon="12.2282728739"><ele>1917.01</ele><time>2013-07-24T11:43:23Z</time></trkpt><trkpt lat="46.5305525344" lon="12.2282953374"><ele>1918.93</ele><time>2013-07-24T11:43:32Z</time></trkpt><trkpt lat="46.5306291450" lon="12.2282891348"><ele>1918.93</ele><time>2013-07-24T11:43:40Z</time></trkpt><trkpt lat="46.5307378583" lon="12.2282915656"><ele>1918.93</ele><time>2013-07-24T11:43:50Z</time></trkpt><trkpt lat="46.5307953581" lon="12.2282766458"><ele>1920.85</ele><time>2013-07-24T11:43:59Z</time></trkpt><trkpt lat="46.5308419615" lon="12.2282797471"><ele>1919.89</ele><time>2013-07-24T11:44:05Z</time></trkpt><trkpt lat="46.5309334081" lon="12.2282405198"><ele>1920.37</ele><time>2013-07-24T11:44:15Z</time></trkpt><trkpt lat="46.5309588052" lon="12.2282164637"><ele>1920.37</ele><time>2013-07-24T11:44:19Z</time></trkpt><trkpt lat="46.5309955180" lon="12.2281504143"><ele>1920.37</ele><time>2013-07-24T11:44:26Z</time></trkpt><trkpt lat="46.5310524311" lon="12.2281142045"><ele>1921.81</ele><time>2013-07-24T11:44:35Z</time></trkpt><trkpt lat="46.5310794208" lon="12.2280760668"><ele>1922.77</ele><time>2013-07-24T11:44:44Z</time></trkpt><trkpt lat="46.5311145410" lon="12.2280146275"><ele>1923.74</ele><time>2013-07-24T11:44:52Z</time></trkpt><trkpt lat="46.5311686043" lon="12.2279780824"><ele>1925.66</ele><time>2013-07-24T11:45:01Z</time></trkpt><trkpt lat="46.5312581230" lon="12.2279508412"><ele>1925.18</ele><time>2013-07-24T11:45:07Z</time></trkpt><trkpt lat="46.5313368291" lon="12.2279851232"><ele>1924.70</ele><time>2013-07-24T11:45:17Z</time></trkpt><trkpt lat="46.5313987713" lon="12.2280207463"><ele>1923.25</ele><time>2013-07-24T11:45:25Z</time></trkpt><trkpt lat="46.5314720292" lon="12.2280448023"><ele>1922.29</ele><time>2013-07-24T11:45:33Z</time></trkpt><trkpt lat="46.5315580275" lon="12.2280375101"><ele>1922.29</ele><time>2013-07-24T11:45:41Z</time></trkpt><trkpt lat="46.5316332970" lon="12.2279987019"><ele>1922.29</ele><time>2013-07-24T11:45:51Z</time></trkpt><trkpt lat="46.5316891205" lon="12.2279786691"><ele>1924.22</ele><time>2013-07-24T11:45:58Z</time></trkpt><trkpt lat="46.5316983406" lon="12.2279854584"><ele>1924.22</ele><time>2013-07-24T11:46:00Z</time></trkpt><trkpt lat="46.5317703411" lon="12.2280390188"><ele>1923.25</ele><time>2013-07-24T11:46:09Z</time></trkpt><trkpt lat="46.5318426769" lon="12.2281028889"><ele>1923.74</ele><time>2013-07-24T11:46:19Z</time></trkpt><trkpt lat="46.5319027752" lon="12.2281655017"><ele>1921.81</ele><time>2013-07-24T11:46:29Z</time></trkpt><trkpt lat="46.5319133364" lon="12.2281688545"><ele>1922.29</ele><time>2013-07-24T11:46:30Z</time></trkpt><trkpt lat="46.5319827385" lon="12.2281957604"><ele>1922.29</ele><time>2013-07-24T11:46:36Z</time></trkpt><trkpt lat="46.5320499614" lon="12.2282054834"><ele>1920.85</ele><time>2013-07-24T11:46:46Z</time></trkpt><trkpt lat="46.5320729278" lon="12.2282138653"><ele>1919.89</ele><time>2013-07-24T11:46:55Z</time></trkpt><trkpt lat="46.5321282484" lon="12.2281990293"><ele>1917.97</ele><time>2013-07-24T11:47:04Z</time></trkpt><trkpt lat="46.5321265720" lon="12.2281986102"><ele>1917.97</ele><time>2013-07-24T11:47:12Z</time></trkpt><trkpt lat="46.5321313497" lon="12.2281919885"><ele>1918.45</ele><time>2013-07-24T11:47:26Z</time></trkpt><trkpt lat="46.5321606863" lon="12.2281978559"><ele>1917.01</ele><time>2013-07-24T11:47:40Z</time></trkpt><trkpt lat="46.5322207008" lon="12.2282634024"><ele>1914.12</ele><time>2013-07-24T11:47:51Z</time></trkpt><trkpt lat="46.5322848223" lon="12.2283110954"><ele>1913.16</ele><time>2013-07-24T11:48:02Z</time></trkpt><trkpt lat="46.5323274862" lon="12.2283400130"><ele>1910.28</ele><time>2013-07-24T11:48:12Z</time></trkpt><trkpt lat="46.5323450044" lon="12.2284101695"><ele>1908.35</ele><time>2013-07-24T11:48:20Z</time></trkpt><trkpt lat="46.5324335173" lon="12.2284516599"><ele>1906.91</ele><time>2013-07-24T11:48:30Z</time></trkpt><trkpt lat="46.5325483494" lon="12.2284473851"><ele>1905.47</ele><time>2013-07-24T11:48:42Z</time></trkpt><trkpt lat="46.5325704776" lon="12.2284708545"><ele>1904.99</ele><time>2013-07-24T11:48:47Z</time></trkpt><trkpt lat="46.5326438192" lon="12.2285234928"><ele>1904.03</ele><time>2013-07-24T11:48:58Z</time></trkpt><trkpt lat="46.5327081922" lon="12.2285595350"><ele>1903.07</ele><time>2013-07-24T11:49:09Z</time></trkpt><trkpt lat="46.5327011514" lon="12.2285980918"><ele>1900.66</ele><time>2013-07-24T11:49:17Z</time></trkpt><trkpt lat="46.5326898359" lon="12.2285994329"><ele>1898.74</ele><time>2013-07-24T11:49:25Z</time></trkpt><trkpt lat="46.5327226091" lon="12.2285837587"><ele>1896.82</ele><time>2013-07-24T11:49:35Z</time></trkpt><trkpt lat="46.5327363554" lon="12.2285879496"><ele>1895.38</ele><time>2013-07-24T11:49:45Z</time></trkpt><trkpt lat="46.5327177476" lon="12.2286183760"><ele>1893.45</ele><time>2013-07-24T11:49:53Z</time></trkpt><trkpt lat="46.5327034984" lon="12.2286301106"><ele>1892.97</ele><time>2013-07-24T11:50:06Z</time></trkpt><trkpt lat="46.5326967090" lon="12.2286376543"><ele>1892.97</ele><time>2013-07-24T11:50:16Z</time></trkpt><trkpt lat="46.5326866508" lon="12.2286408395"><ele>1891.53</ele><time>2013-07-24T11:50:25Z</time></trkpt><trkpt lat="46.5327187534" lon="12.2286407556"><ele>1891.53</ele><time>2013-07-24T11:50:33Z</time></trkpt><trkpt lat="46.5327288117" lon="12.2286343016"><ele>1890.09</ele><time>2013-07-24T11:50:45Z</time></trkpt><trkpt lat="46.5327218547" lon="12.2286244109"><ele>1889.61</ele><time>2013-07-24T11:50:54Z</time></trkpt><trkpt lat="46.5327115450" lon="12.2286146041"><ele>1888.17</ele><time>2013-07-24T11:51:02Z</time></trkpt><trkpt lat="46.5326737426" lon="12.2285988461"><ele>1886.72</ele><time>2013-07-24T11:51:11Z</time></trkpt><trkpt lat="46.5326374490" lon="12.2286127601"><ele>1884.80</ele><time>2013-07-24T11:51:20Z</time></trkpt><trkpt lat="46.5326171648" lon="12.2286330443"><ele>1883.36</ele><time>2013-07-24T11:51:27Z</time></trkpt><trkpt lat="46.5326112136" lon="12.2286443599"><ele>1882.88</ele><time>2013-07-24T11:51:28Z</time></trkpt><trkpt lat="46.5325916838" lon="12.2286596987"><ele>1880.96</ele><time>2013-07-24T11:51:36Z</time></trkpt><trkpt lat="46.5325375367" lon="12.2286817431"><ele>1879.51</ele><time>2013-07-24T11:51:44Z</time></trkpt><trkpt lat="46.5325273946" lon="12.2286879458"><ele>1879.03</ele><time>2013-07-24T11:51:45Z</time></trkpt><trkpt lat="46.5324891731" lon="12.2286866046"><ele>1877.59</ele><time>2013-07-24T11:51:55Z</time></trkpt><trkpt lat="46.5324892569" lon="12.2286795639"><ele>1876.63</ele><time>2013-07-24T11:52:00Z</time></trkpt><trkpt lat="46.5325016622" lon="12.2287399136"><ele>1874.71</ele><time>2013-07-24T11:52:09Z</time></trkpt><trkpt lat="46.5325293224" lon="12.2287661489"><ele>1872.79</ele><time>2013-07-24T11:52:19Z</time></trkpt><trkpt lat="46.5325639397" lon="12.2287806496"><ele>1870.86</ele><time>2013-07-24T11:52:25Z</time></trkpt><trkpt lat="46.5326219425" lon="12.2288014367"><ele>1869.42</ele><time>2013-07-24T11:52:34Z</time></trkpt><trkpt lat="46.5326713957" lon="12.2288304381"><ele>1867.50</ele><time>2013-07-24T11:52:42Z</time></trkpt><trkpt lat="46.5327154007" lon="12.2288814839"><ele>1866.06</ele><time>2013-07-24T11:52:51Z</time></trkpt><trkpt lat="46.5327625070" lon="12.2289202083"><ele>1864.13</ele><time>2013-07-24T11:52:58Z</time></trkpt><trkpt lat="46.5328333341" lon="12.2289338708"><ele>1861.25</ele><time>2013-07-24T11:53:07Z</time></trkpt><trkpt lat="46.5328994673" lon="12.2289264947"><ele>1859.33</ele><time>2013-07-24T11:53:18Z</time></trkpt><trkpt lat="46.5329236910" lon="12.2289175261"><ele>1858.37</ele><time>2013-07-24T11:53:20Z</time></trkpt><trkpt lat="46.5329526085" lon="12.2288941406"><ele>1858.37</ele><time>2013-07-24T11:53:23Z</time></trkpt><trkpt lat="46.5330137126" lon="12.2288179491"><ele>1857.40</ele><time>2013-07-24T11:53:29Z</time></trkpt><trkpt lat="46.5330593940" lon="12.2287855111"><ele>1856.92</ele><time>2013-07-24T11:53:34Z</time></trkpt><trkpt lat="46.5330827795" lon="12.2287695855"><ele>1857.40</ele><time>2013-07-24T11:53:37Z</time></trkpt><trkpt lat="46.5331681911" lon="12.2287705913"><ele>1855.96</ele><time>2013-07-24T11:53:46Z</time></trkpt><trkpt lat="46.5333176404" lon="12.2288298514"><ele>1855.48</ele><time>2013-07-24T11:53:58Z</time></trkpt><trkpt lat="46.5334064048" lon="12.2288446035"><ele>1855.48</ele><time>2013-07-24T11:54:05Z</time></trkpt><trkpt lat="46.5335317142" lon="12.2288283426"><ele>1856.44</ele><time>2013-07-24T11:54:16Z</time></trkpt><trkpt lat="46.5335544292" lon="12.2288228106"><ele>1856.92</ele><time>2013-07-24T11:54:18Z</time></trkpt><trkpt lat="46.5336367395" lon="12.2287956532"><ele>1857.89</ele><time>2013-07-24T11:54:29Z</time></trkpt><trkpt lat="46.5337050520" lon="12.2287570126"><ele>1859.81</ele><time>2013-07-24T11:54:39Z</time></trkpt><trkpt lat="46.5337377414" lon="12.2287301905"><ele>1860.77</ele><time>2013-07-24T11:54:49Z</time></trkpt><trkpt lat="46.5337954927" lon="12.2286714334"><ele>1862.69</ele><time>2013-07-24T11:55:00Z</time></trkpt><trkpt lat="46.5338541660" lon="12.2286429349"><ele>1864.13</ele><time>2013-07-24T11:55:11Z</time></trkpt><trkpt lat="46.5339119174" lon="12.2286119219"><ele>1865.58</ele><time>2013-07-24T11:55:20Z</time></trkpt><trkpt lat="46.5339904558" lon="12.2286405042"><ele>1865.58</ele><time>2013-07-24T11:55:30Z</time></trkpt><trkpt lat="46.5340554994" lon="12.2286346368"><ele>1865.58</ele><time>2013-07-24T11:55:38Z</time></trkpt><trkpt lat="46.5341392346" lon="12.2286267579"><ele>1865.09</ele><time>2013-07-24T11:55:46Z</time></trkpt><trkpt lat="46.5342010930" lon="12.2286298592"><ele>1864.61</ele><time>2013-07-24T11:55:51Z</time></trkpt><trkpt lat="46.5343189426" lon="12.2285836749"><ele>1865.58</ele><time>2013-07-24T11:56:00Z</time></trkpt><trkpt lat="46.5343890153" lon="12.2286014445"><ele>1864.61</ele><time>2013-07-24T11:56:06Z</time></trkpt><trkpt lat="46.5345505346" lon="12.2284654062"><ele>1864.13</ele><time>2013-07-24T11:56:19Z</time></trkpt><trkpt lat="46.5346501954" lon="12.2284428589"><ele>1864.13</ele><time>2013-07-24T11:56:30Z</time></trkpt><trkpt lat="46.5346748382" lon="12.2284341417"><ele>1863.65</ele><time>2013-07-24T11:56:33Z</time></trkpt><trkpt lat="46.5348146483" lon="12.2284281906"><ele>1862.21</ele><time>2013-07-24T11:56:44Z</time></trkpt><trkpt lat="46.5348774288" lon="12.2284140252"><ele>1861.25</ele><time>2013-07-24T11:56:49Z</time></trkpt><trkpt lat="46.5349760000" lon="12.2283476405"><ele>1859.33</ele><time>2013-07-24T11:56:59Z</time></trkpt><trkpt lat="46.5350100305" lon="12.2283315472"><ele>1858.37</ele><time>2013-07-24T11:57:02Z</time></trkpt><trkpt lat="46.5350793488" lon="12.2282678448"><ele>1858.85</ele><time>2013-07-24T11:57:08Z</time></trkpt><trkpt lat="46.5351159777" lon="12.2282214928"><ele>1858.85</ele><time>2013-07-24T11:57:14Z</time></trkpt><trkpt lat="46.5351479128" lon="12.2281900607"><ele>1859.33</ele><time>2013-07-24T11:57:17Z</time></trkpt><trkpt lat="46.5352244396" lon="12.2280875500"><ele>1859.81</ele><time>2013-07-24T11:57:25Z</time></trkpt><trkpt lat="46.5353160538" lon="12.2279834468"><ele>1858.85</ele><time>2013-07-24T11:57:35Z</time></trkpt><trkpt lat="46.5353490785" lon="12.2279431298"><ele>1857.89</ele><time>2013-07-24T11:57:38Z</time></trkpt><trkpt lat="46.5353784990" lon="12.2279111110"><ele>1856.92</ele><time>2013-07-24T11:57:41Z</time></trkpt><trkpt lat="46.5354266949" lon="12.2278531082"><ele>1855.48</ele><time>2013-07-24T11:57:50Z</time></trkpt><trkpt lat="46.5354919899" lon="12.2277709655"><ele>1852.60</ele><time>2013-07-24T11:58:00Z</time></trkpt><trkpt lat="46.5355103463" lon="12.2277377732"><ele>1850.19</ele><time>2013-07-24T11:58:09Z</time></trkpt><trkpt lat="46.5355354082" lon="12.2277060896"><ele>1847.79</ele><time>2013-07-24T11:58:19Z</time></trkpt><trkpt lat="46.5355991945" lon="12.2276406270"><ele>1845.87</ele><time>2013-07-24T11:58:28Z</time></trkpt><trkpt lat="46.5356416069" lon="12.2275998071"><ele>1842.98</ele><time>2013-07-24T11:58:38Z</time></trkpt><trkpt lat="46.5356899705" lon="12.2275849711"><ele>1841.54</ele><time>2013-07-24T11:58:45Z</time></trkpt><trkpt lat="46.5357619710" lon="12.2275598254"><ele>1838.18</ele><time>2013-07-24T11:58:56Z</time></trkpt><trkpt lat="46.5358055569" lon="12.2275072709"><ele>1836.26</ele><time>2013-07-24T11:59:05Z</time></trkpt><trkpt lat="46.5358763002" lon="12.2274731565"><ele>1833.85</ele><time>2013-07-24T11:59:15Z</time></trkpt><trkpt lat="46.5359376557" lon="12.2274563089"><ele>1832.89</ele><time>2013-07-24T11:59:22Z</time></trkpt><trkpt lat="46.5360253304" lon="12.2274146508"><ele>1830.01</ele><time>2013-07-24T11:59:33Z</time></trkpt><trkpt lat="46.5360757057" lon="12.2273624316"><ele>1828.08</ele><time>2013-07-24T11:59:42Z</time></trkpt><trkpt lat="46.5361128375" lon="12.2273025848"><ele>1826.16</ele><time>2013-07-24T11:59:52Z</time></trkpt><trkpt lat="46.5362036135" lon="12.2272798698"><ele>1824.72</ele><time>2013-07-24T12:00:02Z</time></trkpt><trkpt lat="46.5362541564" lon="12.2272138204"><ele>1822.80</ele><time>2013-07-24T12:00:11Z</time></trkpt><trkpt lat="46.5362624545" lon="12.2272095457"><ele>1823.28</ele><time>2013-07-24T12:00:12Z</time></trkpt><trkpt lat="46.5363571700" lon="12.2271704860"><ele>1820.39</ele><time>2013-07-24T12:00:23Z</time></trkpt><trkpt lat="46.5364163462" lon="12.2271342762"><ele>1819.91</ele><time>2013-07-24T12:00:31Z</time></trkpt><trkpt lat="46.5364404023" lon="12.2271449212"><ele>1818.47</ele><time>2013-07-24T12:00:41Z</time></trkpt><trkpt lat="46.5365133248" lon="12.2271954641"><ele>1817.51</ele><time>2013-07-24T12:00:44Z</time></trkpt><trkpt lat="46.5364947170" lon="12.2272852343"><ele>1816.07</ele><time>2013-07-24T12:00:53Z</time></trkpt><trkpt lat="46.5365345310" lon="12.2272605915"><ele>1813.18</ele><time>2013-07-24T12:01:03Z</time></trkpt><trkpt lat="46.5365414042" lon="12.2272582445"><ele>1811.74</ele><time>2013-07-24T12:01:09Z</time></trkpt><trkpt lat="46.5365787875" lon="12.2272574063"><ele>1810.30</ele><time>2013-07-24T12:01:16Z</time></trkpt><trkpt lat="46.5366144944" lon="12.2272452526"><ele>1810.30</ele><time>2013-07-24T12:01:19Z</time></trkpt><trkpt lat="46.5367077012" lon="12.2272082884"><ele>1807.90</ele><time>2013-07-24T12:01:29Z</time></trkpt><trkpt lat="46.5367445815" lon="12.2271726653"><ele>1807.42</ele><time>2013-07-24T12:01:33Z</time></trkpt><trkpt lat="46.5367666259" lon="12.2271263134"><ele>1805.97</ele><time>2013-07-24T12:01:39Z</time></trkpt><trkpt lat="46.5368232876" lon="12.2270801291"><ele>1804.53</ele><time>2013-07-24T12:01:46Z</time></trkpt><trkpt lat="46.5368931089" lon="12.2270284966"><ele>1802.13</ele><time>2013-07-24T12:01:55Z</time></trkpt><trkpt lat="46.5369377006" lon="12.2269746009"><ele>1801.17</ele><time>2013-07-24T12:02:02Z</time></trkpt><trkpt lat="46.5369566437" lon="12.2269481979"><ele>1799.24</ele><time>2013-07-24T12:02:05Z</time></trkpt><trkpt lat="46.5370366070" lon="12.2268771194"><ele>1797.32</ele><time>2013-07-24T12:02:15Z</time></trkpt><trkpt lat="46.5371060092" lon="12.2267870139"><ele>1795.88</ele><time>2013-07-24T12:02:24Z</time></trkpt><trkpt lat="46.5371128824" lon="12.2267595213"><ele>1794.92</ele><time>2013-07-24T12:02:26Z</time></trkpt><trkpt lat="46.5371128824" lon="12.2267595213"><ele>1794.92</ele><time>2013-07-24T12:02:27Z</time></trkpt><trkpt lat="46.5371877328" lon="12.2266586032"><ele>1793.48</ele><time>2013-07-24T12:02:35Z</time></trkpt><trkpt lat="46.5372345038" lon="12.2265842557"><ele>1790.59</ele><time>2013-07-24T12:02:43Z</time></trkpt><trkpt lat="46.5372504294" lon="12.2265565116"><ele>1790.11</ele><time>2013-07-24T12:02:45Z</time></trkpt><trkpt lat="46.5372817777" lon="12.2264787275"><ele>1789.63</ele><time>2013-07-24T12:02:49Z</time></trkpt><trkpt lat="46.5373020619" lon="12.2263851017"><ele>1788.67</ele><time>2013-07-24T12:02:55Z</time></trkpt><trkpt lat="46.5373716317" lon="12.2263162863"><ele>1786.75</ele><time>2013-07-24T12:03:03Z</time></trkpt><trkpt lat="46.5373908263" lon="12.2262668330"><ele>1786.27</ele><time>2013-07-24T12:03:06Z</time></trkpt><trkpt lat="46.5374540258" lon="12.2261357401"><ele>1787.23</ele><time>2013-07-24T12:03:16Z</time></trkpt><trkpt lat="46.5374787524" lon="12.2260839399"><ele>1787.71</ele><time>2013-07-24T12:03:20Z</time></trkpt><trkpt lat="46.5374994557" lon="12.2260468919"><ele>1787.71</ele><time>2013-07-24T12:03:23Z</time></trkpt><trkpt lat="46.5375151299" lon="12.2260252666"><ele>1788.19</ele><time>2013-07-24T12:03:24Z</time></trkpt><trkpt lat="46.5375905670" lon="12.2259588819"><ele>1788.67</ele><time>2013-07-24T12:03:31Z</time></trkpt><trkpt lat="46.5376341529" lon="12.2259174753"><ele>1787.23</ele><time>2013-07-24T12:03:40Z</time></trkpt><trkpt lat="46.5377230849" lon="12.2259250190"><ele>1786.27</ele><time>2013-07-24T12:03:47Z</time></trkpt><trkpt lat="46.5377117693" lon="12.2258900665"><ele>1785.79</ele><time>2013-07-24T12:03:54Z</time></trkpt><trkpt lat="46.5376813430" lon="12.2258506715"><ele>1785.31</ele><time>2013-07-24T12:03:58Z</time></trkpt><trkpt lat="46.5377320535" lon="12.2258337401"><ele>1784.82</ele><time>2013-07-24T12:04:08Z</time></trkpt><trkpt lat="46.5377643239" lon="12.2258183174"><ele>1784.82</ele><time>2013-07-24T12:04:11Z</time></trkpt><trkpt lat="46.5378079098" lon="12.2258076724"><ele>1783.86</ele><time>2013-07-24T12:04:15Z</time></trkpt><trkpt lat="46.5378404316" lon="12.2257911600"><ele>1783.38</ele><time>2013-07-24T12:04:19Z</time></trkpt><trkpt lat="46.5378616378" lon="12.2257567942"><ele>1782.90</ele><time>2013-07-24T12:04:21Z</time></trkpt><trkpt lat="46.5379887074" lon="12.2256928403"><ele>1781.94</ele><time>2013-07-24T12:04:31Z</time></trkpt><trkpt lat="46.5380034596" lon="12.2256819438"><ele>1781.94</ele><time>2013-07-24T12:04:32Z</time></trkpt><trkpt lat="46.5381640568" lon="12.2255978733"><ele>1780.02</ele><time>2013-07-24T12:04:43Z</time></trkpt><trkpt lat="46.5381802339" lon="12.2255909164"><ele>1780.50</ele><time>2013-07-24T12:04:45Z</time></trkpt><trkpt lat="46.5382579342" lon="12.2255852167"><ele>1779.06</ele><time>2013-07-24T12:04:53Z</time></trkpt><trkpt lat="46.5383202955" lon="12.2255537845"><ele>1778.58</ele><time>2013-07-24T12:04:58Z</time></trkpt><trkpt lat="46.5384776238" lon="12.2254666965"><ele>1778.10</ele><time>2013-07-24T12:05:09Z</time></trkpt><trkpt lat="46.5385547373" lon="12.2254177462"><ele>1778.10</ele><time>2013-07-24T12:05:15Z</time></trkpt><trkpt lat="46.5386094712" lon="12.2253642697"><ele>1777.61</ele><time>2013-07-24T12:05:20Z</time></trkpt><trkpt lat="46.5387216210" lon="12.2252472583"><ele>1778.58</ele><time>2013-07-24T12:05:30Z</time></trkpt><trkpt lat="46.5387753490" lon="12.2252124734"><ele>1779.06</ele><time>2013-07-24T12:05:36Z</time></trkpt><trkpt lat="46.5388842300" lon="12.2251609247"><ele>1779.06</ele><time>2013-07-24T12:05:46Z</time></trkpt><trkpt lat="46.5389536321" lon="12.2251167521"><ele>1779.06</ele><time>2013-07-24T12:05:53Z</time></trkpt><trkpt lat="46.5389938653" lon="12.2250714898"><ele>1779.54</ele><time>2013-07-24T12:05:57Z</time></trkpt><trkpt lat="46.5390890837" lon="12.2249131557"><ele>1780.02</ele><time>2013-07-24T12:06:08Z</time></trkpt><trkpt lat="46.5391351003" lon="12.2248736769"><ele>1779.06</ele><time>2013-07-24T12:06:16Z</time></trkpt><trkpt lat="46.5392190870" lon="12.2248008382"><ele>1779.54</ele><time>2013-07-24T12:06:26Z</time></trkpt><trkpt lat="46.5392771736" lon="12.2247956414"><ele>1781.94</ele><time>2013-07-24T12:06:37Z</time></trkpt><trkpt lat="46.5392996371" lon="12.2247811407"><ele>1782.42</ele><time>2013-07-24T12:06:40Z</time></trkpt><trkpt lat="46.5393886529" lon="12.2247554921"><ele>1782.42</ele><time>2013-07-24T12:06:50Z</time></trkpt><trkpt lat="46.5394986235" lon="12.2247220483"><ele>1783.86</ele><time>2013-07-24T12:07:00Z</time></trkpt><trkpt lat="46.5395688638" lon="12.2247049492"><ele>1784.34</ele><time>2013-07-24T12:07:09Z</time></trkpt><trkpt lat="46.5396154672" lon="12.2246932145"><ele>1784.34</ele><time>2013-07-24T12:07:14Z</time></trkpt><trkpt lat="46.5396554489" lon="12.2246558312"><ele>1784.82</ele><time>2013-07-24T12:07:20Z</time></trkpt><trkpt lat="46.5397543553" lon="12.2246420849"><ele>1786.27</ele><time>2013-07-24T12:07:30Z</time></trkpt><trkpt lat="46.5398009587" lon="12.2246505506"><ele>1786.75</ele><time>2013-07-24T12:07:39Z</time></trkpt><trkpt lat="46.5398728754" lon="12.2247062065"><ele>1786.75</ele><time>2013-07-24T12:07:50Z</time></trkpt><trkpt lat="46.5399380866" lon="12.2247210424"><ele>1786.27</ele><time>2013-07-24T12:07:54Z</time></trkpt><trkpt lat="46.5400493145" lon="12.2247489542"><ele>1786.27</ele><time>2013-07-24T12:08:05Z</time></trkpt><trkpt lat="46.5401894599" lon="12.2247668914"><ele>1786.75</ele><time>2013-07-24T12:08:14Z</time></trkpt><trkpt lat="46.5402438585" lon="12.2247119062"><ele>1786.27</ele><time>2013-07-24T12:08:18Z</time></trkpt><trkpt lat="46.5402933117" lon="12.2246446833"><ele>1785.79</ele><time>2013-07-24T12:08:23Z</time></trkpt><trkpt lat="46.5403783042" lon="12.2245894466"><ele>1785.31</ele><time>2013-07-24T12:08:30Z</time></trkpt><trkpt lat="46.5404560044" lon="12.2245148476"><ele>1785.31</ele><time>2013-07-24T12:08:37Z</time></trkpt><trkpt lat="46.5404761210" lon="12.2244959045"><ele>1785.79</ele><time>2013-07-24T12:08:39Z</time></trkpt><trkpt lat="46.5405256581" lon="12.2244524024"><ele>1785.31</ele><time>2013-07-24T12:08:43Z</time></trkpt><trkpt lat="46.5405981615" lon="12.2243672423"><ele>1787.23</ele><time>2013-07-24T12:08:53Z</time></trkpt><trkpt lat="46.5406773705" lon="12.2242490575"><ele>1788.67</ele><time>2013-07-24T12:09:03Z</time></trkpt><trkpt lat="46.5407674760" lon="12.2241974249"><ele>1789.15</ele><time>2013-07-24T12:09:15Z</time></trkpt><trkpt lat="46.5408844035" lon="12.2241172940"><ele>1790.59</ele><time>2013-07-24T12:09:27Z</time></trkpt><trkpt lat="46.5409886744" lon="12.2240569443"><ele>1792.03</ele><time>2013-07-24T12:09:39Z</time></trkpt><trkpt lat="46.5410639439" lon="12.2240557708"><ele>1793.00</ele><time>2013-07-24T12:09:49Z</time></trkpt><trkpt lat="46.5411192644" lon="12.2240721993"><ele>1793.48</ele><time>2013-07-24T12:09:58Z</time></trkpt><trkpt lat="46.5412021615" lon="12.2240485623"><ele>1794.92</ele><time>2013-07-24T12:10:09Z</time></trkpt><trkpt lat="46.5412933566" lon="12.2240213212"><ele>1794.92</ele><time>2013-07-24T12:10:21Z</time></trkpt><trkpt lat="46.5414537024" lon="12.2241069842"><ele>1794.92</ele><time>2013-07-24T12:10:33Z</time></trkpt><trkpt lat="46.5415476635" lon="12.2241332196"><ele>1794.92</ele><time>2013-07-24T12:10:39Z</time></trkpt><trkpt lat="46.5416913293" lon="12.2241716087"><ele>1794.92</ele><time>2013-07-24T12:10:51Z</time></trkpt><trkpt lat="46.5417829435" lon="12.2241680883"><ele>1795.40</ele><time>2013-07-24T12:11:00Z</time></trkpt><trkpt lat="46.5418876335" lon="12.2241911385"><ele>1794.92</ele><time>2013-07-24T12:11:12Z</time></trkpt><trkpt lat="46.5420412738" lon="12.2241043020"><ele>1795.88</ele><time>2013-07-24T12:11:22Z</time></trkpt><trkpt lat="46.5421543457" lon="12.2239949182"><ele>1795.88</ele><time>2013-07-24T12:11:33Z</time></trkpt><trkpt lat="46.5421695169" lon="12.2239713650"><ele>1796.36</ele><time>2013-07-24T12:11:35Z</time></trkpt><trkpt lat="46.5422821697" lon="12.2239318024"><ele>1797.32</ele><time>2013-07-24T12:11:46Z</time></trkpt><trkpt lat="46.5423131827" lon="12.2239002865"><ele>1796.84</ele><time>2013-07-24T12:11:49Z</time></trkpt><trkpt lat="46.5424078144" lon="12.2238463070"><ele>1798.76</ele><time>2013-07-24T12:11:59Z</time></trkpt><trkpt lat="46.5425220598" lon="12.2237261105"><ele>1798.76</ele><time>2013-07-24T12:12:10Z</time></trkpt><trkpt lat="46.5426035319" lon="12.2236915771"><ele>1799.73</ele><time>2013-07-24T12:12:18Z</time></trkpt><trkpt lat="46.5426988341" lon="12.2235652618"><ele>1800.21</ele><time>2013-07-24T12:12:30Z</time></trkpt><trkpt lat="46.5427473653" lon="12.2235566285"><ele>1800.69</ele><time>2013-07-24T12:12:37Z</time></trkpt><trkpt lat="46.5428877622" lon="12.2234894056"><ele>1800.69</ele><time>2013-07-24T12:12:49Z</time></trkpt><trkpt lat="46.5430298354" lon="12.2234015632"><ele>1801.17</ele><time>2013-07-24T12:13:00Z</time></trkpt><trkpt lat="46.5431365371" lon="12.2233470809"><ele>1801.17</ele><time>2013-07-24T12:13:10Z</time></trkpt><trkpt lat="46.5432494413" lon="12.2232734039"><ele>1801.65</ele><time>2013-07-24T12:13:21Z</time></trkpt><trkpt lat="46.5432870761" lon="12.2232848033"><ele>1801.65</ele><time>2013-07-24T12:13:31Z</time></trkpt><trkpt lat="46.5433815401" lon="12.2232541256"><ele>1801.17</ele><time>2013-07-24T12:13:39Z</time></trkpt><trkpt lat="46.5434118826" lon="12.2232474200"><ele>1801.17</ele><time>2013-07-24T12:13:42Z</time></trkpt><trkpt lat="46.5435473341" lon="12.2231914289"><ele>1801.65</ele><time>2013-07-24T12:13:54Z</time></trkpt><trkpt lat="46.5435771737" lon="12.2232031636"><ele>1801.65</ele><time>2013-07-24T12:14:02Z</time></trkpt><trkpt lat="46.5436409600" lon="12.2231159918"><ele>1801.65</ele><time>2013-07-24T12:14:10Z</time></trkpt><trkpt lat="46.5436652675" lon="12.2230851464"><ele>1802.13</ele><time>2013-07-24T12:14:13Z</time></trkpt><trkpt lat="46.5436790977" lon="12.2230618447"><ele>1802.13</ele><time>2013-07-24T12:14:15Z</time></trkpt><trkpt lat="46.5436805226" lon="12.2229896765"><ele>1802.61</ele><time>2013-07-24T12:14:20Z</time></trkpt><trkpt lat="46.5436469950" lon="12.2229528800"><ele>1803.57</ele><time>2013-07-24T12:14:25Z</time></trkpt><trkpt lat="46.5436253697" lon="12.2229111381"><ele>1804.05</ele><time>2013-07-24T12:14:29Z</time></trkpt><trkpt lat="46.5436225198" lon="12.2228438314"><ele>1804.05</ele><time>2013-07-24T12:14:33Z</time></trkpt><trkpt lat="46.5435918421" lon="12.2227771115"><ele>1804.05</ele><time>2013-07-24T12:14:38Z</time></trkpt><trkpt lat="46.5435899980" lon="12.2227492835"><ele>1804.53</ele><time>2013-07-24T12:14:40Z</time></trkpt><trkpt lat="46.5435842983" lon="12.2227204498"><ele>1804.53</ele><time>2013-07-24T12:14:42Z</time></trkpt><trkpt lat="46.5436438099" lon="12.2226528917"><ele>1804.05</ele><time>2013-07-24T12:14:48Z</time></trkpt><trkpt lat="46.5436716378" lon="12.2226482816"><ele>1804.53</ele><time>2013-07-24T12:14:51Z</time></trkpt><trkpt lat="46.5437951032" lon="12.2225475311"><ele>1805.49</ele><time>2013-07-24T12:15:01Z</time></trkpt><trkpt lat="46.5438071731" lon="12.2225305997"><ele>1805.01</ele><time>2013-07-24T12:15:03Z</time></trkpt><trkpt lat="46.5438514296" lon="12.2225156799"><ele>1804.53</ele><time>2013-07-24T12:15:06Z</time></trkpt><trkpt lat="46.5439039841" lon="12.2225790471"><ele>1805.49</ele><time>2013-07-24T12:15:14Z</time></trkpt><trkpt lat="46.5440328140" lon="12.2224870976"><ele>1805.49</ele><time>2013-07-24T12:15:26Z</time></trkpt><trkpt lat="46.5440585464" lon="12.2224335372"><ele>1806.45</ele><time>2013-07-24T12:15:35Z</time></trkpt><trkpt lat="46.5441101789" lon="12.2223438509"><ele>1805.97</ele><time>2013-07-24T12:15:43Z</time></trkpt><trkpt lat="46.5441153757" lon="12.2223298531"><ele>1805.97</ele><time>2013-07-24T12:15:45Z</time></trkpt><trkpt lat="46.5441597998" lon="12.2222515661"><ele>1806.94</ele><time>2013-07-24T12:15:51Z</time></trkpt><trkpt lat="46.5441901423" lon="12.2221969161"><ele>1807.42</ele><time>2013-07-24T12:15:55Z</time></trkpt><trkpt lat="46.5442225803" lon="12.2221126780"><ele>1807.42</ele><time>2013-07-24T12:16:00Z</time></trkpt><trkpt lat="46.5442395955" lon="12.2220737860"><ele>1807.90</ele><time>2013-07-24T12:16:02Z</time></trkpt><trkpt lat="46.5442388412" lon="12.2220209800"><ele>1807.90</ele><time>2013-07-24T12:16:05Z</time></trkpt><trkpt lat="46.5442255139" lon="12.2219421063"><ele>1808.38</ele><time>2013-07-24T12:16:09Z</time></trkpt><trkpt lat="46.5442585386" lon="12.2218639869"><ele>1808.38</ele><time>2013-07-24T12:16:14Z</time></trkpt><trkpt lat="46.5443658270" lon="12.2217436228"><ele>1808.86</ele><time>2013-07-24T12:16:21Z</time></trkpt><trkpt lat="46.5444541723" lon="12.2215959337"><ele>1807.90</ele><time>2013-07-24T12:16:30Z</time></trkpt><trkpt lat="46.5445309505" lon="12.2214947641"><ele>1808.38</ele><time>2013-07-24T12:16:42Z</time></trkpt><trkpt lat="46.5445456188" lon="12.2214686964"><ele>1808.38</ele><time>2013-07-24T12:16:46Z</time></trkpt><trkpt lat="46.5445859358" lon="12.2213914152"><ele>1808.38</ele><time>2013-07-24T12:16:55Z</time></trkpt><trkpt lat="46.5446486324" lon="12.2213211749"><ele>1808.86</ele><time>2013-07-24T12:17:00Z</time></trkpt><trkpt lat="46.5446559247" lon="12.2212473303"><ele>1808.86</ele><time>2013-07-24T12:17:04Z</time></trkpt><trkpt lat="46.5446798969" lon="12.2211801913"><ele>1808.86</ele><time>2013-07-24T12:17:11Z</time></trkpt><trkpt lat="46.5446869377" lon="12.2211555485"><ele>1808.86</ele><time>2013-07-24T12:17:12Z</time></trkpt><trkpt lat="46.5447299369" lon="12.2210023273"><ele>1808.86</ele><time>2013-07-24T12:17:22Z</time></trkpt><trkpt lat="46.5448076371" lon="12.2208559792"><ele>1809.34</ele><time>2013-07-24T12:17:30Z</time></trkpt><trkpt lat="46.5448874328" lon="12.2207278199"><ele>1808.86</ele><time>2013-07-24T12:17:37Z</time></trkpt><trkpt lat="46.5449749399" lon="12.2205595952"><ele>1809.34</ele><time>2013-07-24T12:17:46Z</time></trkpt><trkpt lat="46.5449858364" lon="12.2205459327"><ele>1809.34</ele><time>2013-07-24T12:17:47Z</time></trkpt><trkpt lat="46.5450424980" lon="12.2203901131"><ele>1809.34</ele><time>2013-07-24T12:17:56Z</time></trkpt><trkpt lat="46.5450765286" lon="12.2202266660"><ele>1810.30</ele><time>2013-07-24T12:18:06Z</time></trkpt><trkpt lat="46.5450957231" lon="12.2201749496"><ele>1810.30</ele><time>2013-07-24T12:18:09Z</time></trkpt><trkpt lat="46.5451193601" lon="12.2200727742"><ele>1810.30</ele><time>2013-07-24T12:18:17Z</time></trkpt><trkpt lat="46.5451567434" lon="12.2199482191"><ele>1811.26</ele><time>2013-07-24T12:18:25Z</time></trkpt><trkpt lat="46.5452056937" lon="12.2198318783"><ele>1810.78</ele><time>2013-07-24T12:18:33Z</time></trkpt><trkpt lat="46.5452528000" lon="12.2197363246"><ele>1811.74</ele><time>2013-07-24T12:18:43Z</time></trkpt><trkpt lat="46.5452612657" lon="12.2196268570"><ele>1811.26</ele><time>2013-07-24T12:18:50Z</time></trkpt><trkpt lat="46.5452991519" lon="12.2195641603"><ele>1812.22</ele><time>2013-07-24T12:18:53Z</time></trkpt><trkpt lat="46.5453774389" lon="12.2194260266"><ele>1812.70</ele><time>2013-07-24T12:19:01Z</time></trkpt><trkpt lat="46.5453905985" lon="12.2193410341"><ele>1812.70</ele><time>2013-07-24T12:19:08Z</time></trkpt><trkpt lat="46.5455116332" lon="12.2191780899"><ele>1813.18</ele><time>2013-07-24T12:19:17Z</time></trkpt><trkpt lat="46.5455052629" lon="12.2191539500"><ele>1813.18</ele><time>2013-07-24T12:19:19Z</time></trkpt><trkpt lat="46.5454807039" lon="12.2191187460"><ele>1813.18</ele><time>2013-07-24T12:19:22Z</time></trkpt><trkpt lat="46.5455319174" lon="12.2190330829"><ele>1813.18</ele><time>2013-07-24T12:19:27Z</time></trkpt><trkpt lat="46.5455680434" lon="12.2188916802"><ele>1814.63</ele><time>2013-07-24T12:19:36Z</time></trkpt><trkpt lat="46.5455953684" lon="12.2187981382"><ele>1815.11</ele><time>2013-07-24T12:19:46Z</time></trkpt><trkpt lat="46.5456302371" lon="12.2187251318"><ele>1816.07</ele><time>2013-07-24T12:19:53Z</time></trkpt><trkpt lat="46.5456957836" lon="12.2185957991"><ele>1816.07</ele><time>2013-07-24T12:20:03Z</time></trkpt><trkpt lat="46.5457309876" lon="12.2185568232"><ele>1817.03</ele><time>2013-07-24T12:20:09Z</time></trkpt><trkpt lat="46.5457744058" lon="12.2185242176"><ele>1817.03</ele><time>2013-07-24T12:20:12Z</time></trkpt><trkpt lat="46.5458176564" lon="12.2184854094"><ele>1816.55</ele><time>2013-07-24T12:20:17Z</time></trkpt><trkpt lat="46.5458599012" lon="12.2184291668"><ele>1817.03</ele><time>2013-07-24T12:20:25Z</time></trkpt><trkpt lat="46.5459157247" lon="12.2183734272"><ele>1817.03</ele><time>2013-07-24T12:20:30Z</time></trkpt><trkpt lat="46.5460339095" lon="12.2182428371"><ele>1817.03</ele><time>2013-07-24T12:20:41Z</time></trkpt><trkpt lat="46.5460450575" lon="12.2182183620"><ele>1817.03</ele><time>2013-07-24T12:20:43Z</time></trkpt><trkpt lat="46.5460414533" lon="12.2181293461"><ele>1817.51</ele><time>2013-07-24T12:20:50Z</time></trkpt><trkpt lat="46.5460571274" lon="12.2180135921"><ele>1817.03</ele><time>2013-07-24T12:20:58Z</time></trkpt><trkpt lat="46.5460476559" lon="12.2178652324"><ele>1817.03</ele><time>2013-07-24T12:21:08Z</time></trkpt><trkpt lat="46.5460632462" lon="12.2177612130"><ele>1816.07</ele><time>2013-07-24T12:21:15Z</time></trkpt><trkpt lat="46.5460682753" lon="12.2177352291"><ele>1816.07</ele><time>2013-07-24T12:21:17Z</time></trkpt><trkpt lat="46.5460800938" lon="12.2176752985"><ele>1815.59</ele><time>2013-07-24T12:21:20Z</time></trkpt><trkpt lat="46.5460861288" lon="12.2176493984"><ele>1815.11</ele><time>2013-07-24T12:21:22Z</time></trkpt><trkpt lat="46.5460893139" lon="12.2175090853"><ele>1814.15</ele><time>2013-07-24T12:21:30Z</time></trkpt><trkpt lat="46.5460983664" lon="12.2174522560"><ele>1812.70</ele><time>2013-07-24T12:21:36Z</time></trkpt><trkpt lat="46.5460972767" lon="12.2173940018"><ele>1812.22</ele><time>2013-07-24T12:21:39Z</time></trkpt><trkpt lat="46.5461277030" lon="12.2172401939"><ele>1810.30</ele><time>2013-07-24T12:21:49Z</time></trkpt><trkpt lat="46.5461363364" lon="12.2171956021"><ele>1810.30</ele><time>2013-07-24T12:21:52Z</time></trkpt><trkpt lat="46.5461597219" lon="12.2171086818"><ele>1809.82</ele><time>2013-07-24T12:21:58Z</time></trkpt><trkpt lat="46.5462424513" lon="12.2169598192"><ele>1808.86</ele><time>2013-07-24T12:22:06Z</time></trkpt><trkpt lat="46.5462541021" lon="12.2169038281"><ele>1808.38</ele><time>2013-07-24T12:22:09Z</time></trkpt><trkpt lat="46.5462520905" lon="12.2168586496"><ele>1808.38</ele><time>2013-07-24T12:22:12Z</time></trkpt><trkpt lat="46.5462623164" lon="12.2168468311"><ele>1808.38</ele><time>2013-07-24T12:22:13Z</time></trkpt><trkpt lat="46.5463186428" lon="12.2167327534"><ele>1807.90</ele><time>2013-07-24T12:22:20Z</time></trkpt><trkpt lat="46.5463217441" lon="12.2167113796"><ele>1807.90</ele><time>2013-07-24T12:22:21Z</time></trkpt><trkpt lat="46.5463054832" lon="12.2166761756"><ele>1807.42</ele><time>2013-07-24T12:22:24Z</time></trkpt><trkpt lat="46.5462891385" lon="12.2166366130"><ele>1807.42</ele><time>2013-07-24T12:22:27Z</time></trkpt><trkpt lat="46.5462757275" lon="12.2165176738"><ele>1806.45</ele><time>2013-07-24T12:22:36Z</time></trkpt><trkpt lat="46.5462546051" lon="12.2164721601"><ele>1805.01</ele><time>2013-07-24T12:22:44Z</time></trkpt><trkpt lat="46.5462344885" lon="12.2164686397"><ele>1805.49</ele><time>2013-07-24T12:22:47Z</time></trkpt><trkpt lat="46.5461937524" lon="12.2164031770"><ele>1804.53</ele><time>2013-07-24T12:22:53Z</time></trkpt><trkpt lat="46.5461690258" lon="12.2163640335"><ele>1804.05</ele><time>2013-07-24T12:22:56Z</time></trkpt><trkpt lat="46.5461605601" lon="12.2162395623"><ele>1802.13</ele><time>2013-07-24T12:23:05Z</time></trkpt><trkpt lat="46.5461571235" lon="12.2161953058"><ele>1802.13</ele><time>2013-07-24T12:23:08Z</time></trkpt><trkpt lat="46.5461560339" lon="12.2161631193"><ele>1801.65</ele><time>2013-07-24T12:23:10Z</time></trkpt><trkpt lat="46.5461712051" lon="12.2160285898"><ele>1799.73</ele><time>2013-07-24T12:23:19Z</time></trkpt><trkpt lat="46.5461971890" lon="12.2158977482"><ele>1797.80</ele><time>2013-07-24T12:23:27Z</time></trkpt><trkpt lat="46.5461868793" lon="12.2158439364"><ele>1796.84</ele><time>2013-07-24T12:23:30Z</time></trkpt><trkpt lat="46.5461937524" lon="12.2157581896"><ele>1796.36</ele><time>2013-07-24T12:23:35Z</time></trkpt><trkpt lat="46.5461900644" lon="12.2156246658"><ele>1793.96</ele><time>2013-07-24T12:23:43Z</time></trkpt><trkpt lat="46.5462121926" lon="12.2155405954"><ele>1792.03</ele><time>2013-07-24T12:23:49Z</time></trkpt><trkpt lat="46.5461890586" lon="12.2154567763"><ele>1791.07</ele><time>2013-07-24T12:23:57Z</time></trkpt><trkpt lat="46.5462124441" lon="12.2154480591"><ele>1789.15</ele><time>2013-07-24T12:24:06Z</time></trkpt><trkpt lat="46.5462179761" lon="12.2154375818"><ele>1788.67</ele><time>2013-07-24T12:24:08Z</time></trkpt><trkpt lat="46.5462501626" lon="12.2154098377"><ele>1787.23</ele><time>2013-07-24T12:24:15Z</time></trkpt><trkpt lat="46.5462421160" lon="12.2153221630"><ele>1786.27</ele><time>2013-07-24T12:24:21Z</time></trkpt><trkpt lat="46.5461951774" lon="12.2152160481"><ele>1784.34</ele><time>2013-07-24T12:24:30Z</time></trkpt><trkpt lat="46.5461901482" lon="12.2151345760"><ele>1782.90</ele><time>2013-07-24T12:24:39Z</time></trkpt><trkpt lat="46.5461380966" lon="12.2150598094"><ele>1781.94</ele><time>2013-07-24T12:24:46Z</time></trkpt><trkpt lat="46.5461313073" lon="12.2150480747"><ele>1781.94</ele><time>2013-07-24T12:24:47Z</time></trkpt><trkpt lat="46.5461173933" lon="12.2150405310"><ele>1781.94</ele><time>2013-07-24T12:24:49Z</time></trkpt><trkpt lat="46.5460934211" lon="12.2150154691"><ele>1781.46</ele><time>2013-07-24T12:24:59Z</time></trkpt><trkpt lat="46.5460612345" lon="12.2149647586"><ele>1782.42</ele><time>2013-07-24T12:25:06Z</time></trkpt><trkpt lat="46.5460488293" lon="12.2148727253"><ele>1781.46</ele><time>2013-07-24T12:25:13Z</time></trkpt><trkpt lat="46.5460326523" lon="12.2147666104"><ele>1781.94</ele><time>2013-07-24T12:25:21Z</time></trkpt><trkpt lat="46.5460518468" lon="12.2147008125"><ele>1782.42</ele><time>2013-07-24T12:25:26Z</time></trkpt><trkpt lat="46.5460727178" lon="12.2146376129"><ele>1781.94</ele><time>2013-07-24T12:25:31Z</time></trkpt><trkpt lat="46.5461486578" lon="12.2144955397"><ele>1781.94</ele><time>2013-07-24T12:25:40Z</time></trkpt><trkpt lat="46.5461671818" lon="12.2144486848"><ele>1781.94</ele><time>2013-07-24T12:25:44Z</time></trkpt><trkpt lat="46.5462752245" lon="12.2143585794"><ele>1780.02</ele><time>2013-07-24T12:25:55Z</time></trkpt><trkpt lat="46.5462919045" lon="12.2142647859"><ele>1779.54</ele><time>2013-07-24T12:26:04Z</time></trkpt><trkpt lat="46.5462920722" lon="12.2142264806"><ele>1779.06</ele><time>2013-07-24T12:26:07Z</time></trkpt><trkpt lat="46.5463415254" lon="12.2141057812"><ele>1777.61</ele><time>2013-07-24T12:26:14Z</time></trkpt><trkpt lat="46.5463834349" lon="12.2139576729"><ele>1776.65</ele><time>2013-07-24T12:26:23Z</time></trkpt><trkpt lat="46.5464080777" lon="12.2139203735"><ele>1777.13</ele><time>2013-07-24T12:26:26Z</time></trkpt><trkpt lat="46.5464707743" lon="12.2137612011"><ele>1776.65</ele><time>2013-07-24T12:26:35Z</time></trkpt><trkpt lat="46.5464739595" lon="12.2137115803"><ele>1776.17</ele><time>2013-07-24T12:26:38Z</time></trkpt><trkpt lat="46.5465147793" lon="12.2136093210"><ele>1775.69</ele><time>2013-07-24T12:26:43Z</time></trkpt><trkpt lat="46.5465338062" lon="12.2134250030"><ele>1775.21</ele><time>2013-07-24T12:26:53Z</time></trkpt><trkpt lat="46.5465503186" lon="12.2133715264"><ele>1775.69</ele><time>2013-07-24T12:26:56Z</time></trkpt><trkpt lat="46.5465497319" lon="12.2133125179"><ele>1774.73</ele><time>2013-07-24T12:26:59Z</time></trkpt><trkpt lat="46.5465725306" lon="12.2131996974"><ele>1774.73</ele><time>2013-07-24T12:27:05Z</time></trkpt><trkpt lat="46.5465462115" lon="12.2130653355"><ele>1774.73</ele><time>2013-07-24T12:27:13Z</time></trkpt><trkpt lat="46.5465631429" lon="12.2129555326"><ele>1774.25</ele><time>2013-07-24T12:27:20Z</time></trkpt><trkpt lat="46.5465824213" lon="12.2128568776"><ele>1774.73</ele><time>2013-07-24T12:27:26Z</time></trkpt><trkpt lat="46.5465839300" lon="12.2127782553"><ele>1774.25</ele><time>2013-07-24T12:27:30Z</time></trkpt><trkpt lat="46.5465903841" lon="12.2127040755"><ele>1775.21</ele><time>2013-07-24T12:27:35Z</time></trkpt><trkpt lat="46.5466000233" lon="12.2125363536"><ele>1774.73</ele><time>2013-07-24T12:27:44Z</time></trkpt><trkpt lat="46.5466022864" lon="12.2125029936"><ele>1774.73</ele><time>2013-07-24T12:27:46Z</time></trkpt><trkpt lat="46.5466227382" lon="12.2124678735"><ele>1774.25</ele><time>2013-07-24T12:27:54Z</time></trkpt><trkpt lat="46.5466255043" lon="12.2124621738"><ele>1774.25</ele><time>2013-07-24T12:27:56Z</time></trkpt><trkpt lat="46.5466678329" lon="12.2124286462"><ele>1773.77</ele><time>2013-07-24T12:28:02Z</time></trkpt><trkpt lat="46.5467361454" lon="12.2124107927"><ele>1774.25</ele><time>2013-07-24T12:28:09Z</time></trkpt><trkpt lat="46.5468066372" lon="12.2123808693"><ele>1774.73</ele><time>2013-07-24T12:28:15Z</time></trkpt><trkpt lat="46.5468489658" lon="12.2123679612"><ele>1774.25</ele><time>2013-07-24T12:28:17Z</time></trkpt><trkpt lat="46.5470228903" lon="12.2124219406"><ele>1774.25</ele><time>2013-07-24T12:28:29Z</time></trkpt><trkpt lat="46.5470828209" lon="12.2124796081"><ele>1773.77</ele><time>2013-07-24T12:28:34Z</time></trkpt><trkpt lat="46.5471393149" lon="12.2125989664"><ele>1774.25</ele><time>2013-07-24T12:28:42Z</time></trkpt><trkpt lat="46.5471806377" lon="12.2126420494"><ele>1773.77</ele><time>2013-07-24T12:28:46Z</time></trkpt><trkpt lat="46.5472722519" lon="12.2127053328"><ele>1773.77</ele><time>2013-07-24T12:28:55Z</time></trkpt><trkpt lat="46.5472792089" lon="12.2127419617"><ele>1773.77</ele><time>2013-07-24T12:28:57Z</time></trkpt><trkpt lat="46.5473061148" lon="12.2127942648"><ele>1773.29</ele><time>2013-07-24T12:29:00Z</time></trkpt><trkpt lat="46.5474021714" lon="12.2128857952"><ele>1772.33</ele><time>2013-07-24T12:29:10Z</time></trkpt><trkpt lat="46.5474051051" lon="12.2128863819"><ele>1772.81</ele><time>2013-07-24T12:29:11Z</time></trkpt><trkpt lat="46.5474118944" lon="12.2129168082"><ele>1772.33</ele><time>2013-07-24T12:29:12Z</time></trkpt><trkpt lat="46.5474261437" lon="12.2129397746"><ele>1772.81</ele><time>2013-07-24T12:29:14Z</time></trkpt><trkpt lat="46.5475269780" lon="12.2129799239"><ele>1773.29</ele><time>2013-07-24T12:29:24Z</time></trkpt><trkpt lat="46.5475687198" lon="12.2129814327"><ele>1773.29</ele><time>2013-07-24T12:29:29Z</time></trkpt><trkpt lat="46.5476323385" lon="12.2130148765"><ele>1772.81</ele><time>2013-07-24T12:29:35Z</time></trkpt><trkpt lat="46.5477436502" lon="12.2130238451"><ele>1772.81</ele><time>2013-07-24T12:29:41Z</time></trkpt><trkpt lat="46.5478128009" lon="12.2130889725"><ele>1772.81</ele><time>2013-07-24T12:29:48Z</time></trkpt><trkpt lat="46.5478419699" lon="12.2131908964"><ele>1772.81</ele><time>2013-07-24T12:29:52Z</time></trkpt><trkpt lat="46.5479352605" lon="12.2132255137"><ele>1772.33</ele><time>2013-07-24T12:30:01Z</time></trkpt><trkpt lat="46.5479893237" lon="12.2132482287"><ele>1773.77</ele><time>2013-07-24T12:30:06Z</time></trkpt><trkpt lat="46.5480480809" lon="12.2133467998"><ele>1773.29</ele><time>2013-07-24T12:30:16Z</time></trkpt><trkpt lat="46.5480869729" lon="12.2133897152"><ele>1774.25</ele><time>2013-07-24T12:30:22Z</time></trkpt><trkpt lat="46.5481629129" lon="12.2133891284"><ele>1774.25</ele><time>2013-07-24T12:30:28Z</time></trkpt><trkpt lat="46.5482416190" lon="12.2134544235"><ele>1774.25</ele><time>2013-07-24T12:30:37Z</time></trkpt><trkpt lat="46.5482620709" lon="12.2134473827"><ele>1774.25</ele><time>2013-07-24T12:30:40Z</time></trkpt><trkpt lat="46.5483474825" lon="12.2134357318"><ele>1773.77</ele><time>2013-07-24T12:30:43Z</time></trkpt><trkpt lat="46.5484592970" lon="12.2134489752"><ele>1773.29</ele><time>2013-07-24T12:30:50Z</time></trkpt><trkpt lat="46.5485322196" lon="12.2134830058"><ele>1772.33</ele><time>2013-07-24T12:30:57Z</time></trkpt><trkpt lat="46.5486338083" lon="12.2134669125"><ele>1771.37</ele><time>2013-07-24T12:31:07Z</time></trkpt><trkpt lat="46.5486931521" lon="12.2134541720"><ele>1770.41</ele><time>2013-07-24T12:31:12Z</time></trkpt><trkpt lat="46.5487440303" lon="12.2134670801"><ele>1769.92</ele><time>2013-07-24T12:31:18Z</time></trkpt><trkpt lat="46.5487643983" lon="12.2134639788"><ele>1769.44</ele><time>2013-07-24T12:31:20Z</time></trkpt><trkpt lat="46.5488192998" lon="12.2134251706"><ele>1769.44</ele><time>2013-07-24T12:31:27Z</time></trkpt><trkpt lat="46.5488353092" lon="12.2134217340"><ele>1769.44</ele><time>2013-07-24T12:31:28Z</time></trkpt><trkpt lat="46.5488674957" lon="12.2134110052"><ele>1769.92</ele><time>2013-07-24T12:31:31Z</time></trkpt><trkpt lat="46.5488959104" lon="12.2134120949"><ele>1768.96</ele><time>2013-07-24T12:31:36Z</time></trkpt><trkpt lat="46.5489131771" lon="12.2134085745"><ele>1769.44</ele><time>2013-07-24T12:31:37Z</time></trkpt><trkpt lat="46.5489571821" lon="12.2133887932"><ele>1769.92</ele><time>2013-07-24T12:31:41Z</time></trkpt><trkpt lat="46.5490141790" lon="12.2133615520"><ele>1769.92</ele><time>2013-07-24T12:31:49Z</time></trkpt><trkpt lat="46.5490420908" lon="12.2133488115"><ele>1769.92</ele><time>2013-07-24T12:31:51Z</time></trkpt><trkpt lat="46.5491642989" lon="12.2133125179"><ele>1770.89</ele><time>2013-07-24T12:32:01Z</time></trkpt><trkpt lat="46.5492763650" lon="12.2132785711"><ele>1771.85</ele><time>2013-07-24T12:32:10Z</time></trkpt><trkpt lat="46.5493035223" lon="12.2132753022"><ele>1771.37</ele><time>2013-07-24T12:32:13Z</time></trkpt><trkpt lat="46.5493823960" lon="12.2132642381"><ele>1770.41</ele><time>2013-07-24T12:32:22Z</time></trkpt><trkpt lat="46.5494524688" lon="12.2132195625"><ele>1770.41</ele><time>2013-07-24T12:32:29Z</time></trkpt><trkpt lat="46.5494743455" lon="12.2132110130"><ele>1770.41</ele><time>2013-07-24T12:32:32Z</time></trkpt><trkpt lat="46.5494927019" lon="12.2132214066"><ele>1769.92</ele><time>2013-07-24T12:32:34Z</time></trkpt><trkpt lat="46.5496509522" lon="12.2131680977"><ele>1769.92</ele><time>2013-07-24T12:32:42Z</time></trkpt><trkpt lat="46.5496882517" lon="12.2131374199"><ele>1769.92</ele><time>2013-07-24T12:32:45Z</time></trkpt><trkpt lat="46.5497158282" lon="12.2131154593"><ele>1770.89</ele><time>2013-07-24T12:32:47Z</time></trkpt><trkpt lat="46.5498271398" lon="12.2130639106"><ele>1771.37</ele><time>2013-07-24T12:32:55Z</time></trkpt><trkpt lat="46.5498480946" lon="12.2130609769"><ele>1770.89</ele><time>2013-07-24T12:32:57Z</time></trkpt><trkpt lat="46.5499209333" lon="12.2130512539"><ele>1769.92</ele><time>2013-07-24T12:33:04Z</time></trkpt><trkpt lat="46.5500055905" lon="12.2130463924"><ele>1769.92</ele><time>2013-07-24T12:33:12Z</time></trkpt><trkpt lat="46.5500535350" lon="12.2130200732"><ele>1769.44</ele><time>2013-07-24T12:33:16Z</time></trkpt><trkpt lat="46.5501154773" lon="12.2130126134"><ele>1767.52</ele><time>2013-07-24T12:33:25Z</time></trkpt><trkpt lat="46.5501370188" lon="12.2130012978"><ele>1767.04</ele><time>2013-07-24T12:33:27Z</time></trkpt><trkpt lat="46.5502484981" lon="12.2129110247"><ele>1767.04</ele><time>2013-07-24T12:33:39Z</time></trkpt><trkpt lat="46.5502784215" lon="12.2128743120"><ele>1767.52</ele><time>2013-07-24T12:33:42Z</time></trkpt><trkpt lat="46.5503477398" lon="12.2127609886"><ele>1768.48</ele><time>2013-07-24T12:33:51Z</time></trkpt><trkpt lat="46.5503717121" lon="12.2126698773"><ele>1769.92</ele><time>2013-07-24T12:34:01Z</time></trkpt><trkpt lat="46.5504148789" lon="12.2126001399"><ele>1770.41</ele><time>2013-07-24T12:34:09Z</time></trkpt><trkpt lat="46.5504453890" lon="12.2125565540"><ele>1770.89</ele><time>2013-07-24T12:34:13Z</time></trkpt><trkpt lat="46.5505002905" lon="12.2124454938"><ele>1771.85</ele><time>2013-07-24T12:34:22Z</time></trkpt><trkpt lat="46.5505740512" lon="12.2123416420"><ele>1773.77</ele><time>2013-07-24T12:34:33Z</time></trkpt><trkpt lat="46.5505967662" lon="12.2122968826"><ele>1774.73</ele><time>2013-07-24T12:34:40Z</time></trkpt><trkpt lat="46.5506630670" lon="12.2122032568"><ele>1776.17</ele><time>2013-07-24T12:34:50Z</time></trkpt><trkpt lat="46.5507032163" lon="12.2121397220"><ele>1777.13</ele><time>2013-07-24T12:34:59Z</time></trkpt><trkpt lat="46.5507065691" lon="12.2120524663"><ele>1778.58</ele><time>2013-07-24T12:35:08Z</time></trkpt><trkpt lat="46.5507615544" lon="12.2119838186"><ele>1779.06</ele><time>2013-07-24T12:35:18Z</time></trkpt><trkpt lat="46.5507578664" lon="12.2119487822"><ele>1779.54</ele><time>2013-07-24T12:35:37Z</time></trkpt><trkpt lat="46.5507464670" lon="12.2118986584"><ele>1780.98</ele><time>2013-07-24T12:35:47Z</time></trkpt><trkpt lat="46.5507720318" lon="12.2118149232"><ele>1782.42</ele><time>2013-07-24T12:35:56Z</time></trkpt><trkpt lat="46.5507887118" lon="12.2117324453"><ele>1783.86</ele><time>2013-07-24T12:36:07Z</time></trkpt><trkpt lat="46.5507785697" lon="12.2116598580"><ele>1785.31</ele><time>2013-07-24T12:36:17Z</time></trkpt><trkpt lat="46.5507913101" lon="12.2116031125"><ele>1786.27</ele><time>2013-07-24T12:36:26Z</time></trkpt><trkpt lat="46.5507981833" lon="12.2115822416"><ele>1786.27</ele><time>2013-07-24T12:36:33Z</time></trkpt><trkpt lat="46.5507906396" lon="12.2115727700"><ele>1786.75</ele><time>2013-07-24T12:36:50Z</time></trkpt><trkpt lat="46.5507951658" lon="12.2115067206"><ele>1786.75</ele><time>2013-07-24T12:37:01Z</time></trkpt><trkpt lat="46.5508317109" lon="12.2113624681"><ele>1786.27</ele><time>2013-07-24T12:37:12Z</time></trkpt><trkpt lat="46.5508453734" lon="12.2113420162"><ele>1786.27</ele><time>2013-07-24T12:37:14Z</time></trkpt><trkpt lat="46.5509014484" lon="12.2112445347"><ele>1786.27</ele><time>2013-07-24T12:37:21Z</time></trkpt><trkpt lat="46.5509895422" lon="12.2111050598"><ele>1785.79</ele><time>2013-07-24T12:37:32Z</time></trkpt><trkpt lat="46.5510343853" lon="12.2110476438"><ele>1786.27</ele><time>2013-07-24T12:37:37Z</time></trkpt><trkpt lat="46.5511087328" lon="12.2109001223"><ele>1786.75</ele><time>2013-07-24T12:37:46Z</time></trkpt><trkpt lat="46.5511353035" lon="12.2108203266"><ele>1786.75</ele><time>2013-07-24T12:37:51Z</time></trkpt><trkpt lat="46.5511388239" lon="12.2107818536"><ele>1787.23</ele><time>2013-07-24T12:37:53Z</time></trkpt><trkpt lat="46.5511490498" lon="12.2106248606"><ele>1787.71</ele><time>2013-07-24T12:38:03Z</time></trkpt><trkpt lat="46.5511673223" lon="12.2105234396"><ele>1787.71</ele><time>2013-07-24T12:38:09Z</time></trkpt><trkpt lat="46.5512027778" lon="12.2104209289"><ele>1787.71</ele><time>2013-07-24T12:38:16Z</time></trkpt><trkpt lat="46.5511935577" lon="12.2103886586"><ele>1788.19</ele><time>2013-07-24T12:38:18Z</time></trkpt><trkpt lat="46.5512068849" lon="12.2103452403"><ele>1788.19</ele><time>2013-07-24T12:38:21Z</time></trkpt><trkpt lat="46.5512964875" lon="12.2102374490"><ele>1788.67</ele><time>2013-07-24T12:38:29Z</time></trkpt><trkpt lat="46.5513499640" lon="12.2101222817"><ele>1789.15</ele><time>2013-07-24T12:38:37Z</time></trkpt><trkpt lat="46.5513862576" lon="12.2099987324"><ele>1789.63</ele><time>2013-07-24T12:38:46Z</time></trkpt><trkpt lat="46.5514182765" lon="12.2099286597"><ele>1790.59</ele><time>2013-07-24T12:38:52Z</time></trkpt><trkpt lat="46.5514783747" lon="12.2097901069"><ele>1791.07</ele><time>2013-07-24T12:39:00Z</time></trkpt><trkpt lat="46.5515037719" lon="12.2096517216"><ele>1791.55</ele><time>2013-07-24T12:39:08Z</time></trkpt><trkpt lat="46.5515565779" lon="12.2095113248"><ele>1792.03</ele><time>2013-07-24T12:39:17Z</time></trkpt><trkpt lat="46.5515607689" lon="12.2094938066"><ele>1793.00</ele><time>2013-07-24T12:39:18Z</time></trkpt><trkpt lat="46.5516004991" lon="12.2094412521"><ele>1792.03</ele><time>2013-07-24T12:39:22Z</time></trkpt><trkpt lat="46.5516084619" lon="12.2093672398"><ele>1792.52</ele><time>2013-07-24T12:39:27Z</time></trkpt><trkpt lat="46.5516485274" lon="12.2091688402"><ele>1793.48</ele><time>2013-07-24T12:39:38Z</time></trkpt><trkpt lat="46.5516776964" lon="12.2090458777"><ele>1793.48</ele><time>2013-07-24T12:39:47Z</time></trkpt><trkpt lat="46.5517124813" lon="12.2089799121"><ele>1793.96</ele><time>2013-07-24T12:39:53Z</time></trkpt><trkpt lat="46.5517691430" lon="12.2089024633"><ele>1793.96</ele><time>2013-07-24T12:40:02Z</time></trkpt><trkpt lat="46.5517799556" lon="12.2088752221"><ele>1794.44</ele><time>2013-07-24T12:40:04Z</time></trkpt><trkpt lat="46.5517901815" lon="12.2088268586"><ele>1793.48</ele><time>2013-07-24T12:40:08Z</time></trkpt><trkpt lat="46.5518066939" lon="12.2087994497"><ele>1793.96</ele><time>2013-07-24T12:40:10Z</time></trkpt><trkpt lat="46.5518213622" lon="12.2087459732"><ele>1794.44</ele><time>2013-07-24T12:40:14Z</time></trkpt><trkpt lat="46.5518553089" lon="12.2086490784"><ele>1794.44</ele><time>2013-07-24T12:40:22Z</time></trkpt><trkpt lat="46.5518802870" lon="12.2085367609"><ele>1793.96</ele><time>2013-07-24T12:40:31Z</time></trkpt><trkpt lat="46.5518971346" lon="12.2084842902"><ele>1794.44</ele><time>2013-07-24T12:40:34Z</time></trkpt><trkpt lat="46.5519169159" lon="12.2084298916"><ele>1794.92</ele><time>2013-07-24T12:40:37Z</time></trkpt><trkpt lat="46.5520110447" lon="12.2083096113"><ele>1795.40</ele><time>2013-07-24T12:40:43Z</time></trkpt><trkpt lat="46.5520107932" lon="12.2081886604"><ele>1795.88</ele><time>2013-07-24T12:40:51Z</time></trkpt><trkpt lat="46.5520187560" lon="12.2080901731"><ele>1795.40</ele><time>2013-07-24T12:40:58Z</time></trkpt><trkpt lat="46.5520450752" lon="12.2080276441"><ele>1794.92</ele><time>2013-07-24T12:41:02Z</time></trkpt><trkpt lat="46.5521185845" lon="12.2078823857"><ele>1795.88</ele><time>2013-07-24T12:41:11Z</time></trkpt><trkpt lat="46.5521958657" lon="12.2077448387"><ele>1795.88</ele><time>2013-07-24T12:41:21Z</time></trkpt><trkpt lat="46.5522270463" lon="12.2077115625"><ele>1796.36</ele><time>2013-07-24T12:41:23Z</time></trkpt><trkpt lat="46.5522559639" lon="12.2076463513"><ele>1796.36</ele><time>2013-07-24T12:41:31Z</time></trkpt><trkpt lat="46.5523340832" lon="12.2075254843"><ele>1796.84</ele><time>2013-07-24T12:41:40Z</time></trkpt><trkpt lat="46.5523434710" lon="12.2075152583"><ele>1797.32</ele><time>2013-07-24T12:41:41Z</time></trkpt><trkpt lat="46.5523775015" lon="12.2074733488"><ele>1797.32</ele><time>2013-07-24T12:41:44Z</time></trkpt><trkpt lat="46.5523973666" lon="12.2074425034"><ele>1797.32</ele><time>2013-07-24T12:41:46Z</time></trkpt><trkpt lat="46.5524847060" lon="12.2073581815"><ele>1797.32</ele><time>2013-07-24T12:41:54Z</time></trkpt><trkpt lat="46.5525381826" lon="12.2073021904"><ele>1798.28</ele><time>2013-07-24T12:42:03Z</time></trkpt><trkpt lat="46.5525470674" lon="12.2072977480"><ele>1798.28</ele><time>2013-07-24T12:42:04Z</time></trkpt><trkpt lat="46.5525733866" lon="12.2072586045"><ele>1797.80</ele><time>2013-07-24T12:42:07Z</time></trkpt><trkpt lat="46.5526679344" lon="12.2071920522"><ele>1798.28</ele><time>2013-07-24T12:42:17Z</time></trkpt><trkpt lat="46.5527397674" lon="12.2071210574"><ele>1798.76</ele><time>2013-07-24T12:42:25Z</time></trkpt><trkpt lat="46.5527603868" lon="12.2071089875"><ele>1798.76</ele><time>2013-07-24T12:42:28Z</time></trkpt><trkpt lat="46.5529556014" lon="12.2070711851"><ele>1799.73</ele><time>2013-07-24T12:42:38Z</time></trkpt><trkpt lat="46.5530263446" lon="12.2070685029"><ele>1799.73</ele><time>2013-07-24T12:42:42Z</time></trkpt><trkpt lat="46.5531029552" lon="12.2071719356"><ele>1800.21</ele><time>2013-07-24T12:42:50Z</time></trkpt><trkpt lat="46.5531699266" lon="12.2072970774"><ele>1800.21</ele><time>2013-07-24T12:42:59Z</time></trkpt><trkpt lat="46.5531612933" lon="12.2073394898"><ele>1800.69</ele><time>2013-07-24T12:43:02Z</time></trkpt><trkpt lat="46.5531664900" lon="12.2074733488"><ele>1801.17</ele><time>2013-07-24T12:43:10Z</time></trkpt><trkpt lat="46.5531806555" lon="12.2075906117"><ele>1801.17</ele><time>2013-07-24T12:43:17Z</time></trkpt><trkpt lat="46.5532301087" lon="12.2077010013"><ele>1801.65</ele><time>2013-07-24T12:43:25Z</time></trkpt><trkpt lat="46.5532883629" lon="12.2077484429"><ele>1801.17</ele><time>2013-07-24T12:43:28Z</time></trkpt><trkpt lat="46.5533538256" lon="12.2078487743"><ele>1801.65</ele><time>2013-07-24T12:43:36Z</time></trkpt><trkpt lat="46.5533668175" lon="12.2079370357"><ele>1802.13</ele><time>2013-07-24T12:43:46Z</time></trkpt><trkpt lat="46.5534275863" lon="12.2078941204"><ele>1802.13</ele><time>2013-07-24T12:43:51Z</time></trkpt><trkpt lat="46.5535269957" lon="12.2077723313"><ele>1802.13</ele><time>2013-07-24T12:44:02Z</time></trkpt><trkpt lat="46.5535461903" lon="12.2077504545"><ele>1802.61</ele><time>2013-07-24T12:44:04Z</time></trkpt><trkpt lat="46.5536191128" lon="12.2076247260"><ele>1803.09</ele><time>2013-07-24T12:44:16Z</time></trkpt><trkpt lat="46.5536253154" lon="12.2076029330"><ele>1803.09</ele><time>2013-07-24T12:44:18Z</time></trkpt><trkpt lat="46.5536901914" lon="12.2075312678"><ele>1803.09</ele><time>2013-07-24T12:44:27Z</time></trkpt><trkpt lat="46.5537019260" lon="12.2075121570"><ele>1803.09</ele><time>2013-07-24T12:44:29Z</time></trkpt><trkpt lat="46.5537444223" lon="12.2074121609"><ele>1803.57</ele><time>2013-07-24T12:44:38Z</time></trkpt><trkpt lat="46.5537685622" lon="12.2073647194"><ele>1804.05</ele><time>2013-07-24T12:44:41Z</time></trkpt><trkpt lat="46.5538425744" lon="12.2072121687"><ele>1803.57</ele><time>2013-07-24T12:44:50Z</time></trkpt><trkpt lat="46.5538948774" lon="12.2071353905"><ele>1804.53</ele><time>2013-07-24T12:44:54Z</time></trkpt><trkpt lat="46.5539362002" lon="12.2070823330"><ele>1804.53</ele><time>2013-07-24T12:44:59Z</time></trkpt><trkpt lat="46.5539754275" lon="12.2070169542"><ele>1805.01</ele><time>2013-07-24T12:45:02Z</time></trkpt><trkpt lat="46.5540252160" lon="12.2068847716"><ele>1805.01</ele><time>2013-07-24T12:45:09Z</time></trkpt><trkpt lat="46.5540714841" lon="12.2067348193"><ele>1805.01</ele><time>2013-07-24T12:45:20Z</time></trkpt><trkpt lat="46.5540791117" lon="12.2067229170"><ele>1805.01</ele><time>2013-07-24T12:45:21Z</time></trkpt><trkpt lat="46.5541236196" lon="12.2066669259"><ele>1805.49</ele><time>2013-07-24T12:45:26Z</time></trkpt><trkpt lat="46.5541471727" lon="12.2066199034"><ele>1805.01</ele><time>2013-07-24T12:45:29Z</time></trkpt><trkpt lat="46.5542454924" lon="12.2064806800"><ele>1805.01</ele><time>2013-07-24T12:45:38Z</time></trkpt><trkpt lat="46.5542935207" lon="12.2064000461"><ele>1805.49</ele><time>2013-07-24T12:45:43Z</time></trkpt><trkpt lat="46.5543841291" lon="12.2062469926"><ele>1805.49</ele><time>2013-07-24T12:45:54Z</time></trkpt><trkpt lat="46.5543944389" lon="12.2062122077"><ele>1805.97</ele><time>2013-07-24T12:45:56Z</time></trkpt><trkpt lat="46.5544500947" lon="12.2060317453"><ele>1805.97</ele><time>2013-07-24T12:46:06Z</time></trkpt><trkpt lat="46.5544816945" lon="12.2058320045"><ele>1806.45</ele><time>2013-07-24T12:46:15Z</time></trkpt><trkpt lat="46.5545345005" lon="12.2056724969"><ele>1806.94</ele><time>2013-07-24T12:46:23Z</time></trkpt><trkpt lat="46.5546099376" lon="12.2055265680"><ele>1806.94</ele><time>2013-07-24T12:46:35Z</time></trkpt><trkpt lat="46.5546132904" lon="12.2055202816"><ele>1806.94</ele><time>2013-07-24T12:46:36Z</time></trkpt><trkpt lat="46.5546365082" lon="12.2054937109"><ele>1806.45</ele><time>2013-07-24T12:46:39Z</time></trkpt><trkpt lat="46.5547398571" lon="12.2054322716"><ele>1807.42</ele><time>2013-07-24T12:46:48Z</time></trkpt><trkpt lat="46.5548569523" lon="12.2053870093"><ele>1807.90</ele><time>2013-07-24T12:46:58Z</time></trkpt><trkpt lat="46.5550328884" lon="12.2052820679"><ele>1807.90</ele><time>2013-07-24T12:47:07Z</time></trkpt><trkpt lat="46.5551065654" lon="12.2052645497"><ele>1808.86</ele><time>2013-07-24T12:47:13Z</time></trkpt><trkpt lat="46.5551626403" lon="12.2052508872"><ele>1809.34</ele><time>2013-07-24T12:47:18Z</time></trkpt><trkpt lat="46.5552035440" lon="12.2052321117"><ele>1809.82</ele><time>2013-07-24T12:47:21Z</time></trkpt><trkpt lat="46.5552404243" lon="12.2052180301"><ele>1810.30</ele><time>2013-07-24T12:47:25Z</time></trkpt><trkpt lat="46.5552729461" lon="12.2052226402"><ele>1810.78</ele><time>2013-07-24T12:47:28Z</time></trkpt><trkpt lat="46.5553911310" lon="12.2052541561"><ele>1811.26</ele><time>2013-07-24T12:47:38Z</time></trkpt><trkpt lat="46.5554086491" lon="12.2052468639"><ele>1810.78</ele><time>2013-07-24T12:47:40Z</time></trkpt><trkpt lat="46.5554762911" lon="12.2051930521"><ele>1812.22</ele><time>2013-07-24T12:47:50Z</time></trkpt><trkpt lat="46.5554807335" lon="12.2051866818"><ele>1811.74</ele><time>2013-07-24T12:47:51Z</time></trkpt><trkpt lat="46.5555303544" lon="12.2051632125"><ele>1813.18</ele><time>2013-07-24T12:47:57Z</time></trkpt><trkpt lat="46.5555907879" lon="12.2050958220"><ele>1813.66</ele><time>2013-07-24T12:48:07Z</time></trkpt><trkpt lat="46.5556562506" lon="12.2050336283"><ele>1814.15</ele><time>2013-07-24T12:48:14Z</time></trkpt><trkpt lat="46.5557854157" lon="12.2049238253"><ele>1815.11</ele><time>2013-07-24T12:48:27Z</time></trkpt><trkpt lat="46.5558738448" lon="12.2048483882"><ele>1816.07</ele><time>2013-07-24T12:48:37Z</time></trkpt><trkpt lat="46.5559554845" lon="12.2047523316"><ele>1816.55</ele><time>2013-07-24T12:48:47Z</time></trkpt><trkpt lat="46.5560595877" lon="12.2046701889"><ele>1817.03</ele><time>2013-07-24T12:48:56Z</time></trkpt><trkpt lat="46.5561325103" lon="12.2045862023"><ele>1817.99</ele><time>2013-07-24T12:49:06Z</time></trkpt><trkpt lat="46.5561346058" lon="12.2046012897"><ele>1818.47</ele><time>2013-07-24T12:49:10Z</time></trkpt><trkpt lat="46.5561573207" lon="12.2045891359"><ele>1818.47</ele><time>2013-07-24T12:49:12Z</time></trkpt><trkpt lat="46.5561871603" lon="12.2045438737"><ele>1818.95</ele><time>2013-07-24T12:49:17Z</time></trkpt><trkpt lat="46.5561936982" lon="12.2043939214"><ele>1819.91</ele><time>2013-07-24T12:49:27Z</time></trkpt><trkpt lat="46.5562304109" lon="12.2042737249"><ele>1821.35</ele><time>2013-07-24T12:49:38Z</time></trkpt><trkpt lat="46.5562408883" lon="12.2042011376"><ele>1821.35</ele><time>2013-07-24T12:49:44Z</time></trkpt><trkpt lat="46.5562837198" lon="12.2040428873"><ele>1821.35</ele><time>2013-07-24T12:49:54Z</time></trkpt><trkpt lat="46.5563390404" lon="12.2038544621"><ele>1822.80</ele><time>2013-07-24T12:50:06Z</time></trkpt><trkpt lat="46.5563612524" lon="12.2037680447"><ele>1823.76</ele><time>2013-07-24T12:50:13Z</time></trkpt><trkpt lat="46.5564155672" lon="12.2036843933"><ele>1823.76</ele><time>2013-07-24T12:50:20Z</time></trkpt><trkpt lat="46.5564509388" lon="12.2035480198"><ele>1825.20</ele><time>2013-07-24T12:50:30Z</time></trkpt><trkpt lat="46.5564540401" lon="12.2035217006"><ele>1824.72</ele><time>2013-07-24T12:50:32Z</time></trkpt><trkpt lat="46.5564441495" lon="12.2034644522"><ele>1825.68</ele><time>2013-07-24T12:50:36Z</time></trkpt><trkpt lat="46.5564930998" lon="12.2033543140"><ele>1825.68</ele><time>2013-07-24T12:50:44Z</time></trkpt><trkpt lat="46.5565081872" lon="12.2032972332"><ele>1826.64</ele><time>2013-07-24T12:50:48Z</time></trkpt><trkpt lat="46.5565267950" lon="12.2031816468"><ele>1826.64</ele><time>2013-07-24T12:50:57Z</time></trkpt><trkpt lat="46.5565855522" lon="12.2030183673"><ele>1828.56</ele><time>2013-07-24T12:51:07Z</time></trkpt><trkpt lat="46.5566033218" lon="12.2029401641"><ele>1828.08</ele><time>2013-07-24T12:51:11Z</time></trkpt><trkpt lat="46.5566546191" lon="12.2028109990"><ele>1829.05</ele><time>2013-07-24T12:51:21Z</time></trkpt><trkpt lat="46.5566646773" lon="12.2027127631"><ele>1829.53</ele><time>2013-07-24T12:51:30Z</time></trkpt><trkpt lat="46.5566772502" lon="12.2026862763"><ele>1830.01</ele><time>2013-07-24T12:51:32Z</time></trkpt><trkpt lat="46.5567417070" lon="12.2025089990"><ele>1830.97</ele><time>2013-07-24T12:51:43Z</time></trkpt><trkpt lat="46.5567625780" lon="12.2023846954"><ele>1832.41</ele><time>2013-07-24T12:51:52Z</time></trkpt><trkpt lat="46.5567685291" lon="12.2023743857"><ele>1832.41</ele><time>2013-07-24T12:51:53Z</time></trkpt><trkpt lat="46.5568261966" lon="12.2022660915"><ele>1832.89</ele><time>2013-07-24T12:52:02Z</time></trkpt><trkpt lat="46.5568479896" lon="12.2022075858"><ele>1833.37</ele><time>2013-07-24T12:52:07Z</time></trkpt><trkpt lat="46.5568969399" lon="12.2021361720"><ele>1833.37</ele><time>2013-07-24T12:52:13Z</time></trkpt><trkpt lat="46.5569220856" lon="12.2020354215"><ele>1833.37</ele><time>2013-07-24T12:52:21Z</time></trkpt><trkpt lat="46.5569215827" lon="12.2020231839"><ele>1833.37</ele><time>2013-07-24T12:52:22Z</time></trkpt><trkpt lat="46.5569350775" lon="12.2019344196"><ele>1833.85</ele><time>2013-07-24T12:52:28Z</time></trkpt><trkpt lat="46.5568894800" lon="12.2018412966"><ele>1832.89</ele><time>2013-07-24T12:52:37Z</time></trkpt><trkpt lat="46.5568378475" lon="12.2017609142"><ele>1832.41</ele><time>2013-07-24T12:52:45Z</time></trkpt><trkpt lat="46.5568230953" lon="12.2017428931"><ele>1832.41</ele><time>2013-07-24T12:52:47Z</time></trkpt><trkpt lat="46.5567321517" lon="12.2016289830"><ele>1831.93</ele><time>2013-07-24T12:52:58Z</time></trkpt><trkpt lat="46.5566376876" lon="12.2015660349"><ele>1832.89</ele><time>2013-07-24T12:53:06Z</time></trkpt><trkpt lat="46.5565559641" lon="12.2015050985"><ele>1831.93</ele><time>2013-07-24T12:53:16Z</time></trkpt><trkpt lat="46.5565391164" lon="12.2014862392"><ele>1831.93</ele><time>2013-07-24T12:53:19Z</time></trkpt><trkpt lat="46.5565112885" lon="12.2014620155"><ele>1831.45</ele><time>2013-07-24T12:53:22Z</time></trkpt><trkpt lat="46.5564545430" lon="12.2014460899"><ele>1831.93</ele><time>2013-07-24T12:53:31Z</time></trkpt><trkpt lat="46.5564541239" lon="12.2014440782"><ele>1831.93</ele><time>2013-07-24T12:53:36Z</time></trkpt><trkpt lat="46.5564235300" lon="12.2014079522"><ele>1831.93</ele><time>2013-07-24T12:53:45Z</time></trkpt><trkpt lat="46.5564133879" lon="12.2014007438"><ele>1831.93</ele><time>2013-07-24T12:53:53Z</time></trkpt><trkpt lat="46.5564133879" lon="12.2014007438"><ele>1831.45</ele><time>2013-07-24T12:53:58Z</time></trkpt><trkpt lat="46.5564113762" lon="12.2013794538"><ele>1831.93</ele><time>2013-07-24T12:54:06Z</time></trkpt><trkpt lat="46.5564113762" lon="12.2013794538"><ele>1831.45</ele><time>2013-07-24T12:54:31Z</time></trkpt><trkpt lat="46.5564112924" lon="12.2013777774"><ele>1831.93</ele><time>2013-07-24T12:54:51Z</time></trkpt><trkpt lat="46.5564112924" lon="12.2013777774"><ele>1830.97</ele><time>2013-07-24T12:55:13Z</time></trkpt><trkpt lat="46.5564113762" lon="12.2013769392"><ele>1830.97</ele><time>2013-07-24T12:55:37Z</time></trkpt><trkpt lat="46.5564125497" lon="12.2013744246"><ele>1830.97</ele><time>2013-07-24T12:56:09Z</time></trkpt><trkpt lat="46.5564125497" lon="12.2013744246"><ele>1831.45</ele><time>2013-07-24T12:56:39Z</time></trkpt><trkpt lat="46.5564132202" lon="12.2013700660"><ele>1830.49</ele><time>2013-07-24T12:57:02Z</time></trkpt><trkpt lat="46.5564128011" lon="12.2013621870"><ele>1830.49</ele><time>2013-07-24T12:57:29Z</time></trkpt><trkpt lat="46.5564128011" lon="12.2013621870"><ele>1830.49</ele><time>2013-07-24T12:57:55Z</time></trkpt><trkpt lat="46.5564114600" lon="12.2013579123"><ele>1830.49</ele><time>2013-07-24T12:58:18Z</time></trkpt><trkpt lat="46.5564124659" lon="12.2013610136"><ele>1830.97</ele><time>2013-07-24T12:58:44Z</time></trkpt><trkpt lat="46.5564124659" lon="12.2013610136"><ele>1830.49</ele><time>2013-07-24T12:59:06Z</time></trkpt><trkpt lat="46.5564112086" lon="12.2013592534"><ele>1830.01</ele><time>2013-07-24T12:59:27Z</time></trkpt><trkpt lat="46.5564112086" lon="12.2013592534"><ele>1830.01</ele><time>2013-07-24T12:59:50Z</time></trkpt><trkpt lat="46.5564163215" lon="12.2013462614"><ele>1829.53</ele><time>2013-07-24T13:00:10Z</time></trkpt><trkpt lat="46.5564163215" lon="12.2013462614"><ele>1829.53</ele><time>2013-07-24T13:00:34Z</time></trkpt><trkpt lat="46.5564179979" lon="12.2013454232"><ele>1829.05</ele><time>2013-07-24T13:00:58Z</time></trkpt><trkpt lat="46.5564179979" lon="12.2013454232"><ele>1829.53</ele><time>2013-07-24T13:01:17Z</time></trkpt><trkpt lat="46.5564179979" lon="12.2013454232"><ele>1826.64</ele><time>2013-07-24T13:01:21Z</time></trkpt><trkpt lat="46.5564162377" lon="12.2013437469"><ele>1830.01</ele><time>2013-07-24T13:01:24Z</time></trkpt><trkpt lat="46.5564162377" lon="12.2013437469"><ele>1826.16</ele><time>2013-07-24T13:01:26Z</time></trkpt><trkpt lat="46.5564162377" lon="12.2013437469"><ele>1829.53</ele><time>2013-07-24T13:01:27Z</time></trkpt></trkseg></trk></gpx> 
